[[{"header":{"parameterUnit":"m.s-1","parameterCategory":1,"la1":30.6,"la2":29.2853,"lo1":-89.7004,"lo2":-87.6739,"dy":0.0162,"dx":0.0183,"nx":112,"ny":82,"refTime":"2024-03-19T18:00:00:Z","depth":0,"parameterNumber":2,"parameterNumberName":"U-component_of_WINDS"},"data":[0.0,0.0,0.0,0.0,0.0,0.0,0.0,0.0,0.0,0.0,0.0,0.0,0.0,0.0,0.0,0.0,0.0,0.0,0.0,0.0,0.0,0.0,0.0,0.0,0.0,0.0,0.0,0.0,0.0,0.0,0.0,0.0,0.0,0.0,0.0,0.0,0.0,0.0,0.0,0.0,0.0,0.0,0.0,0.0,0.0,0.0,0.0,0.0,0.0,0.0,0.0,0.0,0.0,0.0,0.0,0.0,0.0,0.0,0.0,0.0,0.0,0.0,0.0,0.0,0.0,0.0,0.0,0.0,0.0,0.0,0.0,0.0,0.0,0.0,0.0,0.0,0.0,0.0,0.0,0.0,0.0,0.0,0.0,0.0,0.0,0.0,0.0,0.0,0.0,0.0,0.2632,0.3296,0.4042,0.457,0.4646,0.4494,0.4213,0.3615,0.0,0.0,0.0,0.0,0.0,0.0,0.0,0.0,0.0,0.0,0.0,0.0,0.0,0.0,0.0,0.0,0.0,0.0,0.0,0.0,0.0,0.0,0.0,0.0,0.0,0.0,0.0,0.0,0.0,0.0,0.0,0.0,0.0,0.0,0.0,0.0,0.0,0.0,0.0,0.0,0.0,0.0,0.0,0.0,0.0,0.0,0.0,0.0,0.0,0.0,0.0,0.0,0.0,0.0,0.0,0.0,0.0,0.0,0.0,0.0,0.0,0.0,0.0,0.0,0.0,0.0,0.0,0.0,0.0,0.0,0.0,0.0,0.0,0.0,0.0,0.0,0.0,0.0,0.0,0.0,0.0,0.0,0.0,0.0,0.0,0.0,0.0,0.0,0.0,0.0,0.0,0.0,0.0,0.0,0.0,0.0,0.0,0.0,0.0,0.0,0.0,0.0,0.0,0.0,0.3126,0.3979,0.4334,0.4525,0.4553,0.4243,0.3941,0.3602,0.0,0.0,0.0,0.0,0.0,0.0,0.0,0.0,0.0,0.0,0.0,0.0,0.0,0.0,0.0,0.0,0.0,0.0,0.0,0.0,0.0,0.0,0.0,0.0,0.0,0.0,0.0,0.0,0.0,0.0,0.0,0.0,0.0,0.0,0.0,0.0,0.0,0.0,0.0,0.0,0.0,0.0,0.0,0.0,0.0,0.0,0.0,0.0,0.0,0.0,0.0,0.0,0.0,0.0,0.0,0.0,0.0,0.0,0.0,0.0,0.0,0.0,0.0,0.0,0.0,0.0,0.0,0.0,0.0,0.0,0.0,0.0,0.0,0.0,0.0,0.0,0.0,0.0,0.0,0.0,0.0,0.0,0.0,0.0,0.0,0.0,0.0,0.0,0.0,0.0,0.0,0.0,0.0,0.0,0.0,0.0,0.0,0.0,0.0,0.0,0.0,0.0,0.0,0.3005,0.3533,0.414,0.4375,0.4429,0.4355,0.4144,0.3856,0.348,0.3249,0.0,0.0,0.0,0.0,0.0,0.0,0.0,0.0,0.0,0.0,0.0,0.0,0.0,0.0,0.0,0.0,0.0,0.0,0.0,0.0,0.0,0.0,0.0,0.0,0.0,0.0,0.0,0.0,0.0,0.0,0.0,0.0,0.0,0.0,0.0,0.0,0.0,0.0,0.0,0.0,0.0,0.0,0.0,0.0,0.0,0.0,0.0,0.0,0.0,0.0,0.0,0.0,0.0,0.0,0.0,0.0,0.0,0.0,0.0,0.0,0.0,0.0,0.0,0.0,0.0,0.0,0.0,0.0,0.0,0.0,0.0,0.0,0.0,0.0,0.0,0.0,0.0,0.0,0.0,0.0,0.0,0.0,0.0,0.0,0.0,0.0,0.0,0.0,0.0,0.0,0.0,0.0,0.0,0.0,0.0,0.0,0.0,0.0,0.0,0.0,0.0,0.0,0.3507,0.3765,0.4246,0.4365,0.4368,0.4204,0.4012,0.3714,0.3329,0.3102,0.0,0.0,0.0,0.0,0.0,0.0,0.0,0.0,0.0,0.0,0.0,0.0,0.0,0.0,0.0,0.0,0.0,0.0,0.0,0.0,0.0,0.0,0.0,0.0,0.0,0.0,0.0,0.0,0.0,0.0,0.0,0.0,0.0,0.0,0.0,0.0,0.0,0.0,0.0,0.0,0.0,0.0,0.0,0.0,0.0,0.0,0.0,0.0,0.0,0.0,0.0,0.0,0.0,0.0,0.0,0.0,0.0,0.0,0.0,0.0,0.0,0.0,0.0,0.0,0.0,0.0,0.0,0.0,0.0,0.0,0.0,0.0,0.0,0.0,0.0,0.0,0.0,0.0,0.0,0.0,0.0,0.0,0.0,0.0,0.0,0.0,0.0,0.0,0.0,0.0,0.0,0.0,0.0,0.0,0.0,0.0,0.0,0.0,0.0,0.0,0.0,0.0,0.3571,0.3849,0.444,0.4338,0.4207,0.4197,0.3727,0.3385,0.3309,0.2947,0.0,0.0,0.0,0.0,0.0,0.0,0.0,0.0,0.0,0.0,0.0,0.0,0.0,0.0,0.0,0.0,0.0,0.0,0.0,0.0,0.0,0.0,0.0,0.0,0.0,0.0,0.0,0.0,0.0,0.0,0.0,0.0,0.0,0.0,0.0,0.0,0.0,0.0,0.0,0.0,0.0,0.0,0.0,0.0,0.0,0.0,0.0,0.0,0.0,0.0,0.0,0.0,0.0,0.0,0.0,0.0,0.0,0.0,0.0,0.0,0.0,0.0,0.0,0.0,0.0,0.0,0.0,0.0,0.0,0.0,0.0,0.0,0.0,0.0,0.0,0.0,0.0,0.0,0.0,0.0,0.0,0.0,0.0,0.0,0.0,0.0,0.0,0.0,0.0,0.0,0.0,0.0,0.0,0.0,0.0,0.0,0.0,0.0,0.0,0.0,0.0,0.0,0.352,0.3734,0.0,0.417,0.4083,0.3856,0.3626,0.3375,0.3055,0.0,0.0,0.0,0.0,0.0,0.0,0.0,0.0,0.0,0.0,0.0,0.0,0.0,0.0,0.0,0.0,0.0,0.0,0.0,0.0,0.0,0.0,0.0,0.0,0.0,0.0,0.0,0.0,0.0,0.0,0.0,0.0,0.0,0.0,0.0,0.0,0.0,0.0,0.0,0.0,0.0,0.0,0.0,0.0,0.0,0.0,0.0,0.0,0.0,0.0,0.0,0.0,0.0,0.0,0.0,0.0,0.0,0.0,0.0,0.0,0.0,0.0,0.0,0.0,0.0,0.0,0.0,0.0,0.0,0.0,0.0,0.0,0.0,0.0,0.0,0.0,0.0,0.0,0.0,0.0,0.0,0.0,0.0,0.0,0.0,0.0,0.0,0.0,0.0,0.0,0.0,0.0,0.0,0.0,0.0,0.0,0.0,0.0,0.0,0.0,0.0,0.0,0.3249,0.3442,0.3619,0.0,0.3999,0.3894,0.3537,0.3331,0.3134,0.292,0.0,0.0,0.0,0.0,0.0,0.0,0.0,0.0,0.0,0.0,0.0,0.0,0.0,0.0,0.0,0.0,0.0,0.0,0.0,0.0,0.0,0.0,0.0,0.0,0.0,0.0,0.0,0.0,0.0,0.0,0.0,0.0,0.0,0.0,0.0,0.0,0.0,0.0,0.0,0.0,0.0,0.0,0.0,0.0,0.0,0.0,0.0,0.0,0.0,0.0,0.0,0.0,0.0,0.0,0.0,0.0,0.0,0.0,0.0,0.0,0.0,0.0,0.0,0.0,0.0,0.0,0.0,0.0,0.0,0.0,0.0,0.0,0.0,0.0,0.0,0.0,0.0,0.0,0.0,0.0,0.0,0.0,0.0,0.0,0.0,0.0,0.0,0.0,0.0,0.0,0.0,0.0,0.0,0.0,0.0,0.0,0.0,0.0,0.0,0.0,0.0,0.0,0.3246,0.3306,0.342,0.3758,0.3663,0.3517,0.3316,0.2798,0.2616,0.0,0.0,0.0,0.0,0.0,0.0,0.0,0.0,0.0,0.0,0.0,0.0,0.0,0.0,0.0,0.0,0.0,0.0,0.0,0.0,0.0,0.0,0.0,0.0,0.0,0.0,0.0,0.0,0.0,0.0,0.0,0.0,0.0,0.0,0.0,0.0,0.0,0.0,0.0,0.0,0.0,0.0,0.0,0.0,0.0,0.0,0.0,0.0,0.0,0.0,0.0,0.0,0.0,0.0,0.0,0.0,0.0,0.0,0.0,0.0,0.0,0.0,0.0,0.0,0.0,0.0,0.0,0.0,0.0,0.0,0.0,0.0,0.0,0.0,0.0,0.0,0.0,0.0,0.0,0.0,0.0,0.0,0.0,0.0,0.0,0.0,0.0,0.0,0.0,0.0,0.0,0.0,0.0,0.0,0.0,0.0,0.0,0.0,0.0,0.0,0.0,0.0,0.0,0.3342,0.3368,0.3425,0.3622,0.3605,0.3432,0.3069,0.2778,0.2673,0.2751,0.0,0.0,0.0,0.0,0.0,0.0,0.0,0.0,0.0,0.0,0.0,0.0,0.0,0.0,0.0,0.0,0.0,0.0,0.0,0.0,0.0,0.0,0.0,0.0,0.0,0.0,0.0,0.0,0.0,0.0,0.0,0.0,0.0,0.0,0.0,0.0,0.0,0.0,0.0,0.0,0.0,0.0,0.0,0.0,0.0,0.0,0.0,0.0,0.0,0.0,0.0,0.0,0.0,0.0,0.0,0.0,0.0,0.0,0.0,0.0,0.0,0.0,0.0,0.0,0.0,0.0,0.0,0.0,0.0,0.0,0.0,0.0,0.0,0.0,0.0,0.0,0.0,0.0,0.0,0.0,0.0,0.0,0.0,0.0,0.0,0.0,0.0,0.0,0.0,0.0,0.0,0.0,0.0,0.0,0.0,0.0,0.0,0.0,0.0,0.0,0.0,0.0,0.383,0.3517,0.3395,0.3704,0.3509,0.3154,0.2761,0.2591,0.2613,0.2853,0.0,0.0,0.0,0.0,0.0,0.0,0.0,0.0,0.0,0.0,0.0,0.0,0.0,0.0,0.0,0.0,0.0,0.0,0.0,0.0,0.0,0.0,0.0,0.0,0.0,0.0,0.0,0.0,0.0,0.0,0.0,0.0,0.0,0.0,0.0,0.0,0.0,0.0,0.0,0.0,0.0,0.0,0.0,0.0,0.0,0.0,0.0,0.0,0.0,0.0,0.0,0.0,0.0,0.0,0.0,0.0,0.0,0.0,0.0,0.0,0.0,0.0,0.0,0.0,0.0,0.0,0.0,0.0,0.0,0.0,0.0,0.0,0.0,0.0,0.0,0.0,0.0,0.0,0.0,0.0,0.0,0.0,0.0,0.0,0.0,0.0,0.0,0.0,0.0,0.0,0.0,0.0,0.0,0.0,0.0,0.0,0.0,0.0,0.0,0.0,0.0,0.0,0.455,0.3734,0.3346,0.3948,0.3335,0.2826,0.2589,0.2398,0.2542,0.3138,0.0,0.0,0.0,0.0,0.0,0.0,0.0,0.0,0.0,0.0,0.0,0.0,0.0,0.0,0.0,0.0,0.0,0.0,0.0,0.0,0.0,0.0,0.0,0.0,0.0,0.0,0.0,0.0,0.0,0.0,0.0,0.0,0.0,0.0,0.0,0.0,0.0,0.0,0.0,0.0,0.0,0.0,0.0,0.0,0.0,0.0,0.0,0.0,0.0,0.0,0.0,0.0,0.0,0.0,0.0,0.0,0.0,0.0,0.0,0.0,0.5808,0.0,0.0,0.0,0.0,0.0,0.0,0.0,0.0,0.0,0.0,0.0,0.0,0.0,0.0,0.0,0.0,0.0,0.0,0.0,0.0,0.0,0.0,0.0,0.0,0.0,0.0,0.0,0.0,0.0,0.0,0.0,0.0,0.0,0.0,0.0,0.0,0.0,0.0,0.0,0.0,0.0,0.4787,0.3809,0.336,0.4094,0.3403,0.2972,0.3123,0.2981,0.3162,0.3763,0.3616,0.0,0.0,0.0,0.0,0.0,0.0,0.0,0.0,0.0,0.0,0.0,0.0,0.0,0.0,0.0,0.0,0.0,0.0,0.0,0.0,0.0,0.0,0.0,0.0,0.0,0.0,0.0,0.0,0.0,0.0,0.0,0.0,0.0,0.0,0.0,0.0,0.0,0.0,0.0,0.0,0.0,0.0,0.0,0.0,0.0,0.0,0.0,0.0,0.0,0.0,0.0,0.0,0.0,0.0,0.0,0.0,0.0,0.0,0.0,0.0,0.6348,0.0,0.0,0.0,0.0,0.0,0.0,0.0,0.0,0.0,0.0,0.0,0.0,0.0,0.0,0.0,0.0,0.0,0.0,0.0,0.0,0.0,0.0,0.0,0.0,0.0,0.0,0.0,0.0,0.0,0.0,0.0,0.0,0.0,0.0,0.0,0.0,0.0,0.0,0.0,0.0,0.5204,0.43,0.3874,0.4568,0.3899,0.3474,0.3528,0.3478,0.365,0.4147,0.3969,0.0,0.0,0.0,0.0,0.0,0.0,0.0,0.0,0.0,0.0,0.0,0.0,0.0,0.0,0.0,0.0,0.0,0.0,0.0,0.0,0.0,0.0,0.0,0.0,0.0,0.0,0.0,0.0,0.0,0.0,0.0,0.0,0.0,0.0,0.0,0.0,0.0,0.0,0.0,0.0,0.0,0.0,0.0,0.0,0.0,0.0,0.0,0.0,0.0,0.0,0.0,0.0,0.0,0.5317,0.5559,0.6327,0.6286,0.6513,0.6993,0.7174,0.7298,0.7383,0.0,0.0,0.0,0.0,0.0,0.0,0.0,0.0,0.0,0.0,0.0,0.0,0.0,0.0,0.0,0.0,0.0,0.0,0.0,0.0,0.0,0.0,0.0,0.0,0.0,0.7722,0.7547,0.0,0.0,0.0,0.0,0.0,0.0,0.0,0.0,0.0,0.0,0.0,0.0,0.5638,0.4822,0.4421,0.5037,0.4426,0.3981,0.3937,0.3952,0.4072,0.443,0.4305,0.44,0.0,0.0,0.0,0.0,0.0,0.0,0.0,0.0,0.0,0.0,0.0,0.0,0.0,0.0,0.0,0.0,0.0,0.0,0.0,0.0,0.0,0.0,0.0,0.0,0.0,0.0,0.0,0.0,0.0,0.0,0.0,0.0,-0.0629,-0.0768,0.0,0.0,0.0,0.0,0.0,0.0,0.0,0.0,0.0,0.0,0.0,0.0,0.0,0.3593,0.4138,0.4692,0.5027,0.5175,0.5872,0.626,0.6404,0.625,0.6864,0.8,0.7845,0.0,0.71,0.7469,0.0,0.0,0.0,0.0,0.0,0.0,0.0,0.0,0.0,0.0,0.0,0.0,0.0,0.0,0.0,0.0,0.0,0.0,0.0,0.0,0.0,0.0,0.9583,0.829,0.8262,0.8351,0.0,0.7447,0.7406,0.7376,0.0,0.0,0.0,0.0,0.0,0.0,0.0,0.0,0.5638,0.4822,0.4421,0.5037,0.4426,0.414,0.4454,0.4486,0.4518,0.4581,0.4935,0.4966,0.4644,0.5036,0.0,0.0,0.0,0.0,0.0,0.0,0.0,0.0,0.0,0.0,0.0,0.0,0.0,0.0,0.0,0.0,0.0,0.0,0.0,0.0,0.0,0.0,0.0,0.0,0.0,0.0,0.0,0.0,0.0,-0.0776,-0.1219,-0.1661,-0.1187,-0.053,0.0,0.0,0.0,0.0,0.0,0.0,0.0,0.0,0.0,0.4031,0.3865,0.4174,0.5066,0.5022,0.5297,0.5949,0.6236,0.6583,0.6921,0.6945,0.7234,0.7669,0.7626,0.7389,0.7115,0.7869,0.8239,0.8361,0.0,0.0,0.0,0.0,0.0,0.9805,1.0603,1.0525,0.0,0.0,0.0,0.0,0.0,0.0,0.0,0.0,0.0,0.0,0.0,0.0,0.0,0.8733,0.8427,0.8157,0.785,0.7722,0.766,0.0,0.7669,0.7645,0.7073,0.0,0.0,0.0,0.0,0.5574,0.5692,0.5184,0.4934,0.5182,0.4932,0.4794,0.4985,0.4992,0.4992,0.4992,0.5182,0.5214,0.4992,0.534,0.5506,0.0,0.0,0.0,0.0,0.0,0.0,0.0,0.0,0.0,0.0,0.0,0.0,0.0,0.0,0.0,0.0,0.0,0.0,0.0,0.0,0.0,0.0,0.0,0.0,0.0,0.0,0.0,0.0,-0.1407,-0.1831,-0.2275,-0.1961,-0.128,0.0,0.0,0.0,0.0,0.0,0.0,0.3534,0.369,0.3996,0.453,0.4347,0.4713,0.569,0.528,0.5482,0.6302,0.6218,0.6453,0.6942,0.7105,0.7154,0.7316,0.7214,0.7269,0.7436,0.8304,0.8741,0.8879,0.9092,0.9433,0.9912,1.0801,1.0724,1.0315,1.1301,1.1315,1.0761,1.0211,0.0,0.9969,0.9558,0.0,0.0,0.0,0.0,1.0293,1.0233,0.9683,0.9091,0.9136,0.8764,0.8338,0.8156,0.8096,0.8003,0.0,0.802,0.7953,0.7253,0.0,0.0,0.0,0.0,0.5941,0.5726,0.5524,0.5391,0.5391,0.5391,0.5424,0.5531,0.5438,0.5358,0.5261,0.5285,0.5246,0.5119,0.5428,0.5576,0.5506,0.0,0.0,0.0,0.0,0.0,0.0,0.0,0.0,0.0,0.0,0.0,0.0,0.0,0.0,0.0,0.0,0.0,0.0,0.0,0.0,0.0,0.0,0.0,0.0,0.0,0.0,0.0,0.0,0.0,-0.2144,-0.2585,0.0,0.0,0.0,0.0,0.0797,0.2736,0.3966,0.415,0.4164,0.4412,0.485,0.487,0.5013,0.5432,0.5394,0.5413,0.5483,0.5438,0.5661,0.607,0.6089,0.652,0.7265,0.706,0.7378,0.8179,0.8621,0.8425,0.8004,0.9069,0.9154,0.8812,0.9786,1.014,1.0183,1.0842,1.1278,1.1416,1.0722,1.049,1.0526,1.0748,1.083,0.0,0.0,1.0247,1.0419,0.9728,0.9815,0.9947,0.9332,0.9437,0.9511,0.8915,0.8544,0.8447,0.0,0.8675,0.8701,0.8783,0.0,0.7845,0.7231,0.6699,0.6221,0.5745,0.5698,0.5691,0.5691,0.5691,0.5805,0.6122,0.5852,0.5521,0.5142,0.5235,0.5087,0.466,0.5086,0.5189,0.4958,0.5468,0.0,0.0,0.0,0.0,0.0,0.0,0.0,0.0,0.0,0.0,0.0,0.0,0.0,0.0,0.0,0.0,0.0,0.0,0.0,0.0,0.0,0.0,0.0,0.0,0.0,0.0,0.0,0.0,-0.2827,-0.3386,0.0,-0.2181,-0.1269,-0.0465,0.0256,0.096,0.2287,0.4281,0.4555,0.4755,0.4885,0.51,0.5332,0.5674,0.563,0.5656,0.562,0.4449,0.3913,0.3925,0.549,0.6353,0.6641,0.6523,0.6479,0.6439,0.6527,0.718,0.8146,0.8359,0.882,0.9368,0.9707,1.0124,1.0556,1.078,1.0982,1.0998,1.0462,1.0262,1.0191,1.0274,1.0656,1.0934,1.0502,1.0704,1.0931,1.0442,1.0137,0.9887,0.9642,0.9379,0.8949,0.8262,0.8029,0.782,0.7453,0.7813,0.8189,0.8135,0.8128,0.7968,0.7589,0.7168,0.6838,0.6586,0.6226,0.6035,0.6035,0.6035,0.6075,0.6189,0.5731,0.5383,0.5238,0.4923,0.4659,0.448,0.4854,0.4979,0.4891,0.5535,0.564,0.0,0.0,0.0,0.0,0.0,0.0,0.0,0.0,0.0,0.0,0.0,0.0,0.0,0.0,0.0,0.0,0.0,0.0,0.0,0.0,0.0,0.0,0.0,0.0,0.0,0.0,-0.3663,-0.3392,-0.4065,-0.4267,-0.3327,-0.2035,-0.0886,-0.0058,-0.0,0.0885,0.287,0.373,0.4125,0.4163,0.4388,0.4589,0.4861,0.4866,0.5231,0.5942,0.4736,0.336,0.1862,0.3413,0.4587,0.5255,0.5209,0.5014,0.4633,0.4503,0.524,0.6491,0.7165,0.7827,0.844,0.8829,0.9275,0.9754,1.001,1.0008,0.991,0.9726,0.9665,0.9632,0.9577,0.9893,1.0196,0.9718,0.9814,0.9932,0.951,0.9058,0.8705,0.8705,0.8402,0.7937,0.745,0.7343,0.7182,0.6696,0.708,0.7456,0.7356,0.7386,0.7384,0.7243,0.7045,0.686,0.6709,0.6501,0.6262,0.6034,0.6034,0.5996,0.589,0.5431,0.5154,0.5154,0.4691,0.4418,0.4418,0.4479,0.451,0.451,0.5093,0.549,0.5621,0.0,0.0,0.0,0.0,0.0,0.0,0.0,0.0,0.0,0.0,0.0,0.0,0.0,0.0,0.0,0.0,0.0,0.0,0.0,0.0,0.0,0.0,0.0,-0.2997,-0.3623,-0.4035,-0.3701,-0.4722,-0.5068,-0.4238,-0.3057,-0.1677,-0.0134,-0.0,-0.0,-0.0,0.1671,0.2648,0.264,0.2643,0.2748,0.2966,0.2968,0.4028,0.6108,0.6105,0.3968,-0.0,-0.0,0.1088,0.2971,0.3037,0.307,0.3063,0.2845,0.2703,0.2947,0.5419,0.6195,0.5997,0.7101,0.7494,0.7653,0.8358,0.8465,0.8328,0.8545,0.8705,0.878,0.8666,0.8639,0.8489,0.777,0.7564,0.741,0.6794,0.6588,0.6588,0.6588,0.6588,0.6588,0.6588,0.6588,0.6534,0.6534,0.6534,0.6534,0.6588,0.6398,0.6228,0.6319,0.6357,0.0,0.6141,0.6381,0.6322,0.5763,0.5682,0.5575,0.5331,0.5027,0.4867,0.4867,0.4553,0.4366,0.4371,0.3996,0.3811,0.3823,0.4095,0.4876,0.6215,0.0,0.0,0.0,0.0,0.0,0.0,0.0,0.0,0.0,0.0,0.0,0.0,0.0,0.0,0.0,0.0,0.0,0.0,0.0,0.0,0.0,-0.3692,-0.3928,-0.3616,-0.4311,-0.4859,-0.5045,-0.5405,-0.5698,-0.5664,-0.5003,-0.3274,-0.0213,-0.0,-0.0,-0.0,0.0449,0.0757,0.0776,0.0777,0.0779,0.0862,0.0862,0.1173,0.171,0.1756,0.1131,-0.0,-0.0,0.0288,0.085,0.0844,0.1733,0.3069,0.2842,0.2718,0.2768,0.3478,0.4198,0.4926,0.5262,0.5788,0.6377,0.6582,0.7079,0.7605,0.7257,0.6963,0.6844,0.7366,0.77,0.7749,0.7359,0.7261,0.7112,0.6737,0.6588,0.6588,0.6588,0.6588,0.648,0.5923,0.5819,0.5655,0.5171,0.5062,0.5391,0.6426,0.6533,0.6473,0.6518,0.6276,0.0,0.6048,0.5815,0.5593,0.5429,0.5429,0.537,0.5303,0.4819,0.453,0.453,0.4065,0.3885,0.3954,0.3876,0.3897,0.408,0.4249,0.4498,0.0,0.0,0.0,0.0,0.0,0.0,0.0,0.0,0.0,0.0,0.0,0.0,0.0,0.0,0.0,0.0,0.0,0.0,0.0,0.0,0.0,0.0,-0.4233,-0.4523,-0.4561,-0.5028,-0.5501,-0.5745,-0.5905,-0.6081,-0.619,-0.5959,-0.4635,-0.1842,-0.1415,-0.1283,-0.1302,-0.046,-0.0,-0.0,-0.0,-0.0,-0.0,-0.0,-0.0,-0.0,-0.0,-0.0,-0.0,-0.0,-0.0,0.0,-0.0,0.0685,0.1822,0.1619,0.1593,0.0,0.0,0.0,0.0,0.0,0.3883,0.4426,0.5105,0.5673,0.6025,0.5073,0.5106,0.5534,0.5923,0.6146,0.6205,0.6036,0.6001,0.597,0.5745,0.5719,0.5719,0.5719,0.5719,0.5605,0.5167,0.5058,0.4948,0.457,0.0,0.0,0.555,0.5719,0.5747,0.5775,0.5645,0.5557,0.5562,0.5435,0.5216,0.4957,0.4993,0.4955,0.4687,0.4401,0.0,0.0,0.0,0.3771,0.3792,0.3792,0.0,0.0,0.0,0.4383,0.4765,0.0,0.0,0.0,0.6719,0.6626,0.0,0.0,0.0,0.0,0.0,0.0,0.0,0.0,0.0,0.0,0.0,0.0,0.0,0.0,0.0,0.0,-0.4914,-0.5315,-0.5623,-0.5786,-0.5915,-0.6017,-0.6166,-0.6207,-0.6067,-0.619,-0.5745,-0.4312,-0.3703,-0.3437,-0.3437,0.0,0.0,0.0,0.0,-0.0,-0.0,-0.0,-0.0,-0.0,-0.0,-0.0,-0.0,-0.0,-0.0,-0.0,-0.0,-0.0,-0.0,-0.0,-0.0,-0.0,-0.0,0.0781,0.1982,0.1976,0.1952,0.0,0.0,0.0,0.0,0.2707,0.331,0.4555,0.4363,0.4428,0.4477,0.4477,0.4525,0.4519,0.4519,0.4519,0.4519,0.4519,0.4519,0.4519,0.4519,0.4519,0.4519,0.4519,0.4519,0.4519,0.4519,0.4519,0.4529,0.4605,0.47,0.0,0.4897,0.5065,0.4939,0.4409,0.0,0.0,0.3866,0.3941,0.4019,0.4019,0.4036,0.3985,0.3849,0.386,0.3931,0.4066,0.407,0.4506,0.5378,0.5378,0.571,0.6347,0.5601,0.5593,0.0,0.0,0.0,0.0,0.0,0.0,0.0,0.0,0.0,0.0,0.0,0.0,0.0,0.0,0.0,-0.4562,-0.5179,-0.5779,-0.6088,-0.6254,-0.6264,-0.6054,-0.6166,-0.6247,-0.6217,-0.6254,-0.6183,-0.5838,-0.5715,-0.5655,-0.5655,-0.5274,0.0,-0.0078,-0.0,-0.0,-0.0,-0.0,-0.0,-0.0,0.0,0.0,-0.0,-0.0,-0.0,-0.0,-0.0,-0.0,-0.0,-0.0,-0.0,-0.0,-0.0,0.0175,0.0452,0.0449,0.0447,0.0447,0.0781,0.2473,0.426,0.2687,0.241,0.2815,0.3186,0.3849,0.0,0.4522,0.4519,0.4519,0.4519,0.4519,0.4519,0.4519,0.4519,0.4519,0.4519,0.4519,0.4519,0.4519,0.4519,0.4519,0.4519,0.4519,0.4508,0.4532,0.4403,0.4347,0.4367,0.4271,0.4219,0.4077,0.4105,0.4073,0.3975,0.4002,0.4019,0.4019,0.4083,0.4137,0.411,0.427,0.4398,0.4429,0.4379,0.4515,0.4677,0.4677,0.4791,0.4952,0.5891,0.6385,0.0,0.0,0.0,0.0,0.0,0.0,0.0,0.0,0.0,0.0,0.0,-0.4809,-0.4779,0.0,-0.6517,-0.612,-0.6611,-0.69,-0.6527,-0.6542,-0.6502,-0.6278,-0.6318,-0.6339,-0.6345,-0.6268,-0.6271,-0.6271,-0.6274,-0.6278,-0.6278,-0.6295,-0.4867,-0.1641,-0.0548,-0.0,-0.0,-0.0,-0.0,-0.0,-0.0,-0.0,-0.0,-0.0,-0.0,-0.0,-0.0,-0.0,-0.0,-0.0,-0.0,-0.0,-0.0,-0.0,-0.0,-0.0,-0.0,-0.0,-0.0,0.0976,0.2121,0.1349,0.2125,0.3431,0.4008,0.4422,0.4659,0.4796,0.4755,0.4674,0.4596,0.4575,0.4558,0.4536,0.4519,0.4519,0.4519,0.4519,0.4519,0.4519,0.4519,0.4519,0.4519,0.4519,0.4519,0.4519,0.4341,0.4197,0.4197,0.4063,0.4019,0.4019,0.4036,0.4083,0.4083,0.4199,0.4239,0.4239,0.4314,0.4355,0.4355,0.4426,0.4519,0.4519,0.4519,0.4519,0.4519,0.4519,0.4519,0.4519,0.5226,0.5555,0.0,0.0,0.0,0.0,0.0,0.0,0.0,0.0,-0.4983,-0.4651,-0.5656,-0.6562,-0.6666,-0.7951,-0.8754,-0.806,-0.8349,-0.8252,-0.7217,-0.7072,-0.6933,-0.6616,-0.6488,-0.6427,-0.6315,-0.6278,-0.6338,-0.6338,-0.6338,-0.6338,-0.6338,-0.6271,-0.5485,-0.3752,-0.133,-0.0,-0.0,-0.0,-0.0,-0.0,-0.0,-0.0,-0.0,-0.0,-0.0,-0.0,-0.0,-0.0,-0.0,-0.0,-0.0,-0.0,-0.0,-0.0,-0.0,-0.0,-0.0,-0.0,-0.0,-0.0,-0.0,-0.0,0.1885,0.427,0.5052,0.5074,0.4838,0.5022,0.4989,0.4891,0.4765,0.4735,0.4704,0.4579,0.4551,0.4551,0.4551,0.4551,0.4551,0.4551,0.4551,0.4551,0.4551,0.458,0.4553,0.4522,0.4365,0.4237,0.4237,0.4182,0.4107,0.4107,0.4216,0.4237,0.4237,0.4395,0.4519,0.4519,0.4519,0.4519,0.4519,0.4519,0.4519,0.4519,0.4519,0.4519,0.4519,0.4519,0.4519,0.4519,0.4519,0.4519,-1.0798,-0.9322,-0.8411,-0.8824,-0.793,-0.7273,0.0,0.0,-0.7591,-0.8111,-0.833,-0.8642,-0.9043,-0.9353,-0.9622,-0.9653,-0.9831,-0.9591,-0.8632,-0.8493,-0.801,-0.6857,-0.6556,-0.6464,-0.6451,-0.6335,-0.6338,-0.6338,-0.6338,-0.6338,-0.6338,-0.6271,-0.6203,-0.5973,-0.2113,-0.0,-0.0,-0.0,-0.0,-0.0,-0.0,-0.0,-0.0,-0.0,-0.0,-0.0,-0.0,-0.0,-0.0,-0.0,-0.0,-0.0,-0.0,-0.0,-0.0,-0.0,-0.0,-0.0,-0.0,-0.0,-0.0,-0.0,0.1341,0.3173,0.4549,0.4914,0.4901,0.4914,0.4921,0.4914,0.4897,0.4894,0.4891,0.487,0.4867,0.4867,0.4867,0.4867,0.4867,0.4867,0.4867,0.4867,0.4867,0.4755,0.4619,0.4539,0.4501,0.444,0.444,0.4477,0.4467,0.4467,0.4484,0.444,0.444,0.4508,0.4519,0.4519,0.4519,0.4519,0.4519,0.4519,0.4519,0.4519,0.4519,0.4519,0.4519,0.4519,0.4519,0.4519,0.4519,0.4519,-1.1978,-1.0414,-0.9375,0.0,-0.9372,-0.8505,-0.8933,-0.8699,-0.8669,-0.9478,-1.0408,-1.1301,-1.2125,-1.2679,-1.2733,0.0,-1.1659,-1.0789,-0.9099,-0.876,-0.8203,-0.6881,-0.6491,-0.6349,-0.6349,-0.6295,-0.6338,-0.6338,-0.6338,-0.6338,-0.6338,-0.6271,-0.6285,-0.6295,-0.4557,-0.2512,-0.0,-0.0,-0.0,-0.0,-0.0,-0.0,-0.0,-0.0,-0.0,-0.0,-0.0,-0.0,-0.0,-0.0,-0.0,-0.0,-0.0,-0.0,-0.0,-0.0,-0.0,-0.0,-0.0,-0.0,0.0316,0.2487,0.2962,0.3024,0.4659,0.5119,0.506,0.5152,0.5176,0.5155,0.5067,0.5043,0.502,0.4938,0.4918,0.4918,0.4918,0.4918,0.4918,0.4918,0.4918,0.4918,0.4918,0.4867,0.4772,0.4619,0.4573,0.4519,0.4519,0.4519,0.4519,0.4519,0.4519,0.4519,0.4519,0.4519,0.4519,0.4519,0.4519,0.4519,0.4519,0.4519,0.4519,0.4519,0.4519,0.4519,0.4519,0.4519,0.4519,0.4519,0.4519,0.4519,-1.2834,-1.1413,0.0,-1.1426,-1.0792,-0.9878,-0.9912,-1.0199,-1.0653,-1.1314,-1.2601,-1.3859,-1.4605,-1.4949,-1.4859,-1.4107,-1.3258,-1.1889,-0.9665,-0.9239,-0.8529,-0.6763,-0.6352,-0.6196,-0.6196,-0.6159,-0.6169,-0.6331,-0.6224,-0.622,-0.6261,-0.6278,-0.6291,-0.6305,-0.6322,-0.4254,-0.0079,-0.0,-0.0,-0.0,-0.0,-0.0,-0.0,-0.0,-0.0,-0.0,-0.0,-0.0,-0.0,-0.0,-0.0,-0.0,-0.0,-0.0,-0.0,-0.0,-0.0,-0.0,-0.0,-0.0,0.0456,0.3066,0.3673,0.3675,0.499,0.5274,0.5216,0.5328,0.5428,0.5335,0.5223,0.5226,0.522,0.5077,0.5104,0.5152,0.5114,0.5104,0.5104,0.5104,0.507,0.504,0.504,0.5006,0.4942,0.4826,0.465,0.4567,0.4522,0.4519,0.4519,0.4519,0.4519,0.4519,0.4519,0.4519,0.4519,0.4519,0.4519,0.4519,0.4519,0.4519,0.4519,0.4519,0.4519,0.4519,0.4519,0.4519,0.4519,0.4519,0.4519,0.4519,-1.2762,-1.173,-1.0785,-1.236,-1.2034,-1.1523,-1.2104,-1.3269,-1.4253,-1.4436,-1.5349,-1.6035,-1.5975,-1.525,-1.4687,-1.5005,-1.4198,-1.2814,-1.0622,-1.0264,-0.9167,-0.6617,-0.6132,-0.6037,0.0,-0.5901,-0.5939,-0.6237,-0.6132,-0.6118,-0.6268,-0.6288,-0.6305,-0.6329,-0.6329,-0.4254,-0.0079,-0.0,-0.0,-0.0,-0.0,-0.0,-0.0,-0.0,-0.0,-0.0,-0.0,-0.0,-0.0,-0.0,-0.0,-0.0,-0.0,-0.0,-0.0,-0.0,-0.0,-0.0,-0.0,-0.0,-0.0,0.0135,0.2482,0.5316,0.5386,0.5372,0.5422,0.5425,0.5428,0.5425,0.5422,0.5464,0.5538,0.5386,0.5566,0.5735,0.5599,0.5569,0.5569,0.5569,0.545,0.5415,0.5415,0.5223,0.5121,0.5118,0.487,0.4629,0.4536,0.4519,0.4519,0.4519,0.4519,0.4519,0.4519,0.4519,0.4519,0.4519,0.4519,0.4519,0.4519,0.4519,0.4519,0.4519,0.4519,0.4519,0.4519,0.4519,0.4519,0.4519,0.4519,0.4519,-1.3485,-1.3269,-1.3255,-1.4536,-1.4428,-1.4206,-1.4887,-1.5189,-1.5438,-1.5825,-1.5764,-1.5683,-1.6035,-1.546,-1.4854,-1.4576,-1.431,-1.314,-1.0458,-1.0197,-0.9304,-0.6617,-0.6213,0.0,0.0,0.0,0.0,-0.6244,-0.6224,-0.6264,-0.6258,-0.6291,-0.6311,-0.6318,-0.3546,-0.1436,-0.0,-0.0,-0.0,-0.0,-0.0,-0.0,-0.0,-0.0,-0.0,-0.0,-0.0,-0.0,-0.0,-0.0,-0.0,-0.0,-0.0,-0.0,-0.0,-0.0,-0.0,-0.0,-0.0,-0.0,-0.0,-0.0,0.0814,0.2265,0.4663,0.5521,0.558,0.5545,0.5583,0.5654,0.5654,0.5691,0.5718,0.5667,0.5728,0.5789,0.5739,0.5732,0.5701,0.5606,0.5549,0.5481,0.5446,0.5318,0.5216,0.502,0.4819,0.4636,0.4536,0.4519,0.4519,0.4519,0.4519,0.4519,0.4519,0.4519,0.4519,0.4519,0.4519,0.4519,0.4519,0.4519,0.4519,0.4519,0.4519,0.4519,0.4519,0.4519,0.4519,0.4519,0.4519,0.4519,-1.5021,-1.4985,-1.4854,-1.6107,-1.599,-1.5771,-1.603,-1.6153,-1.6211,-1.6251,-1.5926,-1.5589,-1.5644,-1.4836,-1.4064,-1.3786,-1.3427,-1.2322,-0.9985,-0.9756,-0.8988,-0.6667,-0.6291,-0.624,0.0,0.0,0.0,-0.6261,-0.6169,-0.6169,-0.627,-0.489,-0.4078,-0.4078,-0.1453,-0.0,-0.0,-0.0,-0.0785,-0.2277,-0.2262,-0.1763,-0.0944,-0.0278,-0.0,-0.0,-0.0,-0.0,-0.0,-0.0,-0.0,-0.0,-0.0,-0.0,-0.0,-0.0,-0.0,-0.0,-0.0,-0.0,-0.0,-0.0,-0.0,0.0556,0.3623,0.5101,0.5668,0.5681,0.5732,0.58,0.58,0.584,0.5871,0.5813,0.5884,0.5949,0.5895,0.5881,0.584,0.5694,0.5627,0.5542,0.5456,0.5428,0.5277,0.5033,0.4867,0.4697,0.4543,0.4519,0.4519,0.4519,0.4519,0.4519,0.4519,0.4519,0.4519,0.4519,0.4519,0.4519,0.4519,0.4519,0.4519,0.4519,0.4519,0.4519,0.4519,0.4519,0.4519,0.4519,0.4519,0.4519,-1.718,-1.6727,-1.5755,-1.6971,-1.6763,-1.6238,-1.5905,-1.6468,-1.6785,-1.59,-1.5867,-1.5694,0.0,0.0,-1.2438,-1.2712,-1.1802,-1.0691,-0.9355,-0.8981,-0.8341,0.0,0.0,0.0,0.0,0.0,0.0,-0.6312,0.0,-0.5801,-0.6159,-0.2205,-0.0,-0.0,-0.0,-0.0,-0.0,-0.0,-0.2043,-0.6006,-0.6166,-0.5095,-0.2835,-0.1059,-0.0206,-0.0,-0.0,-0.0,-0.0,-0.0,-0.0,-0.0,-0.0,-0.0,-0.0,-0.0,-0.0,-0.0,-0.0,-0.0,-0.0,-0.0,0.0141,0.07,0.2519,0.4356,0.5751,0.5793,0.5833,0.5844,0.5837,0.5942,0.6013,0.5861,0.6047,0.622,0.6074,0.604,0.5996,0.5844,0.5691,0.5542,0.5456,0.5428,0.5308,0.5152,0.5016,0.4819,0.457,0.4522,0.4519,0.4519,0.4519,0.4519,0.4519,0.4519,0.4519,0.4519,0.4519,0.4519,0.4519,0.4519,0.4519,0.4519,0.4519,0.4519,0.4519,0.4519,0.4519,0.4519,0.4519,0.4519,-1.7829,-1.7924,-1.7868,-1.8193,-1.7896,-1.7713,-1.8525,-1.8034,-1.7223,-1.6467,-1.5284,-1.3981,0.0,0.0,0.0,-1.1752,-1.2438,0.0,-1.0895,-1.0169,0.0,-0.8093,0.0,-0.6729,-0.6651,-0.6746,0.0,0.0,-0.4814,-0.3853,-0.3921,-0.1453,-0.0,-0.0,-0.0,-0.0,-0.0,-0.0,-0.055,-0.1649,-0.4373,-0.5513,-0.5336,-0.4429,-0.2558,-0.0,-0.0,-0.0,-0.0,-0.0,-0.0,-0.0,-0.0,-0.0,-0.0,-0.0,-0.0,-0.0,-0.0,-0.0,-0.0,-0.0,0.2122,0.4525,0.3405,0.4646,0.6338,0.6246,0.6302,0.6444,0.6332,0.6332,0.6322,0.6176,0.6203,0.6251,0.621,0.6203,0.6156,0.6003,0.5766,0.5542,0.5456,0.5428,0.5308,0.5152,0.5101,0.4969,0.467,0.4587,0.4519,0.4519,0.4519,0.4519,0.4519,0.4519,0.4519,0.4519,0.4519,0.4519,0.4519,0.4519,0.4519,0.4519,0.4519,0.4519,0.4519,0.4519,0.4519,0.4519,0.4519,0.4519,-1.9171,-1.9052,-1.8562,-1.8562,-1.8184,-1.7819,-1.8112,-1.7287,-1.6115,-1.5114,-1.3993,-1.2772,-1.1525,-1.1135,-1.0932,0.0,0.0,0.0,-1.07,-1.0036,-0.9347,0.0,-0.7606,0.0,-0.6902,-0.697,-0.7,0.0,-0.5623,-0.3976,-0.1821,-0.0603,-0.0,-0.0,-0.0,-0.0,-0.0,-0.0,-0.0471,-0.1409,-0.3431,-0.4986,-0.6139,-0.5892,-0.4087,-0.1161,0.0,-0.0,-0.0,-0.0,-0.0,-0.0,-0.0,-0.0,-0.0,-0.0,-0.0,-0.0,-0.0,-0.0,-0.0,-0.0,0.2847,0.6084,0.4847,0.5418,0.6475,0.6424,0.6471,0.658,0.6495,0.6471,0.6437,0.6295,0.6338,0.6338,0.6338,0.6338,0.6213,0.6061,0.5793,0.5562,0.5477,0.5473,0.5332,0.5243,0.5121,0.4975,0.4813,0.4657,0.4591,0.4525,0.4519,0.4519,0.4519,0.4519,0.4519,0.4519,0.4519,0.4519,0.4519,0.4519,0.4519,0.4519,0.4519,0.4519,0.4519,0.4519,0.4519,0.4519,0.4519,0.4519,-2.0629,-1.9902,-1.8682,-1.8516,-1.7899,-1.7165,-1.6326,-1.5542,-1.4582,-1.3258,-1.2617,-1.2037,-1.1022,-1.0213,-0.9839,-1.0205,0.0,-0.9979,-1.0179,-0.9484,-0.8843,-0.8627,-0.7722,-0.7119,-0.7139,-0.7139,-0.7061,-0.7084,-0.6821,-0.4977,-0.1132,-0.0342,-0.0,-0.0,-0.0,-0.0,-0.0,-0.0,-0.1176,-0.3519,-0.3507,-0.4392,-0.6061,-0.6211,-0.4935,-0.2643,0.0,0.0,-0.0,-0.0,-0.0,-0.0,-0.0,-0.0,-0.0,-0.0,-0.0,-0.0,-0.0,-0.0,0.0078,0.0689,0.3121,0.5891,0.6191,0.6338,0.6315,0.6482,0.6485,0.6498,0.6478,0.6471,0.6437,0.6295,0.6338,0.6254,0.6234,0.623,0.619,0.6057,0.5806,0.5613,0.5593,0.5464,0.5428,0.5428,0.5142,0.4969,0.4948,0.4779,0.4609,0.4532,0.4519,0.4519,0.4519,0.4519,0.4519,0.4519,0.4519,0.4519,0.4519,0.4519,0.4519,0.4519,0.457,0.4625,0.4625,0.4736,0.4791,0.4791,0.4791,0.4791,-2.066,-1.997,-1.8926,-1.7861,-1.7306,-1.6995,-1.6609,-1.5909,0.0,-1.3572,-1.2918,-1.2127,-1.0656,-1.0529,-1.0881,-1.1608,-1.1434,-1.1548,-1.2671,-1.0644,-0.9301,0.0,-0.813,-0.701,-0.7129,-0.7139,0.0,0.0,0.0,-0.4703,-0.5768,-0.2168,-0.0,-0.0,-0.0,-0.0,-0.0,-0.0,-0.1962,-0.5758,-0.5714,-0.5924,-0.6227,-0.6,-0.4867,-0.2929,-0.0913,0.0,-0.0,-0.0,-0.0,-0.0,-0.0,-0.0,-0.0,-0.0,-0.0,-0.0,-0.0,-0.0,0.0549,0.4075,0.453,0.3966,0.577,0.6397,0.6489,0.6458,0.6563,0.663,0.6505,0.6471,0.6437,0.6295,0.6338,0.6227,0.6098,0.6071,0.6061,0.6034,0.5884,0.5728,0.561,0.5464,0.5428,0.5428,0.5384,0.524,0.5108,0.4748,0.4546,0.4522,0.4519,0.4519,0.4519,0.4519,0.4519,0.4519,0.4519,0.4519,0.4519,0.4519,0.4519,0.4519,0.5058,0.5324,0.5324,0.5932,0.6263,0.6263,0.6263,0.6263,-2.0786,-2.0197,-1.9303,-1.778,-1.704,-1.64,-1.5458,0.0,0.0,-1.1981,-1.1572,-1.1148,-1.0131,-1.0191,0.0,-1.1116,-1.084,-1.0899,-1.1999,-1.0545,-0.9442,-0.9622,-0.8512,-0.7461,0.0,-0.7031,-0.7044,0.0,0.0,-0.3507,-0.3396,-0.1277,-0.0,-0.0,-0.0,-0.0,-0.0,-0.0,-0.102,-0.3061,-0.5217,-0.6318,-0.6285,-0.6159,-0.5552,-0.4553,-0.1395,0.0,-0.0,-0.0,-0.0,-0.0,-0.0,-0.0,-0.0,-0.0,-0.0,0.0331,0.2534,0.3315,0.3597,0.5614,0.5578,0.4937,0.596,0.6318,0.6376,0.6451,0.6525,0.6566,0.6491,0.6471,0.6437,0.6295,0.6338,0.624,0.6166,0.6149,0.6149,0.6149,0.6023,0.5898,0.583,0.563,0.5481,0.5481,0.5342,0.5213,0.5138,0.4877,0.467,0.4589,0.4582,0.4548,0.4525,0.4519,0.4519,0.4519,0.4519,0.4519,0.4519,0.4519,0.4519,0.4519,0.4842,0.5164,0.5487,0.5873,0.6204,0.6588,0.6588,0.6588,-2.0705,-2.0456,-1.9942,-1.8161,-1.7214,-1.6216,-1.4681,-1.3423,0.0,-1.0633,-1.0263,-1.0126,-0.9682,-0.9711,-0.996,0.0,-0.9987,-0.982,-1.0675,-1.0039,-0.9368,0.0,-0.8493,0.0,-0.696,-0.6878,0.0,0.0,0.0,0.0,-0.0086,-0.0,-0.0,-0.0,-0.0,-0.0,-0.0,-0.0,-0.0,-0.0078,-0.3377,-0.5196,-0.5652,-0.6077,-0.6329,-0.6087,-0.1806,0.0,0.0,-0.0,-0.0,-0.0,-0.0,-0.0,-0.0,-0.0,-0.0,0.0588,0.4799,0.6312,0.6321,0.6329,0.6285,0.6291,0.6278,0.6268,0.6285,0.6396,0.6427,0.6427,0.6427,0.6427,0.6396,0.6288,0.6237,0.622,0.6254,0.6234,0.622,0.6254,0.6135,0.602,0.5986,0.5766,0.5579,0.5545,0.5335,0.5179,0.5179,0.5206,0.5254,0.5096,0.4845,0.4629,0.4529,0.4519,0.4519,0.4519,0.4519,0.4519,0.4519,0.4519,0.4519,0.4519,0.4791,0.5226,0.576,0.6032,0.6519,0.7074,0.7074,0.7074,-2.0252,-2.0694,-2.0764,-1.9293,-1.8222,-1.7075,-1.5625,0.0,-1.2298,-1.1236,-1.033,-0.9732,-0.9623,-0.9486,-0.977,-1.1022,-1.0089,-0.9513,-1.0277,-0.9636,-0.8724,-0.7746,0.0,0.0,-0.6791,-0.6722,0.0,0.0,0.0,0.0,-0.0,-0.0,-0.0,-0.0,-0.0,-0.0,-0.0,-0.0,-0.0,-0.0,-0.0392,-0.1564,-0.3437,-0.5436,-0.6329,-0.6087,-0.1806,0.0,0.0,-0.0,-0.0,-0.0,-0.0,-0.0,-0.0,-0.0,-0.0,0.0589,0.4797,0.6322,0.6264,0.6295,0.6278,0.6278,0.6268,0.6338,0.6264,0.6278,0.6281,0.6281,0.6281,0.6281,0.6278,0.6264,0.6156,0.6091,0.623,0.6149,0.6091,0.6234,0.6135,0.5986,0.5847,0.5694,0.5542,0.5403,0.5425,0.5342,0.5342,0.6036,0.6471,0.6291,0.5325,0.4629,0.4529,0.4519,0.4519,0.4519,0.4519,0.4519,0.4519,0.4519,0.4519,0.4519,0.5769,0.6426,0.648,0.783,0.8533,0.8593,0.8593,0.8593,-1.9316,-2.0135,-2.0634,-1.8654,-1.7542,-1.6395,-1.435,0.0,-1.1206,-0.9961,-0.9275,-0.897,-0.9214,-0.9118,-0.9262,-1.009,-0.9173,0.0,-0.9241,-0.9098,-0.8549,-0.7581,-0.7997,0.0,0.0,0.0,0.0,0.0,0.0,0.0,-0.0165,-0.0,-0.0,-0.0,-0.0,-0.0,-0.0,-0.0,-0.0,-0.0,-0.0,-0.047,-0.1253,-0.2119,-0.2515,-0.2438,-0.0717,0.0,0.0,-0.0,-0.0,-0.0,-0.0,-0.0,0.0342,0.2858,0.3778,0.4034,0.5723,0.6286,0.6334,0.6305,0.6268,0.6268,0.6264,0.6338,0.6338,0.6338,0.6338,0.6338,0.6338,0.6338,0.6338,0.6338,0.6213,0.6186,0.6247,0.6213,0.6186,0.6247,0.621,0.6149,0.6088,0.5878,0.5694,0.5637,0.5477,0.5428,0.5428,0.6141,0.6647,0.6404,0.6332,0.603,0.545,0.5227,0.4948,0.4515,0.4519,0.468,0.5109,0.4736,0.4677,0.5109,0.5277,0.5769,0.6588,0.7182,0.7943,0.8804,0.8804,0.8804,-1.8067,-1.9275,-2.0184,-1.8391,-1.7053,-1.5646,0.0,0.0,-1.012,-0.9099,-0.851,-0.832,-0.874,-0.867,-0.8701,-0.9122,-0.8308,-0.774,-0.8112,-0.8283,-0.796,0.0,0.0,-0.7464,0.0,0.0,0.0,0.0,0.0,0.0,0.0,-0.0709,-0.0,-0.0,-0.0,-0.0,-0.0,-0.0,-0.0,-0.0,-0.0,-0.0,-0.0,-0.0,-0.0,-0.0,0.0,0.0,0.0,-0.0,-0.0,-0.0,-0.0,-0.0,0.0506,0.472,0.6317,0.6264,0.6303,0.6311,0.6334,0.6298,0.6338,0.6338,0.6338,0.6338,0.6338,0.6338,0.6338,0.6338,0.6338,0.6338,0.6338,0.6338,0.6338,0.6338,0.6338,0.6338,0.6338,0.6338,0.6338,0.6247,0.62,0.6013,0.5854,0.581,0.5589,0.5561,0.5825,0.656,0.7122,0.7239,0.7772,0.7629,0.6416,0.6095,0.5661,0.4842,0.5007,0.5167,0.5218,0.4948,0.4948,0.5218,0.5167,0.5609,0.6588,0.702,0.7777,0.8804,0.8804,0.8804,-1.6481,-1.8154,-1.9698,-1.9121,-1.7145,-1.5131,0.0,-1.1648,-0.919,-0.9129,-0.8348,-0.7841,-0.8311,-0.8136,-0.8024,-0.8428,-0.7792,0.0,-0.695,-0.7098,-0.6758,0.0,0.0,-0.6224,0.0,0.0,0.0,0.0,0.0,0.0,0.0,-0.2303,-0.0,-0.0,-0.0,-0.0,-0.0,-0.0,-0.0,-0.0,-0.0,-0.0,-0.0,-0.0,-0.0,0.0,0.0,0.0,0.0,-0.0,-0.0,-0.0,-0.0,-0.0,0.0505,0.4722,0.6341,0.6306,0.627,0.6324,0.6278,0.6264,0.6338,0.6338,0.6338,0.6338,0.6338,0.6338,0.6338,0.6338,0.6338,0.6338,0.6338,0.6338,0.6338,0.6338,0.6338,0.6338,0.6338,0.6338,0.6338,0.6213,0.6057,0.603,0.5976,0.5823,0.5681,0.5924,0.68,0.7503,0.8285,0.9204,0.9724,0.9266,0.7239,0.7084,0.6646,0.555,0.6204,0.5932,0.457,0.5164,0.5164,0.4515,0.5878,0.6588,0.6588,0.8049,0.8804,0.8804,0.8804,0.8804,-1.4727,-1.5658,-1.6296,-1.555,-1.4285,-1.2857,-1.1721,-1.0112,-0.8723,-0.8249,-0.7675,-0.7405,-0.7862,-0.7306,-0.7006,-0.7644,-0.7066,0.0,0.0,0.0,0.0,-0.5582,-0.5855,0.0,0.0,0.0,0.0,0.0,0.0,0.0,0.0,-0.2322,-0.0,-0.0,-0.0,-0.0,-0.0,-0.0,-0.0,-0.0,-0.0,-0.0,-0.0,-0.0,0.0,0.0,0.0,0.0,0.0,-0.0,-0.0,-0.0,-0.0,0.1735,0.4275,0.4164,0.502,0.6284,0.6264,0.6237,0.6108,0.6105,0.6034,0.5945,0.5945,0.602,0.6101,0.6101,0.6179,0.6338,0.6338,0.6338,0.6338,0.6338,0.6338,0.6338,0.6338,0.6338,0.6338,0.6338,0.6338,0.6244,0.6196,0.6098,0.6013,0.5966,0.5749,0.5728,0.5996,0.7176,0.8091,0.8355,0.9636,0.9884,0.8537,0.808,0.7509,0.6646,0.6614,0.6642,0.6691,0.6416,0.615,0.5937,0.6367,0.6588,0.6588,0.7557,0.8315,0.8804,0.8804,0.8804,-1.2951,-1.3509,-1.3775,-1.3249,-1.2186,-1.1011,-1.0043,-0.9056,-0.8158,-0.7587,-0.7225,-0.7058,-0.7235,-0.6602,-0.6238,-0.676,-0.6153,0.0,0.0,0.0,0.0,-0.503,0.0,0.0,0.0,0.0,0.0,0.0,0.0,0.0,0.0,-0.1459,-0.0,-0.0,-0.0,-0.0,-0.0,-0.0,-0.0,-0.0,-0.0,-0.0,-0.0,-0.0,0.0,0.0,0.0,0.0,0.0,-0.0,-0.0,-0.0,-0.0,0.258,0.6175,0.4788,0.5156,0.6278,0.6264,0.6159,0.603,0.603,0.5925,0.58,0.58,0.5908,0.604,0.6101,0.6186,0.6338,0.6338,0.6338,0.6338,0.6338,0.6338,0.6338,0.6338,0.6338,0.6338,0.6338,0.6338,0.6338,0.6338,0.6179,0.6115,0.6115,0.5911,0.5877,0.6165,0.7017,0.7659,0.7967,0.9262,0.9844,0.9164,0.8912,0.8345,0.7361,0.7372,0.7402,0.7289,0.7128,0.6858,0.6588,0.6858,0.702,0.702,0.7777,0.8374,0.8804,0.8804,0.8864,0.0,-1.1703,-1.1979,-1.1979,-1.0789,-0.9552,-0.934,-0.8435,0.0,-0.7139,-0.6918,-0.6725,-0.649,-0.6,-0.5665,-0.58,-0.519,0.0,0.0,-0.4824,0.0,0.0,0.0,0.0,0.0,0.0,0.0,0.0,0.0,0.0,0.0,-0.0,-0.0,-0.0,-0.0,-0.0,-0.0,-0.0,-0.0,-0.0,-0.0,-0.0,-0.0,-0.0,0.0,0.0,0.0,0.0,0.0,-0.0,-0.0,-0.0,0.0314,0.275,0.6084,0.6224,0.6288,0.6274,0.6251,0.6142,0.601,0.5989,0.5884,0.5772,0.5793,0.5908,0.6061,0.6203,0.6251,0.6338,0.6338,0.6338,0.6338,0.6338,0.6338,0.6412,0.6412,0.649,0.649,0.6416,0.6412,0.6412,0.6321,0.6244,0.624,0.623,0.6105,0.625,0.6873,0.6908,0.7131,0.7852,0.8748,0.9262,0.9244,0.9519,0.9155,0.7919,0.8453,0.8209,0.6804,0.7396,0.745,0.6696,0.7348,0.7723,0.7777,0.848,0.8804,0.8804,0.8831,0.8985,-0.9919,0.0,-0.994,-0.9781,-0.9272,-0.8685,0.0,-0.7695,-0.7139,0.0,0.0,0.0,0.0,-0.5195,-0.4705,-0.5136,0.0,0.0,-0.4642,0.0,0.0,0.0,0.0,0.0,0.0,0.0,0.0,0.0,0.0,0.0,0.0,-0.0,-0.0,-0.0,-0.0,-0.0,-0.0,-0.0,-0.0,-0.0,-0.0,-0.0,-0.0,-0.0,0.0,0.0,0.0,0.0,-0.0,-0.0,-0.0,0.0314,0.354,0.4401,0.4073,0.5724,0.6274,0.6247,0.6125,0.5983,0.5817,0.5593,0.5494,0.5508,0.5732,0.5908,0.6037,0.6074,0.6169,0.6338,0.6338,0.6338,0.6338,0.6338,0.6868,0.748,0.748,0.8084,0.8389,0.7629,0.748,0.7134,0.6256,0.6084,0.6044,0.5925,0.5878,0.5875,0.5933,0.649,0.6933,0.7003,0.8355,0.9186,0.8906,0.9398,0.9568,0.9251,0.8943,0.8646,0.8321,0.8427,0.8209,0.7456,0.7616,0.799,0.8533,0.8699,0.8804,0.8811,0.9031,0.9117,-0.8755,-0.8766,-0.865,-0.8412,-0.8053,-0.7632,-0.7206,-0.6875,0.0,0.0,0.0,0.0,0.0,0.0,0.0,0.0,-0.4165,0.0,0.0,0.0,0.0,0.0,0.0,0.0,0.0,0.0,0.0,0.0,0.0,0.0,0.0,-0.0,-0.0,-0.0,-0.0,-0.0,-0.0,-0.0,-0.0,-0.0,-0.0,-0.0,-0.0,-0.0,-0.0,0.0,0.0,0.0,-0.0,-0.0,0.1178,0.3146,0.5445,0.559,0.4693,0.5879,0.6271,0.6247,0.6166,0.5989,0.5752,0.5457,0.5428,0.547,0.5633,0.5806,0.5956,0.6095,0.6196,0.6338,0.6338,0.6338,0.6416,0.6872,0.7403,0.7936,0.8389,0.8917,0.9115,0.8407,0.8239,0.7882,0.6676,0.6864,0.6973,0.6452,0.6718,0.6796,0.6287,0.6941,0.727,0.6736,0.8285,0.9209,0.9062,0.9436,0.9626,0.9486,0.9058,0.8804,0.8804,0.8804,0.8593,0.8209,0.8209,0.8427,0.8804,0.8804,0.8804,0.8811,0.905,0.9256,-0.7783,-0.786,-0.7798,-0.7519,-0.715,-0.6758,-0.6371,0.0,0.0,0.0,0.0,0.0,0.0,-0.4185,0.0,0.0,0.0,0.0,-0.4029,-0.4313,0.0,0.0,0.0,0.0,0.0,0.0,0.0,0.0,0.0,0.0,0.0,-0.0,-0.0,-0.0,-0.0,-0.0,-0.0,-0.0,-0.0,-0.0,-0.0,-0.0,-0.0,-0.0,-0.0,0.0,0.0,0.0,-0.0,-0.0,0.2409,0.618,0.618,0.6251,0.6244,0.624,0.6234,0.6217,0.6173,0.5973,0.5691,0.5443,0.5428,0.5456,0.5747,0.5881,0.6039,0.6482,0.6605,0.6567,0.6567,0.6623,0.6904,0.7736,0.8018,0.8369,0.9195,0.9494,0.9506,0.9073,0.8964,0.861,0.7491,0.7873,0.8139,0.7346,0.785,0.8072,0.7188,0.7735,0.7875,0.7003,0.835,0.9274,0.9274,0.957,0.9626,0.9325,0.8991,0.8804,0.8804,0.8804,0.8804,0.8804,0.8804,0.8804,0.8804,0.8804,0.8804,0.8818,0.9152,0.9446,-0.745,-0.7452,-0.7147,-0.6762,-0.6662,-0.6568,-0.6225,0.0,0.0,0.0,0.0,0.0,0.0,-0.383,-0.3417,0.0,0.0,0.0,0.0,0.0,0.0,0.0,0.0,0.0,0.0,0.0,0.0,0.0,0.0,0.0,0.0,-0.0,-0.0,-0.0,-0.0,-0.0,-0.0,-0.0,-0.0,-0.0,-0.0,-0.0,-0.0,-0.0,-0.0,0.0,0.0,-0.0,-0.0,-0.0,0.2212,0.5561,0.5782,0.5915,0.6081,0.6071,0.6067,0.603,0.5779,0.5579,0.5487,0.5442,0.5428,0.5586,0.6415,0.6688,0.6887,0.7801,0.7825,0.7553,0.7553,0.7957,0.8479,0.8626,0.9139,0.9645,0.978,1.0493,1.0836,0.9875,0.9723,0.9366,0.825,0.8142,0.815,0.7895,0.8091,0.813,0.7841,0.8046,0.8081,0.7857,0.8683,0.9274,0.9274,0.9748,0.9927,0.9633,0.9105,0.8804,0.8804,0.8804,0.8804,0.8804,0.8804,0.8804,0.8804,0.8804,0.8804,0.8824,0.9359,0.9639,-0.6344,-0.6285,-0.6015,-0.5857,-0.6228,-0.656,-0.6146,0.0,0.0,0.0,0.0,0.0,0.0,0.0,-0.3771,-0.4079,0.0,0.0,0.0,0.0,0.0,0.0,0.0,0.0,0.0,0.0,0.0,0.0,0.0,0.0,0.0,0.0,-0.0,-0.0,-0.0,-0.0,-0.0,-0.0,-0.0,-0.0,-0.0,-0.0,-0.0,-0.0,-0.0,-0.0,0.0,0.108,0.2918,0.2918,0.3939,0.5554,0.5699,0.5798,0.5915,0.5908,0.5908,0.5878,0.5664,0.5545,0.5606,0.5973,0.6071,0.6284,0.7224,0.753,0.7705,0.8142,0.8184,0.8125,0.8125,0.8341,0.8694,0.9264,0.9676,1.002,1.0579,1.1073,1.124,1.0602,1.0503,1.0147,0.9025,0.9177,0.9332,0.8765,0.9167,0.9332,0.8759,0.9167,0.9261,0.8759,0.946,0.9977,0.9977,1.0034,0.9927,0.9472,0.9045,0.8804,0.8804,0.8804,0.8878,0.9038,0.9038,0.9118,0.9279,0.9279,0.9279,0.9285,0.9559,0.9686,-0.5561,-0.5379,-0.5189,-0.5427,0.0,0.0,0.0,0.0,0.0,0.0,0.0,0.0,0.0,-0.3848,0.0,-0.4302,0.0,0.0,0.0,0.0,0.0,0.0,0.0,0.0,0.0,0.0,0.0,0.0,0.0,0.0,0.0,0.0,-0.0,-0.0,-0.0,-0.0,-0.0,-0.0,-0.0,-0.0,-0.0,-0.0,-0.0,-0.0,-0.0,0.0066,0.0744,0.2623,0.5227,0.5227,0.5377,0.5534,0.5534,0.5634,0.5752,0.5752,0.5752,0.5732,0.5586,0.5668,0.5916,0.6506,0.685,0.7177,0.8027,0.8351,0.8492,0.8687,0.881,0.8896,0.8793,0.8852,0.9231,0.9994,1.0089,1.0251,1.1081,1.1223,1.1156,1.0935,1.0895,1.062,0.9759,1.0174,1.0364,0.9722,1.0174,1.0364,0.9658,1.0174,1.0364,0.9658,1.0174,1.0624,1.0624,1.0227,0.982,0.9372,0.9072,0.8878,0.8811,0.8804,0.8945,0.9176,0.9183,0.9385,0.9686,0.9686,0.9686,0.9686,0.9686,0.9719,-0.5843,-0.5444,-0.5142,-0.6079,-0.5945,0.0,-0.6335,-0.6172,0.0,-0.5605,0.0,0.0,0.0,-0.3806,-0.3849,-0.3832,0.0,0.0,0.0,0.0,0.0,0.0,0.0,0.0,0.0,0.0,0.0,0.0,0.0,0.0,0.0,0.0,0.0,-0.0,-0.0,-0.0,-0.0,-0.0,-0.0,-0.0,-0.0,-0.0,-0.0,-0.0,-0.0,0.0187,0.2933,0.4326,0.4587,0.4833,0.5024,0.5132,0.5132,0.5365,0.5606,0.5606,0.5606,0.5583,0.543,0.5962,0.6609,0.6658,0.7242,0.8091,0.8941,0.9221,0.9361,1.02,1.041,1.0348,0.9896,1.0325,1.0817,1.089,1.075,1.0558,1.0621,1.0685,1.0678,1.0658,1.0658,1.0581,1.0498,1.0561,1.0561,1.0498,1.0561,1.0561,1.0498,1.0561,1.0561,1.0498,1.0561,1.0624,1.0624,1.004,0.9699,0.9653,0.9372,0.903,0.8818,0.8804,0.8945,0.9176,0.9183,0.9385,0.9686,0.9686,0.9686,0.9686,0.9686,0.9826,-0.5361,-0.5116,-0.5097,-0.5943,-0.5866,0.0,0.0,-0.6109,-0.5476,-0.5206,-0.5333,0.0,0.0,0.0,-0.3934,0.0,0.0,0.0,0.0,0.0,0.0,0.0,0.0,0.0,0.0,0.0,0.0,0.0,0.0,0.0,0.0,0.0,0.0,-0.0,-0.0,-0.0,-0.0,-0.0,-0.0,-0.0,-0.0,-0.0,-0.0,-0.0,0.1019,0.2887,0.3994,0.4584,0.4697,0.4819,0.4904,0.5013,0.5038,0.5206,0.5315,0.5413,0.5447,0.544,0.5449,0.5943,0.6785,0.7307,0.8091,0.8941,0.9849,1.011,1.0174,1.0498,1.0624,1.0544,1.036,1.0536,1.0722,1.0722,1.0641,1.0624,1.0624,1.0624,1.0624,1.0624,1.0624,1.0624,1.0624,1.0624,1.0624,1.0624,1.0624,1.0624,1.0624,1.0624,1.0624,1.0624,1.0624,1.0551,1.0301,1.008,0.9873,0.9693,0.9239,0.9005,0.9017,0.9024,0.9299,0.978,0.9786,0.9933,1.0288,1.0288,1.0288,1.0221,1.004,1.0013,-0.5511,-0.5092,-0.4953,-0.5951,0.0,0.0,-0.6602,-0.622,-0.5657,-0.5408,-0.5235,-0.5079,-0.493,0.0,0.0,0.0,0.0,0.0,0.0,0.0,0.0,0.0,0.0,0.0,0.0,0.0,0.0,0.0,0.0,0.0,0.0,0.0,0.0,0.0,-0.0,-0.0,-0.0,0.0755,0.1208,0.1401,0.0942,0.0443,0.0056,0.0976,0.2555,0.4497,0.4473,0.4561,0.473,0.4726,0.475,0.486,0.5006,0.5091,0.5138,0.5199,0.525,0.5353,0.5614,0.6314,0.7154,0.813,0.9005,0.9773,1.0316,1.0421,1.0401,1.0369,1.0354,1.0421,1.0421,1.0488,1.0624,1.0624,1.0624,1.0624,1.0624,1.0624,1.0624,1.0624,1.0624,1.0624,1.0624,1.0624,1.0624,1.0624,1.0624,1.0624,1.0624,1.0624,1.0624,1.0624,1.0624,1.0441,1.014,1.0114,0.9993,0.9699,0.9305,0.9172,0.9372,0.923,0.9462,1.0107,1.0114,1.0261,1.0624,1.0624,1.0624,1.0618,1.0254,1.0167,-0.6462,-0.5464,-0.468,-0.6288,0.0,0.0,-0.6602,-0.6684,-0.653,-0.6407,-0.5722,-0.5074,-0.493,0.0,0.0,0.0,0.0,0.0,0.0,0.0,0.0,0.0,0.0,0.0,0.0,0.0,0.0,0.0,0.0,0.0,0.0,0.0,0.0,0.0,-0.0,-0.0,0.0053,0.2421,0.3899,0.4455,0.2927,0.1463,0.0112,0.3091,0.4514,0.4511,0.449,0.448,0.4477,0.4522,0.4551,0.4704,0.4857,0.5003,0.5108,0.4969,0.5006,0.5251,0.6132,0.7001,0.7902,0.892,0.9907,1.0501,1.02,1.0114,1.0053,0.9766,0.9886,1.0114,1.0114,1.0334,1.0618,1.0624,1.0624,1.0624,1.0624,1.0618,1.0618,1.0624,1.0618,1.0618,1.0624,1.0624,1.0624,1.0624,1.0624,1.0624,1.0618,1.0618,1.0618,1.0618,1.0618,1.0434,1.014,1.0107,0.9987,0.9699,0.9679,0.9686,0.9686,0.9406,0.9469,1.0107,1.012,1.0267,1.0624,1.0624,1.0624,1.0618,1.0254,1.0281,-0.5804,-0.5427,-0.5224,-0.5568,0.0,0.0,0.0,-0.5979,0.0,0.0,-0.5009,-0.4628,-0.4754,0.0,0.0,0.0,0.0,0.0,0.0,0.0,0.0,0.0,0.0,0.0,0.0,0.0,0.0,0.0,0.0,0.0,0.0,0.0,0.0,0.0,-0.0,0.083,0.2522,0.3667,0.421,0.4133,0.3905,0.2994,0.1563,0.246,0.3471,0.449,0.4484,0.4473,0.4522,0.4519,0.4543,0.4601,0.4701,0.5074,0.5593,0.5667,0.6026,0.6554,0.6796,0.7451,0.8241,0.8566,0.9394,1.0194,0.99,0.9953,1.0053,0.9766,0.9746,0.9813,0.9813,1.0027,1.0301,1.0514,1.0624,1.0624,1.0624,1.0394,1.0307,1.0521,1.0388,1.0314,1.0584,1.0624,1.0624,1.0624,1.0624,1.0488,1.0274,1.0067,1.002,1.0227,1.0067,0.9907,0.982,0.9619,0.9409,0.9379,0.9372,0.9552,0.9973,0.99,1.004,1.0421,1.0428,1.0474,1.0624,1.0624,1.0624,1.0618,1.0474,1.0474,-0.6015,-0.5744,0.0,-0.5685,-0.5791,-0.5746,-0.534,0.0,0.0,0.0,0.0,-0.4544,-0.4373,0.0,0.0,0.0,0.0,0.0,0.0,0.0,0.0,0.0,0.0,0.0,0.0,0.0,0.0,0.0,0.0,0.0,0.0,0.0,0.0,0.0,-0.0,0.1279,0.3934,0.4087,0.4182,0.4193,0.4271,0.3869,0.3121,0.3125,0.3633,0.448,0.4473,0.4525,0.4519,0.4519,0.4519,0.4525,0.4896,0.5311,0.5834,0.6107,0.6571,0.7051,0.7401,0.7866,0.8403,0.8802,0.9375,0.9886,0.9599,0.9626,0.9706,0.9419,0.9419,0.9506,0.9506,0.9726,0.9993,1.0167,1.0301,1.0354,1.0302,1.0074,1.0,1.0174,1.0067,1.0,1.018,1.0214,1.0214,1.0214,1.0214,1.0147,0.9967,0.9793,0.9753,0.9927,0.9893,0.9813,0.9693,0.9733,0.9713,0.9593,0.9699,0.9927,1.0281,1.018,1.0254,1.0618,1.0624,1.0624,1.0624,1.0624,1.0624,1.0624,1.0624,1.0624,-0.6753,-0.6254,-0.5841,-0.632,-0.6269,0.0,-0.4939,-0.5184,-0.5423,-0.4887,0.0,-0.4621,-0.3908,0.0,0.0,0.0,0.0,0.0,0.0,0.0,0.0,0.0,0.0,0.0,0.0,0.0,0.0,0.0,0.0,0.0,0.0,0.0,0.0,-0.0,-0.0,0.1304,0.4079,0.3804,0.3887,0.0,0.4148,0.4168,0.4498,0.4467,0.4477,0.4477,0.4522,0.4519,0.4519,0.4519,0.4519,0.457,0.5218,0.5648,0.5954,0.6494,0.6874,0.7161,0.7958,0.8243,0.8397,0.9341,0.9619,0.9586,0.9292,0.9163,0.9123,0.8891,0.8998,0.9143,0.9143,0.9419,0.9633,0.9613,0.9846,1.0007,0.974,0.9659,0.9653,0.9679,0.9659,0.9653,0.9679,0.9686,0.9686,0.9686,0.9659,0.9646,0.9646,0.9619,0.9613,0.9639,0.9853,0.9913,0.9699,1.0147,1.0334,1.0094,1.0354,1.0521,1.0521,1.0287,1.0281,1.0618,1.0624,1.0624,1.0624,1.0624,1.0624,1.0624,1.0624,1.0624,-0.6617,-0.6222,0.0,-0.5947,-0.6107,-0.6166,-0.5851,-0.5274,-0.4593,-0.3798,-0.4018,-0.4205,0.0,0.0,0.0,0.0,0.0,0.0,0.0,0.0,0.0,0.0,0.0,0.0,0.0,0.0,0.0,0.0,0.0,0.0,0.0,0.0,0.0,-0.0,-0.0,0.0317,0.0965,0.2946,0.3887,0.0,0.3949,0.4117,0.4244,0.4412,0.4522,0.4522,0.4519,0.4519,0.4519,0.4519,0.4519,0.457,0.5218,0.5896,0.6489,0.7198,0.7866,0.8404,0.8624,0.8684,0.8691,0.8918,0.9152,0.9279,0.8985,0.9058,0.9123,0.8891,0.8851,0.8898,0.8898,0.9118,0.9279,0.9051,0.9392,0.976,0.9699,0.9499,0.9406,0.9639,0.9492,0.9412,0.9646,0.9686,0.9686,0.9686,0.9486,0.9339,0.9339,0.9138,0.9085,0.9312,0.9185,0.9252,0.9653,0.9586,0.9599,0.9766,1.0047,1.0214,1.0214,1.0374,1.0557,1.0624,1.0624,1.0624,1.0624,1.0624,1.0624,1.0624,1.0624,1.0624,-0.7057,-0.6751,0.0,-0.5926,0.0,-0.5942,-0.5333,-0.4728,-0.4142,-0.3559,-0.3582,0.0,0.0,0.0,0.0,0.0,0.0,0.0,0.0,0.0,0.0,0.0,0.0,0.0,0.0,0.0,0.0,0.0,0.0,0.0,0.0,-0.0,-0.0,-0.0,-0.0,0.0272,0.0876,0.2263,0.3207,0.3768,0.3862,0.3988,0.4093,0.429,0.4321,0.425,0.425,0.425,0.4256,0.4328,0.4574,0.495,0.5729,0.647,0.7235,0.7937,0.848,0.8804,0.8804,0.8804,0.8804,0.8804,0.8911,0.9005,0.8851,0.8911,0.9005,0.8851,0.8804,0.8804,0.8804,0.8918,0.8991,0.8844,0.9145,0.9432,0.9292,0.9138,0.9078,0.9232,0.9138,0.9085,0.9239,0.9265,0.9265,0.9265,0.9132,0.9031,0.9031,0.8898,0.8864,0.9018,0.9152,0.9352,0.9659,0.98,0.994,1.0094,1.0247,1.0327,1.0327,1.0481,1.0624,1.0624,1.0624,1.0624,1.0624,1.0624,1.0624,1.0624,1.0624,1.0624,-0.7718,-0.7431,-0.6936,-0.5926,-0.5754,0.0,-0.4607,-0.4135,-0.3831,-0.3595,-0.3286,0.0,0.0,0.0,0.0,0.0,0.0,0.0,0.0,0.0,0.0,0.0,0.0,0.0,0.0,0.0,0.0,0.0,0.0,0.0,-0.009,-0.0,-0.0,-0.0,0.0315,0.0955,0.1962,0.1858,0.2488,0.3772,0.3785,0.3843,0.3948,0.405,0.4063,0.4019,0.4019,0.4019,0.4029,0.4107,0.4636,0.5397,0.6245,0.7036,0.7777,0.8533,0.8804,0.8804,0.8804,0.8804,0.8804,0.8804,0.8804,0.8804,0.8804,0.8804,0.8804,0.8804,0.8804,0.8804,0.8804,0.8804,0.8804,0.8804,0.8991,0.9044,0.8858,0.8804,0.8804,0.8804,0.8804,0.8804,0.8804,0.8804,0.8804,0.8804,0.8804,0.8804,0.8804,0.8804,0.8804,0.8804,0.9239,0.9573,0.9679,1.0127,1.0517,1.0618,1.0624,1.0624,1.0624,1.0624,1.0624,1.0624,1.0624,1.0624,1.0624,1.0624,1.0624,1.0624,1.0744,1.0807,-0.8181,0.0,-0.6801,0.0,-0.5324,-0.5399,0.0,0.0,-0.3532,0.0,0.0,0.0,0.0,0.0,0.0,0.0,0.0,0.0,0.0,0.0,0.0,0.0,0.0,0.0,0.0,0.0,0.0,0.0,0.0,0.0,-0.0135,-0.0,-0.0,-0.0,0.1531,0.2399,0.2575,0.2069,0.2339,0.337,0.3683,0.3737,0.3643,0.3788,0.3914,0.4019,0.4019,0.4019,0.4022,0.4043,0.4528,0.5384,0.6132,0.6943,0.7777,0.8533,0.8804,0.8804,0.8804,0.8804,0.8804,0.8804,0.8804,0.8804,0.8804,0.8804,0.8804,0.8804,0.8804,0.8804,0.8804,0.8804,0.8804,0.8804,0.8838,0.8851,0.8818,0.8804,0.8804,0.8804,0.8804,0.8804,0.8804,0.8804,0.8804,0.8804,0.8804,0.8804,0.8804,0.8804,0.8804,0.8804,0.8878,0.9132,0.9639,0.976,1.002,1.0591,1.0624,1.0624,1.0624,1.0624,1.0624,1.0624,1.0624,1.0624,1.0624,1.0624,1.0624,1.0624,1.1351,1.1648,-0.8312,-0.7896,-0.7103,0.0,-0.5309,-0.4941,-0.493,-0.4187,-0.3486,-0.3423,0.0,0.0,0.0,0.0,0.0,0.0,0.0,0.0,0.0,0.0,0.0,0.0,0.0,0.0,0.0,0.0,0.0,0.0,0.0,-0.1837,-0.009,-0.0,-0.0,-0.0,0.1762,0.2719,0.2699,0.2425,0.2631,0.3316,0.3571,0.3639,0.3581,0.3646,0.371,0.3775,0.3775,0.3775,0.3825,0.4237,0.495,0.5877,0.6614,0.7494,0.8374,0.8699,0.8804,0.8804,0.8804,0.8804,0.8804,0.8804,0.8804,0.8804,0.8804,0.8804,0.8804,0.8804,0.8804,0.8804,0.8804,0.8804,0.8804,0.8804,0.8804,0.8804,0.8804,0.8804,0.8804,0.8804,0.8804,0.8804,0.8804,0.8804,0.8804,0.8804,0.8804,0.8804,0.8804,0.8804,0.8804,0.8804,0.9105,0.9406,0.9659,0.9987,1.052,1.1212,1.1288,1.1476,1.1911,1.1965,1.1965,1.1965,1.1052,1.0624,1.0624,1.0624,1.08,1.1288,1.1648,1.202,0.0,0.0,-0.7543,-0.6662,-0.5668,-0.4861,0.0,0.0,-0.3488,0.0,0.0,0.0,0.0,0.0,0.0,0.0,0.0,0.0,0.0,0.0,0.0,0.0,0.0,0.0,0.0,0.0,0.0,0.0,0.0,-0.0939,-0.0045,-0.0,-0.0,-0.0,0.1294,0.2226,0.2694,0.2688,0.2896,0.3309,0.3466,0.3544,0.3581,0.3581,0.3581,0.3581,0.3581,0.3667,0.3847,0.441,0.5269,0.6389,0.6988,0.7866,0.8704,0.8778,0.8804,0.8804,0.8804,0.8804,0.8804,0.8804,0.8804,0.8804,0.8804,0.8804,0.8804,0.8804,0.8804,0.8804,0.8804,0.8804,0.8804,0.8804,0.8804,0.8804,0.8804,0.8804,0.8804,0.8804,0.8804,0.8804,0.8804,0.8804,0.8804,0.8804,0.8804,0.8804,0.8804,0.8804,0.8838,0.8911,0.9312,0.9741,1.0065,1.0546,1.1148,1.2074,1.2074,1.2389,1.3009,1.3009,1.3009,1.3009,1.1849,1.1115,1.0926,1.1115,1.1413,1.1834,1.2197,1.2797,0.0,-0.8822,0.0,-0.7463,-0.6574,-0.553,0.0,0.0,0.0,0.0,0.0,0.0,0.0,0.0,0.0,0.0,0.0,0.0,0.0,0.0,0.0,0.0,0.0,0.0,0.0,0.0,0.0,0.0,0.0,-0.0045,-0.0,-0.0,-0.0,-0.0,0.0086,0.0947,0.2688,0.2698,0.2949,0.3392,0.3358,0.3396,0.3581,0.3581,0.3581,0.3581,0.3581,0.388,0.4347,0.4399,0.5272,0.6607,0.6961,0.7634,0.843,0.8704,0.8804,0.8804,0.8804,0.8804,0.8804,0.8804,0.8804,0.8804,0.8804,0.8804,0.8804,0.8804,0.8804,0.8804,0.8804,0.8804,0.8804,0.8804,0.8804,0.8804,0.8804,0.8804,0.8804,0.8804,0.8804,0.8804,0.8804,0.8804,0.8804,0.8804,0.8804,0.8804,0.8804,0.8804,0.8911,0.9137,0.919,0.9763,1.1078,1.1219,1.1736,1.2862,1.2948,1.2948,1.3009,1.3009,1.3009,1.3009,1.2948,1.2512,1.1772,1.2512,1.2512,1.1826,1.3356,1.4351,0.0,0.0,0.0,-0.8376,-0.7253,-0.6173,-0.5746,-0.4522,-0.3459,0.0,0.0,0.0,0.0,0.0,0.0,0.0,0.0,0.0,0.0,0.0,0.0,0.0,0.0,0.0,0.0,0.0,0.0,0.0,0.0,0.0,-0.009,-0.0,-0.0,-0.0,0.0561,0.1136,0.1795,0.2569,0.3058,0.3205,0.3402,0.3527,0.3581,0.3581,0.3581,0.3622,0.3965,0.422,0.4478,0.5216,0.5969,0.6663,0.7171,0.7786,0.8434,0.849,0.8651,0.8804,0.8804,0.8804,0.8804,0.8804,0.8804,0.8804,0.8804,0.8804,0.8804,0.8804,0.8804,0.8804,0.8804,0.8804,0.8804,0.8804,0.8804,0.8804,0.8804,0.8804,0.8804,0.8804,0.8804,0.8804,0.8804,0.8804,0.8804,0.8804,0.8804,0.8804,0.8804,0.8804,0.8844,0.8951,0.9299,0.9721,1.0217,1.1114,1.2012,1.294,1.3485,1.4025,1.451,1.4569,1.4569,1.4569,1.4569,1.3906,1.2573,1.2887,1.3247,1.3774,1.4408,1.5127,-0.9465,0.0,0.0,0.0,-0.8162,-0.7182,-0.6711,0.0,0.0,0.0,0.0,0.0,0.0,0.0,0.0,0.0,0.0,0.0,0.0,0.0,0.0,0.0,0.0,0.0,0.0,0.0,0.0,0.0,0.0,0.0,-0.0132,0.0758,0.1206,0.1188,0.1367,0.1607,0.1852,0.2664,0.3073,0.3124,0.3327,0.348,0.3581,0.3581,0.3707,0.388,0.4439,0.4691,0.4783,0.5787,0.6409,0.6792,0.7294,0.7762,0.8131,0.819,0.841,0.8664,0.8664,0.8724,0.8804,0.8804,0.8804,0.8804,0.8804,0.8804,0.8857,0.9061,0.8956,0.8857,0.9061,0.8962,0.8804,0.8804,0.8804,0.8804,0.8804,0.8804,0.8804,0.8804,0.8804,0.8804,0.8804,0.8804,0.8804,0.8804,0.8804,0.8804,0.8804,0.8804,0.8884,0.9078,0.9452,0.9993,1.071,1.1647,1.2687,1.3726,1.4332,1.4815,1.5352,1.541,1.541,1.541,1.541,1.4864,1.3795,1.3795,1.4169,1.4932,1.5179,1.5794,0.0,0.0,0.0,0.0,0.0,0.0,-0.7144,0.0,-0.5128,0.0,0.0,0.0,0.0,0.0,0.0,0.0,0.0,0.0,0.0,0.0,0.0,0.0,0.0,0.0,0.0,0.0,0.0,0.0,0.0,-0.2398,-0.0042,0.2286,0.3544,0.3601,0.2425,0.2195,0.2989,0.2985,0.3018,0.3082,0.3088,0.3286,0.3581,0.3622,0.3921,0.443,0.5043,0.5346,0.5389,0.5964,0.652,0.7054,0.7341,0.7506,0.7547,0.7802,0.8103,0.8407,0.8414,0.8544,0.8778,0.8791,0.8791,0.8798,0.8804,0.8804,0.8962,0.9614,0.9309,0.8956,0.9614,0.9309,0.8804,0.8804,0.8804,0.8804,0.8804,0.8804,0.8804,0.8804,0.8804,0.8804,0.8804,0.8804,0.8804,0.8804,0.8804,0.8804,0.8804,0.8804,0.9031,0.9613,0.9679,1.055,1.2744,1.294,1.3674,1.5225,1.5352,1.541,1.541,1.541,1.541,1.541,1.541,1.541,1.541,1.541,1.5269,1.4932,1.576,1.6328,-0.7252,0.0,0.0,0.0,0.0,0.0,-0.7644,-0.5352,-0.3452,0.0,0.0,0.0,0.0,0.0,0.0,0.0,0.0,0.0,0.0,0.0,0.0,0.0,0.0,0.0,0.0,0.0,0.0,0.0,0.0584,0.1241,0.1923,0.1946,0.2316,0.3222,0.2745,0.254,0.2799,0.2874,0.2981,0.3085,0.3192,0.3388,0.3626,0.4008,0.426,0.4478,0.548,0.5964,0.6002,0.6556,0.6852,0.7027,0.7114,0.7275,0.752,0.7562,0.8061,0.8556,0.8187,0.8338,0.8727,0.8568,0.849,0.853,0.8744,0.8804,0.8962,0.9614,0.9666,0.9562,0.9762,0.9309,0.8804,0.8804,0.8804,0.8804,0.8804,0.8804,0.8804,0.8804,0.8804,0.8804,0.8804,0.8804,0.8804,0.8804,0.8804,0.8804,0.8804,0.8804,0.8951,0.9319,0.9552,1.0003,1.0802,1.2187,1.3191,1.3666,1.4746,1.541,1.541,1.541,1.541,1.541,1.541,1.541,1.541,1.541,1.5516,1.576,1.6272,1.6787,0.0,0.0,0.0,0.0,0.0,0.0,-0.8497,-0.6285,-0.4229,0.0,0.0,0.0,0.0,0.0,0.0,0.0,0.0,0.0,0.0,0.0,0.0,0.0,0.0,0.0,0.0,0.0,0.0,-0.0,0.1671,0.2707,0.2712,0.2273,0.235,0.303,0.2933,0.2854,0.2799,0.2931,0.3039,0.3085,0.3236,0.351,0.3965,0.426,0.4696,0.5173,0.5873,0.6307,0.6562,0.6852,0.6979,0.6979,0.6979,0.7128,0.7325,0.7593,0.8047,0.8504,0.8412,0.8546,0.8707,0.8707,0.8482,0.8263,0.8677,0.8786,0.8983,0.9936,1.0415,1.0517,0.9969,0.971,0.951,0.8956,0.9008,0.9159,0.8857,0.8804,0.8804,0.8804,0.8804,0.8804,0.8804,0.8804,0.891,0.9159,0.9211,0.9309,0.9614,0.9413,0.9479,1.0243,0.9966,1.0251,1.1684,1.2522,1.3312,1.3965,1.4874,1.541,1.541,1.541,1.541,1.541,1.541,1.541,1.541,1.541,1.5635,1.6135,1.6523,1.6768,0.0,0.0,0.0,0.0,0.0,0.0,-0.9043,-0.7948,-0.625,-0.5117,0.0,0.0,0.0,0.0,0.0,0.0,0.0,0.0,0.0,0.0,0.0,0.0,0.0,0.0,0.0,-0.0,-0.0,-0.0,0.1581,0.2594,0.2704,0.2857,0.2968,0.2968,0.3038,0.3012,0.2886,0.3063,0.318,0.3197,0.3394,0.3841,0.4522,0.4561,0.5173,0.6184,0.627,0.6562,0.6979,0.6979,0.6979,0.6979,0.6979,0.7021,0.7154,0.7704,0.8135,0.8471,0.8896,0.892,0.8829,0.9119,0.8654,0.8119,0.8684,0.882,0.9056,1.0466,1.1256,1.1463,1.0305,1.0415,1.0517,0.9316,0.9458,0.9762,0.9159,0.9008,0.9008,0.9008,0.891,0.8804,0.891,0.8857,0.9008,0.971,0.9814,1.0064,1.0712,1.0261,1.0422,1.1765,1.0736,1.1069,1.3844,1.3485,1.3726,1.5167,1.5352,1.541,1.541,1.541,1.541,1.541,1.541,1.541,1.541,1.541,1.5635,1.6135,1.6426,1.6396,0.0,0.0,0.0,0.0,0.0,0.0,-0.6611,-0.6725,-0.6325,0.0,0.0,0.0,0.0,0.0,0.0,0.0,0.0,0.0,0.0,0.0,0.0,0.0,0.0,0.0,0.0,-0.0,-0.0,-0.0,0.099,0.1887,0.2643,0.274,0.2771,0.2771,0.2768,0.2754,0.2727,0.3357,0.3733,0.3851,0.4466,0.4878,0.513,0.561,0.5964,0.6221,0.6647,0.6894,0.6979,0.6979,0.6979,0.6979,0.6979,0.728,0.7746,0.787,0.8479,0.9223,0.8906,0.903,0.9314,0.9172,0.9024,0.8915,0.9276,0.9346,0.96,1.0785,1.1211,1.1322,1.1388,1.1116,1.0712,1.0466,1.0517,1.0568,1.0415,1.0415,1.0415,1.0415,0.9562,0.8956,0.951,0.9159,0.9008,0.971,0.9814,1.0064,1.0712,1.0669,1.0938,1.1812,1.1615,1.1971,1.3124,1.3666,1.4085,1.4392,1.505,1.541,1.541,1.541,1.541,1.541,1.541,1.541,1.541,1.541,1.5635,1.6115,1.5791,1.5811,0.0,0.0,0.0,-0.6096,0.0,0.0,0.0,-0.653,-0.7141,-0.5745,-0.4483,0.0,0.0,0.0,0.0,0.0,0.0,0.0,0.0,0.0,0.0,0.0,0.0,0.0,0.0,-0.0,-0.0,-0.0,0.0802,0.1724,0.266,0.2686,0.2712,0.2712,0.2712,0.2812,0.3003,0.3478,0.3917,0.43,0.4784,0.5256,0.5744,0.605,0.6349,0.6598,0.6894,0.6979,0.6979,0.6979,0.6979,0.6979,0.6979,0.7363,0.7912,0.8193,0.8797,0.9518,0.9478,0.9478,0.9502,0.9511,0.9215,0.8962,0.9395,0.974,1.0193,1.0873,1.1359,1.1677,1.1529,1.1679,1.1692,1.0973,1.1065,1.1216,1.0864,1.0813,1.0914,1.1216,1.0466,0.9917,1.0269,1.0012,1.0012,1.0712,1.0779,1.1032,1.1742,1.1525,1.1643,1.2609,1.2226,1.2456,1.3803,1.4096,1.4382,1.4746,1.5167,1.541,1.541,1.541,1.541,1.541,1.541,1.541,1.541,1.541,1.5527,1.5732,1.5508,1.5644,0.0,0.0,0.0,0.0,0.0,-0.526,0.0,0.0,0.0,-0.7577,0.0,0.0,0.0,0.0,0.0,0.0,0.0,0.0,0.0,0.0,0.0,0.0,0.0,0.0,0.0,-0.0061,-0.0081,-0.0,0.0837,0.1745,0.2653,0.2686,0.2712,0.2712,0.2779,0.297,0.329,0.3686,0.4171,0.4786,0.5066,0.5633,0.6349,0.6349,0.6598,0.6979,0.6979,0.6979,0.6979,0.6979,0.6979,0.7021,0.7105,0.753,0.8118,0.8635,0.9199,0.9716,1.0166,1.0,0.9692,0.9931,0.9526,0.9069,0.9535,1.0066,1.0597,1.081,1.1426,1.1866,1.1491,1.2082,1.2522,1.1466,1.1625,1.1873,1.1325,1.1174,1.1375,1.1931,1.1575,1.1174,1.1015,1.0864,1.1015,1.1715,1.1783,1.2058,1.2832,1.2393,1.2386,1.3406,1.2779,1.3001,1.469,1.4571,1.4688,1.5352,1.541,1.541,1.541,1.541,1.541,1.541,1.541,1.541,1.541,1.541,1.541,1.541,1.5498,1.5723,0.0,0.0,0.0,0.0,-0.4496,0.0,0.0,0.0,-0.5781,-0.7,0.0,0.0,0.0,0.0,0.0,0.0,0.0,0.0,0.0,0.0,0.0,0.0,0.0,0.0,0.0,0.0,-0.0314,-0.0028,0.0964,0.1908,0.265,0.2686,0.2712,0.2712,0.3035,0.3261,0.329,0.4372,0.5074,0.5403,0.6097,0.6578,0.6894,0.6894,0.6937,0.6979,0.6979,0.6979,0.6979,0.6979,0.6979,0.7063,0.7572,0.8111,0.8675,0.9199,0.9765,1.0205,1.0283,1.0244,1.0205,1.0254,1.0195,1.0137,1.0194,1.0262,1.0409,1.0779,1.0986,1.1198,1.193,1.2163,1.2355,1.258,1.2725,1.2774,1.2666,1.2666,1.2666,1.2774,1.2725,1.2461,1.1823,1.1216,1.1015,1.1715,1.1814,1.208,1.2832,1.2832,1.2938,1.3457,1.3719,1.408,1.4746,1.5051,1.5294,1.541,1.541,1.541,1.541,1.541,1.541,1.541,1.541,1.541,1.541,1.541,1.541,1.542,1.5811,1.6076,0.0,0.0,0.0,0.0,0.0,0.0,-0.3884,0.0,-0.5426,0.0,0.0,0.0,0.0,0.0,0.0,0.0,-0.5789,0.0,0.0,0.0,0.0,0.0,0.0,0.0,0.0,0.0,0.0,0.0,0.0,0.1349,0.2351,0.2482,0.2645,0.2924,0.3112,0.3474,0.4043,0.4575,0.5098,0.5615,0.6125,0.6493,0.678,0.7286,0.753,0.753,0.7855,0.7972,0.7979,0.7655,0.769,0.8021,0.8267,0.8521,0.8756,0.9319,0.9843,1.0283,1.0283,1.0283,1.0283,1.0283,1.0283,1.0283,1.0283,1.0283,1.0361,1.0488,1.0723,1.1055,1.168,1.2031,1.2344,1.2773,1.2881,1.2881,1.2881,1.2881,1.2881,1.2881,1.2881,1.2774,1.2501,1.2197,1.2098,1.2403,1.2452,1.2559,1.2871,1.2881,1.3037,1.3467,1.3662,1.4043,1.4727,1.4941,1.5146,1.54,1.541,1.541,1.541,1.541,1.541,1.541,1.541,1.541,1.541,1.5664,1.5791,1.5791,1.6037,1.6201,0.3106,0.0,0.0,0.0,0.0,0.0,0.0,0.0,0.0,0.0,0.0,0.0,0.0,0.0,0.0,0.0,0.0,0.0,0.0,0.0,0.0,0.0,0.0,0.0,0.0,0.0,0.0,0.0,0.0,0.0,0.1549,0.217,0.2687,0.312,0.3322,0.3792,0.4596,0.473,0.5228,0.6076,0.6298,0.6687,0.7187,0.784,0.8118,0.816,0.8513,0.8716,0.8683,0.8275,0.8357,0.8716,0.8878,0.8918,0.8999,0.9518,0.9886,1.0127,1.0244,1.0283,1.0283,1.0283,1.0283,1.0283,1.0283,1.0283,1.0283,1.0283,1.0508,1.084,1.127,1.1709,1.2158,1.2598,1.2793,1.2881,1.2881,1.2881,1.2881,1.2881,1.2881,1.2881,1.2881,1.2881,1.2881,1.2881,1.2881,1.2881,1.2881,1.2881,1.3037,1.3467,1.3506,1.3857,1.4707,1.4785,1.4961,1.5381,1.541,1.541,1.541,1.541,1.541,1.541,1.541,1.541,1.541,1.5732,1.5947,1.6135,1.637,1.6602,0.0,0.0,0.0,0.2946,0.0,0.0,0.0,0.0,-0.5336,0.0,0.0,0.0,0.0,0.0,0.0,0.0,0.0,0.0,0.0,0.0,0.0,0.0,0.0,0.0,0.0,0.0,0.0,0.0,0.0,0.0,0.0051,0.1729,0.2852,0.3187,0.382,0.4315,0.4596,0.5055,0.5857,0.6947,0.6962,0.7545,0.8618,0.8675,0.8675,0.8675,0.8675,0.8716,0.8716,0.8675,0.8675,0.8756,0.9279,0.9478,0.9518,1.0079,1.002,0.968,1.0137,1.0283,1.0283,1.0283,1.0283,1.0283,1.0283,1.0283,1.0283,1.0283,1.0293,1.04,1.082,1.125,1.1734,1.2139,1.2578,1.2881,1.2881,1.2881,1.2881,1.2881,1.2881,1.2881,1.2881,1.2881,1.2881,1.2881,1.2881,1.2881,1.2881,1.2881,1.3037,1.3467,1.3506,1.3857,1.4707,1.4785,1.4961,1.5381,1.541,1.541,1.541,1.541,1.541,1.541,1.541,1.541,1.541,1.543,1.5654,1.6145,1.6943,1.7353,0.0,0.0,0.6896,0.6555,0.0,0.0,0.0,0.0,0.0,0.0,0.0,0.0,0.0,0.0,0.0,0.0,0.0,0.0,0.0,0.0,0.0,0.0,0.0,0.0,0.0,0.0,0.0,0.0,0.0,0.0,0.0,0.1668,0.3029,0.3897,0.4449,0.5089,0.586,0.5998,0.6419,0.7071,0.7287,0.7731,0.8398,0.8958,0.9239,0.9239,0.9597,0.9755,0.9716,0.9359,0.9439,0.9765,0.9558,0.9716,1.0011,0.9886,0.9941,1.0078,1.0225,1.0283,1.0283,1.0283,1.0283,1.0283,1.0283,1.0283,1.0283,1.0283,1.0283,1.0381,1.0801,1.123,1.1714,1.2119,1.2559,1.2881,1.2881,1.2881,1.2881,1.2881,1.2881,1.2881,1.2881,1.2881,1.2881,1.2881,1.2881,1.2881,1.2881,1.2881,1.3037,1.3467,1.3506,1.3857,1.4707,1.5039,1.5264,1.54,1.541,1.541,1.541,1.541,1.541,1.541,1.541,1.541,1.541,1.5703,1.5918,1.6135,1.668,1.7109,0.318,0.446,0.0,0.7812,0.7188,0.0,0.3161,0.0,0.0,0.0,0.0,0.0,0.0,0.0,0.0,0.0,0.0,0.0,0.0,0.0684,0.0,0.0,0.0,0.0,0.0,0.0,0.0,0.0,0.0,0.0,0.0,0.0,0.3348,0.4997,0.5108,0.5575,0.648,0.6643,0.6987,0.7559,0.7929,0.8382,0.8947,0.9518,0.9804,0.9804,1.0166,1.0283,1.0264,0.9762,0.9829,1.0264,0.9752,0.9867,1.0244,0.9971,1.0039,1.0302,1.0107,1.0156,1.0283,1.0283,1.0283,1.0283,1.0283,1.0283,1.0283,1.0283,1.0283,1.0342,1.0615,1.1123,1.1675,1.1924,1.2451,1.2881,1.2881,1.2881,1.2881,1.2881,1.2881,1.2881,1.2881,1.2881,1.2881,1.2881,1.2881,1.2881,1.2881,1.2881,1.3037,1.3467,1.3379,1.3564,1.4268,1.4853,1.5186,1.5186,1.5322,1.541,1.541,1.541,1.541,1.541,1.541,1.541,1.541,1.5693,1.5908,1.6135,1.6357,1.6816]},{"header":{"parameterUnit":"m.s-1","parameterCategory":1,"la1":30.6,"la2":29.2853,"lo1":-89.7004,"lo2":-87.6739,"dy":0.0162,"dx":0.0183,"nx":112,"ny":82,"refTime":"2024-03-19T18:00:00:Z","depth":0,"parameterNumber":3,"parameterNumberName":"V-component_of_WINDS"},"data":[0.0,0.0,0.0,0.0,0.0,0.0,0.0,0.0,0.0,0.0,0.0,0.0,0.0,0.0,0.0,0.0,0.0,0.0,0.0,0.0,0.0,0.0,0.0,0.0,0.0,0.0,0.0,0.0,0.0,0.0,0.0,0.0,0.0,0.0,0.0,0.0,0.0,0.0,0.0,0.0,0.0,0.0,0.0,0.0,0.0,0.0,0.0,0.0,0.0,0.0,0.0,0.0,0.0,0.0,0.0,0.0,0.0,0.0,0.0,0.0,0.0,0.0,0.0,0.0,0.0,0.0,0.0,0.0,0.0,0.0,0.0,0.0,0.0,0.0,0.0,0.0,0.0,0.0,0.0,0.0,0.0,0.0,0.0,0.0,0.0,0.0,0.0,0.0,0.0,0.0,-1.7103,-2.0518,-2.3522,-2.5591,-2.6351,-2.5486,-2.3592,-2.0504,0.0,0.0,0.0,0.0,0.0,0.0,0.0,0.0,0.0,0.0,0.0,0.0,0.0,0.0,0.0,0.0,0.0,0.0,0.0,0.0,0.0,0.0,0.0,0.0,0.0,0.0,0.0,0.0,0.0,0.0,0.0,0.0,0.0,0.0,0.0,0.0,0.0,0.0,0.0,0.0,0.0,0.0,0.0,0.0,0.0,0.0,0.0,0.0,0.0,0.0,0.0,0.0,0.0,0.0,0.0,0.0,0.0,0.0,0.0,0.0,0.0,0.0,0.0,0.0,0.0,0.0,0.0,0.0,0.0,0.0,0.0,0.0,0.0,0.0,0.0,0.0,0.0,0.0,0.0,0.0,0.0,0.0,0.0,0.0,0.0,0.0,0.0,0.0,0.0,0.0,0.0,0.0,0.0,0.0,0.0,0.0,0.0,0.0,0.0,0.0,0.0,0.0,0.0,0.0,-1.9734,-2.3157,-2.4582,-2.5341,-2.5495,-2.4062,-2.235,-2.0427,0.0,0.0,0.0,0.0,0.0,0.0,0.0,0.0,0.0,0.0,0.0,0.0,0.0,0.0,0.0,0.0,0.0,0.0,0.0,0.0,0.0,0.0,0.0,0.0,0.0,0.0,0.0,0.0,0.0,0.0,0.0,0.0,0.0,0.0,0.0,0.0,0.0,0.0,0.0,0.0,0.0,0.0,0.0,0.0,0.0,0.0,0.0,0.0,0.0,0.0,0.0,0.0,0.0,0.0,0.0,0.0,0.0,0.0,0.0,0.0,0.0,0.0,0.0,0.0,0.0,0.0,0.0,0.0,0.0,0.0,0.0,0.0,0.0,0.0,0.0,0.0,0.0,0.0,0.0,0.0,0.0,0.0,0.0,0.0,0.0,0.0,0.0,0.0,0.0,0.0,0.0,0.0,0.0,0.0,0.0,0.0,0.0,0.0,0.0,0.0,0.0,0.0,0.0,-1.8706,-2.0835,-2.3783,-2.4812,-2.512,-2.4697,-2.3505,-2.187,-1.9735,-1.916,0.0,0.0,0.0,0.0,0.0,0.0,0.0,0.0,0.0,0.0,0.0,0.0,0.0,0.0,0.0,0.0,0.0,0.0,0.0,0.0,0.0,0.0,0.0,0.0,0.0,0.0,0.0,0.0,0.0,0.0,0.0,0.0,0.0,0.0,0.0,0.0,0.0,0.0,0.0,0.0,0.0,0.0,0.0,0.0,0.0,0.0,0.0,0.0,0.0,0.0,0.0,0.0,0.0,0.0,0.0,0.0,0.0,0.0,0.0,0.0,0.0,0.0,0.0,0.0,0.0,0.0,0.0,0.0,0.0,0.0,0.0,0.0,0.0,0.0,0.0,0.0,0.0,0.0,0.0,0.0,0.0,0.0,0.0,0.0,0.0,0.0,0.0,0.0,0.0,0.0,0.0,0.0,0.0,0.0,0.0,0.0,0.0,0.0,0.0,0.0,0.0,0.0,-1.9888,-2.135,-2.4082,-2.4755,-2.4774,-2.4149,-2.2754,-2.1062,-1.9126,-1.7818,0.0,0.0,0.0,0.0,0.0,0.0,0.0,0.0,0.0,0.0,0.0,0.0,0.0,0.0,0.0,0.0,0.0,0.0,0.0,0.0,0.0,0.0,0.0,0.0,0.0,0.0,0.0,0.0,0.0,0.0,0.0,0.0,0.0,0.0,0.0,0.0,0.0,0.0,0.0,0.0,0.0,0.0,0.0,0.0,0.0,0.0,0.0,0.0,0.0,0.0,0.0,0.0,0.0,0.0,0.0,0.0,0.0,0.0,0.0,0.0,0.0,0.0,0.0,0.0,0.0,0.0,0.0,0.0,0.0,0.0,0.0,0.0,0.0,0.0,0.0,0.0,0.0,0.0,0.0,0.0,0.0,0.0,0.0,0.0,0.0,0.0,0.0,0.0,0.0,0.0,0.0,0.0,0.0,0.0,0.0,0.0,0.0,0.0,0.0,0.0,0.0,0.0,-2.0254,-2.1554,-2.4861,-2.4601,-2.4168,-2.411,-2.1139,-1.9196,-1.9011,-1.6715,0.0,0.0,0.0,0.0,0.0,0.0,0.0,0.0,0.0,0.0,0.0,0.0,0.0,0.0,0.0,0.0,0.0,0.0,0.0,0.0,0.0,0.0,0.0,0.0,0.0,0.0,0.0,0.0,0.0,0.0,0.0,0.0,0.0,0.0,0.0,0.0,0.0,0.0,0.0,0.0,0.0,0.0,0.0,0.0,0.0,0.0,0.0,0.0,0.0,0.0,0.0,0.0,0.0,0.0,0.0,0.0,0.0,0.0,0.0,0.0,0.0,0.0,0.0,0.0,0.0,0.0,0.0,0.0,0.0,0.0,0.0,0.0,0.0,0.0,0.0,0.0,0.0,0.0,0.0,0.0,0.0,0.0,0.0,0.0,0.0,0.0,0.0,0.0,0.0,0.0,0.0,0.0,0.0,0.0,0.0,0.0,0.0,0.0,0.0,0.0,0.0,0.0,-1.9965,-2.1177,0.0,-2.3956,-2.3456,-2.187,-2.0562,-1.9138,-1.7549,0.0,0.0,0.0,0.0,0.0,0.0,0.0,0.0,0.0,0.0,0.0,0.0,0.0,0.0,0.0,0.0,0.0,0.0,0.0,0.0,0.0,0.0,0.0,0.0,0.0,0.0,0.0,0.0,0.0,0.0,0.0,0.0,0.0,0.0,0.0,0.0,0.0,0.0,0.0,0.0,0.0,0.0,0.0,0.0,0.0,0.0,0.0,0.0,0.0,0.0,0.0,0.0,0.0,0.0,0.0,0.0,0.0,0.0,0.0,0.0,0.0,0.0,0.0,0.0,0.0,0.0,0.0,0.0,0.0,0.0,0.0,0.0,0.0,0.0,0.0,0.0,0.0,0.0,0.0,0.0,0.0,0.0,0.0,0.0,0.0,0.0,0.0,0.0,0.0,0.0,0.0,0.0,0.0,0.0,0.0,0.0,0.0,0.0,0.0,0.0,0.0,0.0,-1.8665,-1.9523,-2.0523,0.0,-2.2677,-2.2081,-2.0062,-1.8888,-1.7773,-1.6561,0.0,0.0,0.0,0.0,0.0,0.0,0.0,0.0,0.0,0.0,0.0,0.0,0.0,0.0,0.0,0.0,0.0,0.0,0.0,0.0,0.0,0.0,0.0,0.0,0.0,0.0,0.0,0.0,0.0,0.0,0.0,0.0,0.0,0.0,0.0,0.0,0.0,0.0,0.0,0.0,0.0,0.0,0.0,0.0,0.0,0.0,0.0,0.0,0.0,0.0,0.0,0.0,0.0,0.0,0.0,0.0,0.0,0.0,0.0,0.0,0.0,0.0,0.0,0.0,0.0,0.0,0.0,0.0,0.0,0.0,0.0,0.0,0.0,0.0,0.0,0.0,0.0,0.0,0.0,0.0,0.0,0.0,0.0,0.0,0.0,0.0,0.0,0.0,0.0,0.0,0.0,0.0,0.0,0.0,0.0,0.0,0.0,0.0,0.0,0.0,0.0,0.0,-1.8645,-1.8992,-1.9646,-2.1312,-2.0773,-1.9946,-1.9049,-1.5868,-1.4651,0.0,0.0,0.0,0.0,0.0,0.0,0.0,0.0,0.0,0.0,0.0,0.0,0.0,0.0,0.0,0.0,0.0,0.0,0.0,0.0,0.0,0.0,0.0,0.0,0.0,0.0,0.0,0.0,0.0,0.0,0.0,0.0,0.0,0.0,0.0,0.0,0.0,0.0,0.0,0.0,0.0,0.0,0.0,0.0,0.0,0.0,0.0,0.0,0.0,0.0,0.0,0.0,0.0,0.0,0.0,0.0,0.0,0.0,0.0,0.0,0.0,0.0,0.0,0.0,0.0,0.0,0.0,0.0,0.0,0.0,0.0,0.0,0.0,0.0,0.0,0.0,0.0,0.0,0.0,0.0,0.0,0.0,0.0,0.0,0.0,0.0,0.0,0.0,0.0,0.0,0.0,0.0,0.0,0.0,0.0,0.0,0.0,0.0,0.0,0.0,0.0,0.0,0.0,-1.7814,-1.8624,-1.9427,-2.0542,-2.0446,-1.9465,-1.7407,-1.5753,-1.478,-1.4666,0.0,0.0,0.0,0.0,0.0,0.0,0.0,0.0,0.0,0.0,0.0,0.0,0.0,0.0,0.0,0.0,0.0,0.0,0.0,0.0,0.0,0.0,0.0,0.0,0.0,0.0,0.0,0.0,0.0,0.0,0.0,0.0,0.0,0.0,0.0,0.0,0.0,0.0,0.0,0.0,0.0,0.0,0.0,0.0,0.0,0.0,0.0,0.0,0.0,0.0,0.0,0.0,0.0,0.0,0.0,0.0,0.0,0.0,0.0,0.0,0.0,0.0,0.0,0.0,0.0,0.0,0.0,0.0,0.0,0.0,0.0,0.0,0.0,0.0,0.0,0.0,0.0,0.0,0.0,0.0,0.0,0.0,0.0,0.0,0.0,0.0,0.0,0.0,0.0,0.0,0.0,0.0,0.0,0.0,0.0,0.0,0.0,0.0,0.0,0.0,0.0,0.0,-1.7276,-1.7482,-1.7884,-1.9057,-1.8935,-1.7888,-1.5657,-1.4695,-1.4096,-1.387,0.0,0.0,0.0,0.0,0.0,0.0,0.0,0.0,0.0,0.0,0.0,0.0,0.0,0.0,0.0,0.0,0.0,0.0,0.0,0.0,0.0,0.0,0.0,0.0,0.0,0.0,0.0,0.0,0.0,0.0,0.0,0.0,0.0,0.0,0.0,0.0,0.0,0.0,0.0,0.0,0.0,0.0,0.0,0.0,0.0,0.0,0.0,0.0,0.0,0.0,0.0,0.0,0.0,0.0,0.0,0.0,0.0,0.0,0.0,0.0,0.0,0.0,0.0,0.0,0.0,0.0,0.0,0.0,0.0,0.0,0.0,0.0,0.0,0.0,0.0,0.0,0.0,0.0,0.0,0.0,0.0,0.0,0.0,0.0,0.0,0.0,0.0,0.0,0.0,0.0,0.0,0.0,0.0,0.0,0.0,0.0,0.0,0.0,0.0,0.0,0.0,0.0,-1.6979,-1.6016,-1.5742,-1.7449,-1.696,-1.5824,-1.414,-1.3261,-1.3076,-1.3728,0.0,0.0,0.0,0.0,0.0,0.0,0.0,0.0,0.0,0.0,0.0,0.0,0.0,0.0,0.0,0.0,0.0,0.0,0.0,0.0,0.0,0.0,0.0,0.0,0.0,0.0,0.0,0.0,0.0,0.0,0.0,0.0,0.0,0.0,0.0,0.0,0.0,0.0,0.0,0.0,0.0,0.0,0.0,0.0,0.0,0.0,0.0,0.0,0.0,0.0,0.0,0.0,0.0,0.0,0.0,0.0,0.0,0.0,0.0,0.0,-1.3851,0.0,0.0,0.0,0.0,0.0,0.0,0.0,0.0,0.0,0.0,0.0,0.0,0.0,0.0,0.0,0.0,0.0,0.0,0.0,0.0,0.0,0.0,0.0,0.0,0.0,0.0,0.0,0.0,0.0,0.0,0.0,0.0,0.0,0.0,0.0,0.0,0.0,0.0,0.0,0.0,0.0,-1.6975,-1.6018,-1.5979,-1.8278,-1.7305,-1.6035,-1.4851,-1.4023,-1.3562,-1.357,-1.282,0.0,0.0,0.0,0.0,0.0,0.0,0.0,0.0,0.0,0.0,0.0,0.0,0.0,0.0,0.0,0.0,0.0,0.0,0.0,0.0,0.0,0.0,0.0,0.0,0.0,0.0,0.0,0.0,0.0,0.0,0.0,0.0,0.0,0.0,0.0,0.0,0.0,0.0,0.0,0.0,0.0,0.0,0.0,0.0,0.0,0.0,0.0,0.0,0.0,0.0,0.0,0.0,0.0,0.0,0.0,0.0,0.0,0.0,0.0,0.0,-1.5614,0.0,0.0,0.0,0.0,0.0,0.0,0.0,0.0,0.0,0.0,0.0,0.0,0.0,0.0,0.0,0.0,0.0,0.0,0.0,0.0,0.0,0.0,0.0,0.0,0.0,0.0,0.0,0.0,0.0,0.0,0.0,0.0,0.0,0.0,0.0,0.0,0.0,0.0,0.0,0.0,-1.6258,-1.5245,-1.5117,-1.7197,-1.6398,-1.5354,-1.4418,-1.3948,-1.3621,-1.3458,-1.3083,0.0,0.0,0.0,0.0,0.0,0.0,0.0,0.0,0.0,0.0,0.0,0.0,0.0,0.0,0.0,0.0,0.0,0.0,0.0,0.0,0.0,0.0,0.0,0.0,0.0,0.0,0.0,0.0,0.0,0.0,0.0,0.0,0.0,0.0,0.0,0.0,0.0,0.0,0.0,0.0,0.0,0.0,0.0,0.0,0.0,0.0,0.0,0.0,0.0,0.0,0.0,0.0,0.0,-1.9503,-2.0044,-2.0695,-1.9787,-1.9899,-2.0748,-1.9711,-1.8768,-1.7934,0.0,0.0,0.0,0.0,0.0,0.0,0.0,0.0,0.0,0.0,0.0,0.0,0.0,0.0,0.0,0.0,0.0,0.0,0.0,0.0,0.0,0.0,0.0,0.0,0.0,-1.6008,-1.6371,0.0,0.0,0.0,0.0,0.0,0.0,0.0,0.0,0.0,0.0,0.0,0.0,-1.549,-1.441,-1.4129,-1.5737,-1.531,-1.4604,-1.3846,-1.3781,-1.3746,-1.3634,-1.3654,-1.3644,0.0,0.0,0.0,0.0,0.0,0.0,0.0,0.0,0.0,0.0,0.0,0.0,0.0,0.0,0.0,0.0,0.0,0.0,0.0,0.0,0.0,0.0,0.0,0.0,0.0,0.0,0.0,0.0,0.0,0.0,0.0,0.0,-1.5163,-1.5293,0.0,0.0,0.0,0.0,0.0,0.0,0.0,0.0,0.0,0.0,0.0,0.0,0.0,-1.8701,-1.9467,-2.1166,-2.1991,-2.1977,-2.3335,-2.4425,-2.5215,-2.4388,-2.4749,-2.5963,-2.5071,0.0,-1.899,-1.792,0.0,0.0,0.0,0.0,0.0,0.0,0.0,0.0,0.0,0.0,0.0,0.0,0.0,0.0,0.0,0.0,0.0,0.0,0.0,0.0,0.0,0.0,-1.7377,-1.7187,-1.7719,-1.8324,0.0,-1.7229,-1.6157,-1.5999,0.0,0.0,0.0,0.0,0.0,0.0,0.0,0.0,-1.549,-1.441,-1.4129,-1.5737,-1.531,-1.4803,-1.4569,-1.4559,-1.4549,-1.4529,-1.4434,-1.4423,-1.4509,-1.4523,0.0,0.0,0.0,0.0,0.0,0.0,0.0,0.0,0.0,0.0,0.0,0.0,0.0,0.0,0.0,0.0,0.0,0.0,0.0,0.0,0.0,0.0,0.0,0.0,0.0,0.0,0.0,0.0,0.0,-1.5449,-1.64,-1.5478,-1.697,-1.7355,0.0,0.0,0.0,0.0,0.0,0.0,0.0,0.0,0.0,-2.0267,-2.0856,-2.1473,-2.2163,-2.4411,-2.5191,-2.4543,-2.6744,-2.7685,-2.7502,-2.7597,-2.7724,-2.789,-2.7497,-2.5981,-2.364,-2.1475,-2.0264,-1.9578,0.0,0.0,0.0,0.0,0.0,-1.6982,-1.7646,-1.7692,0.0,0.0,0.0,0.0,0.0,0.0,0.0,0.0,0.0,0.0,0.0,0.0,0.0,-1.8836,-1.9614,-2.0445,-2.0585,-1.9986,-1.896,0.0,-1.7024,-1.6584,-1.5343,0.0,0.0,0.0,0.0,-1.4241,-1.5533,-1.474,-1.433,-1.5051,-1.4847,-1.4645,-1.4581,-1.46,-1.46,-1.46,-1.4533,-1.4522,-1.46,-1.4975,-1.4727,0.0,0.0,0.0,0.0,0.0,0.0,0.0,0.0,0.0,0.0,0.0,0.0,0.0,0.0,0.0,0.0,0.0,0.0,0.0,0.0,0.0,0.0,0.0,0.0,0.0,0.0,0.0,0.0,-1.6934,-1.7424,-1.6189,-1.8274,-1.8902,0.0,0.0,0.0,0.0,0.0,0.0,-2.03,-2.0927,-2.1825,-2.3035,-2.3746,-2.4532,-2.5406,-2.7486,-2.8203,-2.757,-2.9568,-3.0357,-3.0068,-3.0472,-3.038,-2.9899,-2.9482,-2.8885,-2.7994,-2.4819,-2.2921,-2.1838,-2.0067,-1.9129,-1.8841,-1.909,-1.8954,-1.8802,-1.9974,-1.9898,-1.9314,-1.9103,0.0,-1.8078,-1.6808,0.0,0.0,0.0,0.0,-1.8569,-1.8557,-1.9528,-2.0539,-2.0519,-2.1421,-2.2301,-2.2409,-2.2244,-2.1404,0.0,-1.8556,-1.8074,-1.6781,0.0,0.0,0.0,0.0,-1.5083,-1.5625,-1.5178,-1.4811,-1.4811,-1.4811,-1.4903,-1.5093,-1.494,-1.4823,-1.4858,-1.4621,-1.4511,-1.4556,-1.5544,-1.5637,-1.4727,0.0,0.0,0.0,0.0,0.0,0.0,0.0,0.0,0.0,0.0,0.0,0.0,0.0,0.0,0.0,0.0,0.0,0.0,0.0,0.0,0.0,0.0,0.0,0.0,0.0,0.0,0.0,0.0,0.0,-1.7781,-1.997,0.0,0.0,0.0,0.0,-2.147,-2.1506,-2.2207,-2.3841,-2.3918,-2.5024,-2.7505,-2.7621,-2.8429,-3.004,-3.0206,-3.0698,-3.1499,-3.1646,-3.2519,-3.3993,-3.3256,-3.3154,-3.3459,-3.1844,-3.1029,-3.0525,-2.673,-2.482,-2.4096,-2.273,-2.183,-2.1274,-2.0866,-2.0675,-2.0762,-2.1394,-2.0879,-2.0178,-2.1389,-2.0587,-1.9087,-1.8805,-1.8758,0.0,0.0,-1.979,-2.0448,-2.0742,-2.1412,-2.2082,-2.2391,-2.3066,-2.3689,-2.4003,-2.3474,-2.2594,0.0,-2.1204,-2.0877,-1.9842,0.0,-1.8482,-1.7785,-1.7115,-1.642,-1.5784,-1.5655,-1.5637,-1.5637,-1.5637,-1.5949,-1.6707,-1.6078,-1.5698,-1.5826,-1.4991,-1.4567,-1.4668,-1.6254,-1.6713,-1.5844,-1.6583,0.0,0.0,0.0,0.0,0.0,0.0,0.0,0.0,0.0,0.0,0.0,0.0,0.0,0.0,0.0,0.0,0.0,0.0,0.0,0.0,0.0,0.0,0.0,0.0,0.0,0.0,0.0,0.0,-2.112,-2.335,0.0,-2.2649,-2.3247,-2.3667,-2.3495,-2.4434,-2.5503,-2.6651,-2.7219,-2.8413,-3.0411,-3.0475,-3.103,-3.2179,-3.2762,-3.2916,-3.2704,-3.379,-3.4348,-3.4445,-3.4665,-3.4279,-3.3389,-3.2795,-3.1847,-3.0619,-2.9141,-2.7516,-2.5836,-2.4801,-2.3747,-2.2757,-2.2593,-2.2473,-2.2382,-2.26,-2.2393,-2.2059,-2.2059,-2.1635,-2.1128,-2.1065,-2.1727,-2.2417,-2.2018,-2.2441,-2.2917,-2.2521,-2.2767,-2.3153,-2.3277,-2.3658,-2.4095,-2.4339,-2.417,-2.3889,-2.3638,-2.2531,-2.1334,-2.039,-1.9993,-1.9721,-1.9514,-1.8315,-1.7584,-1.7972,-1.7105,-1.6468,-1.6468,-1.6468,-1.6578,-1.689,-1.6762,-1.6692,-1.6739,-1.6488,-1.6382,-1.6431,-1.7503,-1.7955,-1.7635,-1.9463,-1.874,0.0,0.0,0.0,0.0,0.0,0.0,0.0,0.0,0.0,0.0,0.0,0.0,0.0,0.0,0.0,0.0,0.0,0.0,0.0,0.0,0.0,0.0,0.0,0.0,0.0,0.0,-2.3802,-2.4138,-2.6408,-2.7325,-2.5703,-2.6602,-2.7075,-2.6562,-2.7832,-2.8971,-2.9803,-3.0377,-3.1331,-3.2724,-3.2774,-3.318,-3.4049,-3.4621,-3.4488,-3.3699,-3.4796,-3.4897,-3.4109,-3.4656,-3.4265,-3.318,-3.2891,-3.2111,-3.1003,-3.0588,-2.934,-2.7566,-2.651,-2.5403,-2.434,-2.3931,-2.3699,-2.3548,-2.344,-2.3865,-2.4223,-2.3052,-2.2908,-2.3112,-2.2839,-2.3448,-2.4168,-2.3753,-2.3988,-2.4277,-2.3837,-2.3908,-2.408,-2.408,-2.4229,-2.4426,-2.4559,-2.4591,-2.4639,-2.4775,-2.3712,-2.2611,-2.1985,-2.1604,-2.1295,-2.1034,-1.9758,-1.8849,-1.8945,-1.7982,-1.7321,-1.7401,-1.7401,-1.7538,-1.7862,-1.7763,-1.7682,-1.7682,-1.7507,-1.7397,-1.7397,-1.7966,-1.826,-1.826,-2.1214,-2.0852,-1.7046,0.0,0.0,0.0,0.0,0.0,0.0,0.0,0.0,0.0,0.0,0.0,0.0,0.0,0.0,0.0,0.0,0.0,0.0,0.0,0.0,0.0,0.0,0.0,-2.1669,-2.3887,-2.5839,-2.6757,-2.8993,-2.9886,-2.8357,-2.9706,-3.0716,-3.0781,-3.1562,-3.2422,-3.3301,-3.3278,-3.3646,-3.4508,-3.4547,-3.4911,-3.5697,-3.5717,-3.5357,-3.4641,-3.4622,-3.4165,-3.334,-3.332,-3.3244,-3.3129,-3.2279,-3.1884,-3.1806,-3.0963,-3.0133,-2.9266,-2.7877,-2.6833,-2.5977,-2.4764,-2.4321,-2.4271,-2.3934,-2.5116,-2.6413,-2.4469,-2.4412,-2.4966,-2.4136,-2.3897,-2.3971,-2.4275,-2.436,-2.4428,-2.4708,-2.4804,-2.4804,-2.4804,-2.4804,-2.4804,-2.4804,-2.4804,-2.4818,-2.4818,-2.4818,-2.4818,-2.4804,-2.4087,-2.3243,-2.2407,-2.1461,0.0,-1.8623,-1.8273,-1.8232,-1.8416,-1.8441,-1.8821,-1.9722,-1.9095,-1.8653,-1.8653,-1.7927,-1.7511,-1.753,-1.7659,-1.774,-1.7797,-2.1568,-2.2225,-1.9564,0.0,0.0,0.0,0.0,0.0,0.0,0.0,0.0,0.0,0.0,0.0,0.0,0.0,0.0,0.0,0.0,0.0,0.0,0.0,0.0,0.0,-2.267,-2.4116,-2.3493,-2.6111,-2.8653,-3.0147,-3.1453,-3.2314,-3.2538,-3.2508,-3.2511,-3.2577,-3.2851,-3.3398,-3.4277,-3.4294,-3.4699,-3.5558,-3.5597,-3.5695,-3.5927,-3.5927,-3.5821,-3.5603,-3.4975,-3.4552,-3.4297,-3.3652,-3.3046,-3.2469,-3.2215,-3.175,-3.1158,-3.0924,-3.0308,-2.9421,-2.8322,-2.7276,-2.6261,-2.5298,-2.4822,-2.4657,-2.4563,-2.4892,-2.5267,-2.4698,-2.5107,-2.5767,-2.548,-2.5789,-2.6161,-2.5665,-2.5531,-2.543,-2.4926,-2.4804,-2.4804,-2.4804,-2.4804,-2.4832,-2.4911,-2.4956,-2.4993,-2.5138,-2.516,-2.5091,-2.4847,-2.4596,-2.437,-2.4115,-2.2825,0.0,-2.1266,-2.0114,-1.9344,-1.9411,-1.9411,-1.9529,-1.979,-1.9692,-1.9621,-1.9621,-1.9543,-1.9758,-2.0342,-2.0417,-2.1029,-2.2286,-2.2115,-2.1627,0.0,0.0,0.0,0.0,0.0,0.0,0.0,0.0,0.0,0.0,0.0,0.0,0.0,0.0,0.0,0.0,0.0,0.0,0.0,0.0,0.0,0.0,-2.5293,-2.7026,-2.7258,-2.9259,-3.1198,-3.2583,-3.3487,-3.4051,-3.423,-3.4231,-3.4061,-3.3739,-3.4111,-3.4585,-3.5093,-3.5173,-3.543,-3.5937,-3.5996,-3.5996,-3.5996,-3.5996,-3.582,-3.5449,-3.457,-3.3984,-3.3613,-3.2754,-3.2109,0.0,-3.166,-3.1379,-3.0903,-3.0895,-3.0388,0.0,0.0,0.0,0.0,0.0,-2.523,-2.5101,-2.5091,-2.5329,-2.5589,-2.5217,-2.5669,-2.6319,-2.5914,-2.6102,-2.635,-2.5888,-2.5735,-2.5602,-2.5133,-2.5019,-2.5019,-2.5019,-2.5019,-2.5024,-2.5118,-2.5141,-2.5163,-2.5274,0.0,0.0,-2.5037,-2.5019,-2.4892,-2.4525,-2.329,-2.2286,-2.1902,-2.0644,-1.9813,-1.988,-2.0213,-2.0443,-2.0506,-2.0929,0.0,0.0,0.0,-2.1389,-2.1504,-2.1504,0.0,0.0,0.0,-2.2288,-2.2908,0.0,0.0,0.0,-1.9376,-1.8974,0.0,0.0,0.0,0.0,0.0,0.0,0.0,0.0,0.0,0.0,0.0,0.0,0.0,0.0,0.0,0.0,-2.7871,-3.014,-3.1891,-3.2814,-3.3545,-3.4122,-3.4968,-3.5199,-3.441,-3.5103,-3.5277,-3.4497,-3.5236,-3.5694,-3.5694,0.0,0.0,0.0,0.0,-3.5996,-3.5996,-3.5996,-3.5605,-3.4844,-3.3965,-3.3125,-3.2305,-3.1445,-3.0996,-3.0898,-3.0898,-3.0898,-3.0898,-3.0898,-3.0391,-2.9492,-2.8476,-2.7528,-2.6665,-2.5823,-2.5511,0.0,0.0,0.0,0.0,-2.5757,-2.6021,-2.6506,-2.5726,-2.5438,-2.539,-2.539,-2.5341,-2.5303,-2.5303,-2.5303,-2.5303,-2.5303,-2.5303,-2.5303,-2.5303,-2.5303,-2.5303,-2.5303,-2.5303,-2.5303,-2.5303,-2.5303,-2.5043,-2.4254,-2.336,0.0,-2.164,-2.0698,-2.0186,-2.0308,0.0,0.0,-2.165,-2.235,-2.2793,-2.2793,-2.2889,-2.2601,-2.1831,-2.1889,-2.2293,-2.3062,-2.3081,-2.3736,-2.5034,-2.5034,-2.4981,-2.4766,-2.0903,-2.0339,0.0,0.0,0.0,0.0,0.0,0.0,0.0,0.0,0.0,0.0,0.0,0.0,0.0,0.0,0.0,-2.801,-3.054,-3.2776,-3.4526,-3.5468,-3.5526,-3.4334,-3.4968,-3.543,-3.5257,-3.5468,-3.552,-3.5361,-3.5579,-3.5707,-3.5707,-3.5825,0.0,-3.5898,-3.5976,-3.5996,-3.5996,-3.5996,-3.5918,-3.5742,0.0,0.0,-3.3144,-3.2324,-3.1562,-3.0898,-3.0898,-3.0898,-3.0898,-3.0898,-3.0391,-2.9434,-2.7851,-2.6699,-2.5914,-2.5738,-2.5621,-2.5582,-2.5574,-2.5682,-2.5803,-2.5562,-2.5609,-2.5706,-2.5485,-2.5374,0.0,-2.5322,-2.5303,-2.5303,-2.5303,-2.5303,-2.5303,-2.5303,-2.5303,-2.5303,-2.5303,-2.5303,-2.5303,-2.5303,-2.5303,-2.5303,-2.5303,-2.5303,-2.5245,-2.5062,-2.4351,-2.3746,-2.3563,-2.2767,-2.222,-2.2267,-2.242,-2.2525,-2.2543,-2.2697,-2.2793,-2.2793,-2.3456,-2.3764,-2.361,-2.4216,-2.463,-2.4803,-2.4832,-2.4966,-2.5234,-2.5234,-2.5233,-2.5182,-2.4075,-2.3827,0.0,0.0,0.0,0.0,0.0,0.0,0.0,0.0,0.0,0.0,0.0,-2.3118,-2.4877,0.0,-2.8803,-3.1123,-3.3236,-3.509,-3.6551,-3.7103,-3.6873,-3.5603,-3.5834,-3.5949,-3.5532,-3.5545,-3.5565,-3.5565,-3.5584,-3.5603,-3.5603,-3.5699,-3.5764,-3.5802,-3.5894,-3.5976,-3.5996,-3.5996,-3.5996,-3.5996,-3.5117,-3.4238,-3.3379,-3.2578,-3.1719,-3.0898,-3.0898,-3.0898,-3.0879,-3.043,-2.998,-2.9473,-2.8164,-2.7383,-2.6953,-2.6504,-2.6602,-2.6894,-2.6445,-2.631,-2.6223,-2.5746,-2.5576,-2.5631,-2.6041,-2.6073,-2.6091,-2.6523,-2.6629,-2.6505,-2.6063,-2.5947,-2.5851,-2.5399,-2.5303,-2.5303,-2.5303,-2.5303,-2.5303,-2.5303,-2.5303,-2.5303,-2.5303,-2.5303,-2.5303,-2.5303,-2.462,-2.411,-2.411,-2.334,-2.2793,-2.2793,-2.3186,-2.3456,-2.3456,-2.3812,-2.4043,-2.4043,-2.4466,-2.4697,-2.4697,-2.5101,-2.5303,-2.5303,-2.5303,-2.5303,-2.5303,-2.5303,-2.5303,-2.5303,-2.5126,-2.5056,0.0,0.0,0.0,0.0,0.0,0.0,0.0,0.0,-2.1801,-2.3927,-2.5253,-2.6565,-2.8308,-3.0201,-3.2109,-3.3899,-3.5456,-3.6841,-3.8012,-3.8159,-3.7867,-3.7051,-3.6796,-3.6449,-3.5815,-3.5603,-3.5493,-3.5493,-3.5493,-3.5493,-3.5493,-3.5565,-3.5635,-3.5702,-3.5835,-3.5937,-3.5996,-3.5996,-3.5996,-3.5996,-3.5293,-3.4492,-3.3613,-3.2812,-3.1953,-3.1133,-3.0976,-3.0898,-3.0859,-3.0137,-2.9844,-2.9766,-2.8887,-2.8652,-2.8672,-2.7637,-2.7695,-2.8203,-2.75,-2.7246,-2.7148,-2.6426,-2.6143,-2.6217,-2.6932,-2.7048,-2.7091,-2.7772,-2.7937,-2.7736,-2.7024,-2.6851,-2.6678,-2.5967,-2.5813,-2.5813,-2.5813,-2.5813,-2.5813,-2.5813,-2.5813,-2.5813,-2.5813,-2.5649,-2.5495,-2.5322,-2.4755,-2.4341,-2.4341,-2.3716,-2.3293,-2.3293,-2.3908,-2.4341,-2.4341,-2.4928,-2.5303,-2.5303,-2.5303,-2.5303,-2.5303,-2.5303,-2.5303,-2.5303,-2.5303,-2.5303,-2.5303,-2.5303,-2.5303,-2.5303,-2.5303,-2.5303,-1.5209,-1.6065,-1.8038,-2.0293,-2.0659,-2.1581,0.0,0.0,-2.6045,-2.9248,-3.0038,-3.0641,-3.2333,-3.3443,-3.4402,-3.5407,-3.6371,-3.7423,-3.8537,-3.8708,-3.8512,-3.792,-3.718,-3.6661,-3.6584,-3.593,-3.5493,-3.5493,-3.5493,-3.5493,-3.5493,-3.5565,-3.5636,-3.5695,-3.5836,-3.5937,-3.5996,-3.5996,-3.5996,-3.5996,-3.5898,-3.5391,-3.4531,-3.3652,-3.2812,-3.2012,-3.123,-3.0898,-3.0898,-3.0781,-3.0742,-3.0664,-2.9785,-2.9922,-3.041,-2.8769,-2.8223,-2.8281,-2.8184,-2.8144,-2.8144,-2.8047,-2.7917,-2.7847,-2.7933,-2.7871,-2.7794,-2.7871,-2.7909,-2.7871,-2.7775,-2.7755,-2.7736,-2.7621,-2.7601,-2.7601,-2.7601,-2.7601,-2.7601,-2.7601,-2.7601,-2.7601,-2.7601,-2.6967,-2.6197,-2.5418,-2.5207,-2.5178,-2.5178,-2.5072,-2.5014,-2.5014,-2.5111,-2.5178,-2.5178,-2.5245,-2.5303,-2.5303,-2.5303,-2.5303,-2.5303,-2.5303,-2.5303,-2.5303,-2.5303,-2.5303,-2.5303,-2.5303,-2.5303,-2.5303,-2.5303,-2.5303,-1.8444,-1.9281,-2.069,0.0,-2.364,-2.4875,-2.7491,-2.8016,-2.8577,-3.076,-3.1797,-3.2588,-3.354,-3.4835,-3.5957,0.0,-3.7548,-3.8578,-3.9412,-3.9109,-3.8591,-3.8055,-3.6815,-3.6007,-3.6007,-3.5699,-3.5493,-3.5493,-3.5493,-3.5493,-3.5493,-3.5565,-3.5641,-3.5699,-3.5824,-3.5928,-3.5996,-3.5996,-3.5996,-3.5996,-3.5996,-3.5273,-3.3926,-3.3574,-3.2676,-3.1426,-3.1055,-3.0898,-3.0898,-3.0898,-3.0898,-3.0859,-3.0508,-3.0586,-3.0742,-2.9512,-2.9375,-2.9746,-2.9238,-2.9062,-2.8963,-2.8427,-2.8185,-2.8178,-2.8607,-2.8668,-2.8698,-2.9217,-2.9352,-2.9236,-2.8736,-2.8602,-2.8467,-2.8005,-2.789,-2.789,-2.789,-2.789,-2.789,-2.789,-2.789,-2.789,-2.789,-2.7601,-2.7063,-2.6197,-2.561,-2.5303,-2.5303,-2.5303,-2.5303,-2.5303,-2.5303,-2.5303,-2.5303,-2.5303,-2.5303,-2.5303,-2.5303,-2.5303,-2.5303,-2.5303,-2.5303,-2.5303,-2.5303,-2.5303,-2.5303,-2.5303,-2.5303,-2.5303,-2.5303,-2.5303,-2.0539,-2.1693,0.0,-2.4928,-2.6711,-2.8286,-2.941,-3.0261,-3.1159,-3.2398,-3.3259,-3.3876,-3.4199,-3.5432,-3.6548,-3.6991,-3.7966,-3.8887,-3.9499,-3.8858,-3.808,-3.7401,-3.6026,-3.5141,-3.5141,-3.493,-3.4988,-3.5455,-3.5295,-3.5276,-3.5507,-3.5603,-3.568,-3.5757,-3.5853,-3.594,-3.5996,-3.5996,-3.5996,-3.5996,-3.5996,-3.5215,-3.373,-3.3281,-3.2285,-3.0898,-3.0898,-3.0898,-3.0898,-3.0898,-3.0898,-3.0898,-3.0898,-3.0898,-3.0859,-3.0469,-3.0566,-3.0801,-3.0176,-2.9961,-2.984,-2.9175,-2.8869,-2.8888,-2.9424,-2.9533,-2.9583,-3.0217,-3.0398,-3.0256,-2.9621,-2.964,-2.9602,-2.8794,-2.8948,-2.9217,-2.9006,-2.8948,-2.8948,-2.8948,-2.8756,-2.8582,-2.8582,-2.839,-2.8025,-2.7371,-2.637,-2.5572,-2.5322,-2.5303,-2.5303,-2.5303,-2.5303,-2.5303,-2.5303,-2.5303,-2.5303,-2.5303,-2.5303,-2.5303,-2.5303,-2.5303,-2.5303,-2.5303,-2.5303,-2.5303,-2.5303,-2.5303,-2.5303,-2.5303,-2.5303,-2.5303,-1.9937,-2.1945,-2.4082,-2.7121,-2.96,-3.1659,-3.3256,-3.3902,-3.4411,-3.5286,-3.5091,-3.4783,-3.4853,-3.5283,-3.5901,-3.6678,-3.7228,-3.7748,-3.83,-3.7649,-3.6765,-3.5701,-3.4776,-3.4237,0.0,-3.3468,-3.368,-3.5372,-3.4776,-3.4699,-3.5545,-3.5661,-3.5757,-3.5892,-3.5892,-3.594,-3.5996,-3.5996,-3.5996,-3.5996,-3.5996,-3.5527,-3.4609,-3.2988,-3.1758,-3.0898,-3.0898,-3.0898,-3.0898,-3.0898,-3.0898,-3.0898,-3.0898,-3.0898,-3.0996,-3.1816,-3.1601,-3.0898,-3.0879,-3.0859,-3.0859,-3.0839,-3.0681,-3.0537,-3.0544,-3.0467,-3.0359,-3.0379,-3.0398,-3.0379,-3.0359,-3.0987,-3.141,-3.0544,-3.1564,-3.2526,-3.1756,-3.1583,-3.1583,-3.1583,-3.091,-3.0321,-3.0321,-2.9621,-2.9044,-2.9025,-2.7621,-2.6255,-2.5399,-2.5303,-2.5303,-2.5303,-2.5303,-2.5303,-2.5303,-2.5303,-2.5303,-2.5303,-2.5303,-2.5303,-2.5303,-2.5303,-2.5303,-2.5303,-2.5303,-2.5303,-2.5303,-2.5303,-2.5303,-2.5303,-2.5303,-2.5303,-2.0865,-2.3573,-2.6586,-2.9155,-3.0942,-3.2478,-3.4035,-3.4115,-3.3681,-3.3177,-3.2143,-3.1115,-3.0317,-3.1008,-3.2036,-3.3126,-3.4979,-3.6599,-3.7393,-3.7728,-3.7315,-3.5701,-3.5238,0.0,0.0,0.0,0.0,-3.5411,-3.5295,-3.5526,-3.6419,-3.6612,-3.6727,-3.6766,-3.6822,-3.6554,-3.6016,-3.5996,-3.5996,-3.5996,-3.4824,-3.4121,-3.3789,-3.2109,-3.1172,-3.0898,-3.0898,-3.0898,-3.0898,-3.0898,-3.123,-3.1758,-3.1758,-3.209,-3.2598,-3.2891,-3.2812,-3.248,-3.1953,-3.1758,-3.1641,-3.0976,-3.1103,-3.1403,-3.0742,-3.1314,-3.2057,-3.1448,-3.166,-3.2064,-3.2064,-3.2275,-3.2429,-3.2141,-3.2487,-3.2833,-3.2545,-3.2506,-3.2333,-3.1795,-3.1468,-3.1083,-3.0494,-3.016,-2.9583,-2.8467,-2.7332,-2.6294,-2.5399,-2.5303,-2.5303,-2.5303,-2.5303,-2.5303,-2.5303,-2.5303,-2.5303,-2.5303,-2.5303,-2.5303,-2.5303,-2.5303,-2.5303,-2.5303,-2.5303,-2.5303,-2.5303,-2.5303,-2.5303,-2.5303,-2.5303,-2.5303,-2.2802,-2.5696,-2.8687,-3.0941,-3.2424,-3.344,-3.4182,-3.3864,-3.3055,-3.1724,-3.011,-2.8562,-2.7233,-2.7902,-2.8996,-3.0077,-3.2216,-3.432,-3.6004,-3.6411,-3.6387,-3.5969,-3.568,-3.5391,0.0,0.0,0.0,-3.5507,-3.59,-3.6375,-3.6972,-3.714,-3.7238,-3.7238,-3.6983,-3.6562,-3.6016,-3.5996,-3.5987,-3.5943,-3.4516,-3.3645,-3.3287,-3.1913,-3.1113,-3.0859,-3.1211,-3.1367,-3.1387,-3.168,-3.2129,-3.2637,-3.2637,-3.2949,-3.3437,-3.375,-3.3867,-3.375,-3.293,-3.2637,-3.2461,-3.1543,-3.1582,-3.187,-3.1196,-3.1761,-3.2557,-3.2218,-3.2506,-3.2891,-3.2891,-3.3122,-3.3295,-3.2968,-3.3372,-3.3737,-3.343,-3.3353,-3.3122,-3.2295,-3.191,-3.1429,-3.0552,-3.0398,-2.9929,-2.8544,-2.7601,-2.664,-2.5437,-2.5303,-2.5303,-2.5303,-2.5303,-2.5303,-2.5303,-2.5303,-2.5303,-2.5303,-2.5303,-2.5303,-2.5303,-2.5303,-2.5303,-2.5303,-2.5303,-2.5303,-2.5303,-2.5303,-2.5303,-2.5303,-2.5303,-2.5303,-2.547,-2.8115,-3.0266,-3.2429,-3.3806,-3.4429,-3.3723,-3.3211,-3.2416,-3.0872,-2.8922,-2.7046,0.0,0.0,-2.6827,-2.7733,-2.921,-3.127,-3.4314,-3.4111,-3.4414,0.0,0.0,0.0,0.0,0.0,0.0,-3.5795,0.0,-3.7147,-3.7307,-3.7396,-3.7402,-3.7363,-3.6562,-3.6094,-3.5996,-3.5996,-3.5977,-3.5888,-3.4968,-3.4094,-3.3239,-3.2346,-3.1523,-3.0879,-3.1797,-3.2226,-3.2324,-3.3086,-3.3437,-3.3476,-3.3476,-3.3496,-3.3633,-3.4453,-3.4766,-3.4648,-3.3828,-3.3496,-3.332,-3.2519,-3.2207,-3.2102,-3.201,-3.201,-3.2205,-3.2852,-3.3083,-3.3141,-3.3103,-3.3699,-3.4103,-3.3237,-3.4295,-3.5276,-3.4449,-3.4257,-3.4007,-3.3141,-3.2275,-3.1429,-3.0552,-3.0398,-3.0102,-2.9217,-2.8448,-2.7332,-2.5591,-2.5322,-2.5303,-2.5303,-2.5303,-2.5303,-2.5303,-2.5303,-2.5303,-2.5303,-2.5303,-2.5303,-2.5303,-2.5303,-2.5303,-2.5303,-2.5303,-2.5303,-2.5303,-2.5303,-2.5303,-2.5303,-2.5303,-2.5303,-2.6186,-2.8965,-3.1742,-3.2321,-3.2286,-3.2119,-3.2087,-3.0769,-2.9093,-2.7542,-2.5063,-2.2815,0.0,0.0,0.0,-2.5938,-2.8604,0.0,-3.482,-3.6359,0.0,-3.7276,0.0,-3.8161,-3.7719,-3.8257,0.0,0.0,-3.7839,-3.8263,-3.8944,-3.9153,-3.8945,-3.8281,-3.8047,-3.7305,-3.6016,-3.5996,-3.5992,-3.5958,-3.4371,-3.3851,-3.4176,-3.2019,-3.1615,-3.2617,-3.2324,-3.2539,-3.3105,-3.332,-3.3789,-3.4375,-3.4375,-3.4766,-3.5351,-3.5586,-3.5664,-3.5644,-3.541,-3.4902,-3.4238,-3.3379,-3.3487,-3.38,-3.3087,-3.4138,-3.5493,-3.4974,-3.5738,-3.6546,-3.5911,-3.5911,-3.5853,-3.5026,-3.518,-3.5449,-3.5218,-3.518,-3.4911,-3.4045,-3.2699,-3.1429,-3.0552,-3.0398,-3.0102,-2.9217,-2.8929,-2.8179,-2.6486,-2.5687,-2.5303,-2.5303,-2.5303,-2.5303,-2.5303,-2.5303,-2.5303,-2.5303,-2.5303,-2.5303,-2.5303,-2.5303,-2.5303,-2.5303,-2.5303,-2.5303,-2.5303,-2.5303,-2.5303,-2.5303,-2.5303,-2.5303,-2.7895,-3.0195,-3.2313,-3.2313,-3.1495,-3.0555,-2.9995,-2.8073,-2.6042,-2.4663,-2.2394,-2.0439,-1.9664,-2.0401,-2.1808,0.0,0.0,0.0,-3.3427,-3.5584,-3.7143,0.0,-3.9131,0.0,-3.9142,-3.9527,-3.97,0.0,-3.9386,-3.9488,-3.9724,-3.9487,-3.9101,-3.8613,-3.7851,-3.6992,-3.6016,-3.5996,-3.5954,-3.5851,-3.4831,-3.4386,-3.4378,-3.2994,-3.2695,-3.3261,0.0,-3.3555,-3.4004,-3.4375,-3.4824,-3.5273,-3.5273,-3.5566,-3.5996,-3.5996,-3.5996,-3.5996,-3.5996,-3.5684,-3.5137,-3.4258,-3.4257,-3.4507,-3.3953,-3.4697,-3.5806,-3.5974,-3.6699,-3.7315,-3.6834,-3.6699,-3.6507,-3.5699,-3.5493,-3.5493,-3.5493,-3.5493,-3.5238,-3.4372,-3.2852,-3.1545,-3.1064,-3.0648,-3.0237,-2.9737,-2.9044,-2.8217,-2.7294,-2.6409,-2.5707,-2.5341,-2.5303,-2.5303,-2.5303,-2.5303,-2.5303,-2.5303,-2.5303,-2.5303,-2.5303,-2.5303,-2.5303,-2.5303,-2.5303,-2.5303,-2.5303,-2.5303,-2.5303,-2.5303,-2.5303,-2.5303,-2.9736,-3.1391,-3.2357,-3.207,-3.0847,-2.9286,-2.7717,-2.5363,-2.3223,-2.2065,-2.0489,-1.9171,-1.8805,-1.9829,-2.11,-2.2265,0.0,-2.7794,-3.1563,-3.3629,-3.5799,-3.8518,-3.9725,-4.0373,-4.0489,-4.0489,-4.0562,-4.0696,-4.0761,-4.0535,-3.9906,-3.9178,-3.8672,-3.8437,-3.6855,-3.5996,-3.5996,-3.5996,-3.5918,-3.5725,-3.5609,-3.5137,-3.4372,-3.4345,-3.4039,-3.3587,0.0,0.0,-3.5098,-3.5742,-3.6074,-3.6152,-3.6055,-3.6074,-3.6172,-3.6172,-3.6172,-3.6172,-3.6172,-3.6094,-3.5879,-3.511,-3.4802,-3.4738,-3.4666,-3.462,-3.4922,-3.6301,-3.6776,-3.6853,-3.6738,-3.6699,-3.6507,-3.5699,-3.5493,-3.5468,-3.5353,-3.5334,-3.5103,-3.4353,-3.2929,-3.1833,-3.1718,-3.0987,-3.0398,-3.0398,-2.9159,-2.8179,-2.8063,-2.7101,-2.614,-2.538,-2.5303,-2.5303,-2.5303,-2.5303,-2.5303,-2.5303,-2.5303,-2.5303,-2.5303,-2.5303,-2.5303,-2.5303,-2.5274,-2.5264,-2.5264,-2.5243,-2.5233,-2.5233,-2.5233,-2.5233,-2.9643,-3.1347,-3.278,-3.0937,-2.9089,-2.7197,-2.5334,-2.2932,0.0,-1.9656,-1.8708,-1.8065,-1.8,-1.8705,-2.025,-2.3282,-2.4946,-2.754,-3.2374,-3.4018,-3.5642,0.0,-3.9085,-3.9758,-4.0431,-4.0489,0.0,0.0,0.0,-4.0489,-3.9779,-3.9706,-3.9004,-3.7578,-3.6523,-3.5996,-3.5996,-3.5996,-3.5942,-3.5849,-3.5085,-3.4931,-3.5315,-3.4026,-3.4088,-3.525,-3.4851,0.0,-3.6797,-3.623,-3.6426,-3.6992,-3.6289,-3.6445,-3.707,-3.707,-3.707,-3.707,-3.707,-3.6601,-3.5972,-3.5765,-3.5611,-3.5502,-3.5432,-3.582,-3.6339,-3.6622,-3.7219,-3.7603,-3.6892,-3.6699,-3.6507,-3.5699,-3.5493,-3.5315,-3.4584,-3.443,-3.4372,-3.4218,-3.3372,-3.2487,-3.1814,-3.0987,-3.0398,-3.0398,-3.0148,-2.9717,-2.8967,-2.6928,-2.5457,-2.5322,-2.5303,-2.5303,-2.5303,-2.5303,-2.5303,-2.5303,-2.5303,-2.5303,-2.5303,-2.5303,-2.5303,-2.5303,-2.5141,-2.5046,-2.5046,-2.4949,-2.4888,-2.4888,-2.4888,-2.4888,-2.9412,-3.0805,-3.1968,-3.0487,-2.836,-2.6118,-2.4148,0.0,0.0,-1.7763,-1.7237,-1.7003,-1.7199,-1.829,0.0,-2.1934,-2.365,-2.5991,-2.9699,-3.1978,-3.4047,-3.6224,-3.8004,-3.9298,0.0,-3.9873,-3.995,0.0,0.0,-4.0081,-3.9816,-3.9002,-3.7969,-3.666,-3.6211,-3.5996,-3.5996,-3.5996,-3.5962,-3.5885,-3.5438,-3.5378,-3.5641,-3.493,-3.5051,-3.5786,-3.55,0.0,-3.7266,-3.6855,-3.7187,-3.793,-3.7519,-3.7617,-3.7988,-3.7988,-3.7988,-3.7909,-3.7414,-3.6961,-3.6522,-3.5951,-3.5719,-3.5695,-3.5618,-3.5834,-3.6161,-3.6584,-3.7007,-3.7238,-3.6815,-3.6699,-3.6507,-3.5699,-3.5493,-3.5391,-3.4968,-3.4872,-3.4872,-3.4872,-3.416,-3.3449,-3.3064,-3.1929,-3.1083,-3.1083,-3.0294,-2.9563,-2.914,-2.7659,-2.6486,-2.6024,-2.5986,-2.5793,-2.5341,-2.5303,-2.5303,-2.5303,-2.5303,-2.5303,-2.5303,-2.5303,-2.5303,-2.5303,-2.5203,-2.5099,-2.501,-2.4943,-2.4883,-2.4804,-2.4804,-2.4804,-2.8629,-2.9903,-3.0855,-2.9782,-2.7682,-2.5332,-2.3045,-2.0088,0.0,-1.6453,-1.611,-1.6127,-1.6602,-1.7885,-1.9235,0.0,-2.2042,-2.4154,-2.6758,-2.9573,-3.2139,0.0,-3.6786,0.0,-3.8973,-3.9008,0.0,0.0,0.0,0.0,-3.9609,-3.7969,-3.6719,-3.6016,-3.5996,-3.5996,-3.5996,-3.5996,-3.5976,-3.5898,-3.5896,-3.5836,-3.5688,-3.5836,-3.5892,-3.5894,-3.597,0.0,0.0,-3.7305,-3.7812,-3.8594,-3.8594,-3.8711,-3.8887,-3.8887,-3.8769,-3.8492,-3.7723,-3.7222,-3.6785,-3.5892,-3.5641,-3.568,-3.5603,-3.5545,-3.5641,-3.6276,-3.6449,-3.6449,-3.6449,-3.6449,-3.6276,-3.5661,-3.5372,-3.5276,-3.5468,-3.5353,-3.5276,-3.5468,-3.4795,-3.4141,-3.3949,-3.2699,-3.1641,-3.1448,-3.0256,-2.9371,-2.9371,-2.8791,-2.8007,-2.7163,-2.6792,-2.6255,-2.536,-2.5303,-2.5303,-2.5303,-2.5303,-2.5303,-2.5303,-2.5303,-2.5303,-2.5303,-2.5233,-2.5126,-2.4949,-2.4885,-2.4762,-2.467,-2.467,-2.467,-2.6754,-2.8614,-3.0071,-2.8072,-2.639,-2.45,-2.1408,0.0,-1.7401,-1.6047,-1.546,-1.5499,-1.6501,-1.6939,-1.7808,-1.9884,-2.0917,-2.2548,-2.576,-2.8183,-3.0678,-3.3551,0.0,0.0,-3.8031,-3.8123,0.0,0.0,0.0,0.0,-3.8711,-3.707,-3.6074,-3.5996,-3.5996,-3.5996,-3.5996,-3.5996,-3.5976,-3.5898,-3.5896,-3.5825,-3.5694,-3.584,-3.5892,-3.5894,-3.597,0.0,0.0,-3.7305,-3.7812,-3.8594,-3.8594,-3.9082,-3.9785,-3.9785,-3.9277,-3.857,-3.8373,-3.728,-3.5982,-3.5699,-3.5603,-3.5603,-3.5545,-3.5493,-3.5526,-3.5603,-3.5622,-3.5622,-3.5622,-3.5622,-3.5603,-3.5526,-3.4911,-3.4545,-3.5334,-3.4872,-3.4545,-3.5353,-3.4795,-3.3949,-3.316,-3.2295,-3.1429,-3.0641,-3.0379,-3.0294,-3.0294,-3.0004,-2.9494,-2.8673,-2.7397,-2.6255,-2.536,-2.5303,-2.5303,-2.5303,-2.5303,-2.5303,-2.5303,-2.5303,-2.5303,-2.5303,-2.4987,-2.4847,-2.4832,-2.4461,-2.4266,-2.4266,-2.4266,-2.4266,-2.506,-2.6964,-2.8271,-2.6518,-2.4936,-2.3092,-2.0304,0.0,-1.6305,-1.5049,-1.4771,-1.5003,-1.588,-1.6115,-1.6795,-1.868,-1.9017,0.0,-2.2872,-2.4997,-2.7531,-3.098,-3.3311,0.0,0.0,0.0,0.0,0.0,0.0,0.0,-3.7793,-3.666,-3.5996,-3.5996,-3.5996,-3.5996,-3.5996,-3.5996,-3.5996,-3.5957,-3.5957,-3.5934,-3.5876,-3.5934,-3.5967,-3.5992,-3.6536,0.0,0.0,-3.8652,-3.9062,-3.9434,-3.9961,-3.9746,-3.9178,-3.9624,-3.9233,-3.8382,-3.7732,-3.7068,-3.6386,-3.5757,-3.5545,-3.5545,-3.5526,-3.5493,-3.5493,-3.5493,-3.5493,-3.5493,-3.5493,-3.5493,-3.5493,-3.5493,-3.5238,-3.5084,-3.543,-3.5238,-3.5084,-3.543,-3.5218,-3.4872,-3.4526,-3.3333,-3.2295,-3.1968,-3.1064,-3.0398,-3.0398,-3.0182,-2.9675,-2.8888,-2.7703,-2.665,-2.5918,-2.5405,-2.5163,-2.5284,-2.5303,-2.5253,-2.5111,-2.5243,-2.5234,-2.5111,-2.5096,-2.4987,-2.4804,-2.4639,-2.4445,-2.419,-2.419,-2.419,-2.2714,-2.4671,-2.6068,-2.4854,-2.3364,-2.1634,0.0,0.0,-1.5435,-1.4351,-1.4163,-1.4411,-1.5138,-1.556,-1.6278,-1.7711,-1.8021,-1.8801,-2.0861,-2.2758,-2.5055,0.0,0.0,-3.2654,0.0,0.0,0.0,0.0,0.0,0.0,0.0,-3.6087,-3.5723,-3.5996,-3.5996,-3.5996,-3.5996,-3.5996,-3.5996,-3.5996,-3.5996,-3.5996,-3.5996,-3.5996,-3.5996,-3.6035,0.0,0.0,0.0,-3.8769,-3.9121,-3.9219,-4.0098,-3.9687,-3.8668,-3.915,-3.8786,-3.7943,-3.7165,-3.6727,-3.6386,-3.5718,-3.5493,-3.5493,-3.5493,-3.5493,-3.5493,-3.5493,-3.5493,-3.5493,-3.5493,-3.5493,-3.5493,-3.5493,-3.5493,-3.5493,-3.5493,-3.5493,-3.5493,-3.5493,-3.5493,-3.543,-3.5161,-3.4103,-3.3199,-3.2949,-3.1698,-3.0751,-3.0682,-3.0214,-2.9665,-2.9033,-2.8024,-2.705,-2.6219,-2.5633,-2.5272,-2.5203,-2.5171,-2.5118,-2.5088,-2.5163,-2.5163,-2.5088,-2.5118,-2.5043,-2.4804,-2.4685,-2.4478,-2.419,-2.419,-2.419,-1.9468,-2.1635,-2.3475,-2.2888,-2.1651,-2.017,0.0,-1.6712,-1.5145,-1.4193,-1.369,-1.365,-1.4394,-1.5383,-1.6361,-1.7185,-1.8356,0.0,-2.0474,-2.2173,-2.3765,0.0,0.0,-2.8668,0.0,0.0,0.0,0.0,0.0,0.0,0.0,-3.5139,-3.5117,-3.5976,-3.5996,-3.5996,-3.5996,-3.5996,-3.5996,-3.5996,-3.5996,-3.5996,-3.5996,-3.5996,-3.5996,0.0,0.0,0.0,0.0,-3.6973,-3.7324,-3.7402,-3.8281,-3.8613,-3.8571,-3.8461,-3.7891,-3.7184,-3.6972,-3.6329,-3.5603,-3.5526,-3.5493,-3.5493,-3.5493,-3.5493,-3.5493,-3.5493,-3.5493,-3.5493,-3.5493,-3.5493,-3.5493,-3.5493,-3.5493,-3.5493,-3.5493,-3.5493,-3.5493,-3.5493,-3.5493,-3.5238,-3.4353,-3.4199,-3.3891,-3.3026,-3.2218,-3.1578,-3.1321,-3.0376,-2.9625,-2.9414,-2.8442,-2.7298,-2.6105,-2.5985,-2.5697,-2.5037,-2.4883,-2.4949,-2.5274,-2.5099,-2.5099,-2.5284,-2.4962,-2.4804,-2.4804,-2.441,-2.419,-2.419,-2.419,-2.419,-1.7243,-1.8578,-1.942,-1.8948,-1.8284,-1.7455,-1.6133,-1.5206,-1.4446,-1.3728,-1.3565,-1.3781,-1.4555,-1.4733,-1.5373,-1.7271,-1.7599,0.0,0.0,0.0,0.0,-2.571,-2.9104,0.0,0.0,0.0,0.0,0.0,0.0,0.0,0.0,-3.4277,-3.4219,-3.5078,-3.4531,-3.4512,-3.5117,-3.5117,-3.541,-3.5996,-3.5996,-3.5996,-3.5996,-3.5996,0.0,0.0,0.0,0.0,0.0,-3.7832,-3.7832,-3.7383,-3.8262,-3.7851,-3.6803,-3.7268,-3.6886,-3.6098,-3.5982,-3.5372,-3.4641,-3.4622,-3.4218,-3.3718,-3.3718,-3.4141,-3.4603,-3.4603,-3.5045,-3.5493,-3.5493,-3.5493,-3.5493,-3.5493,-3.5493,-3.5493,-3.5493,-3.5493,-3.5493,-3.5493,-3.5493,-3.5411,-3.5141,-3.4584,-3.4103,-3.3833,-3.2602,-3.1674,-3.1584,-3.0475,-2.9678,-2.9626,-2.9008,-2.8304,-2.7494,-2.6429,-2.5764,-2.5697,-2.512,-2.479,-2.4756,-2.4809,-2.4896,-2.4968,-2.4842,-2.4804,-2.4804,-2.4526,-2.4321,-2.419,-2.419,-2.419,-1.5164,-1.6099,-1.6563,-1.6288,-1.5809,-1.5225,-1.4545,-1.4147,-1.385,-1.3548,-1.3589,-1.3852,-1.4354,-1.457,-1.5153,-1.6627,-1.7256,0.0,0.0,0.0,0.0,-2.5286,0.0,0.0,0.0,0.0,0.0,0.0,0.0,0.0,0.0,-3.3406,-3.3203,-3.373,-3.3516,-3.3652,-3.4199,-3.4219,-3.4473,-3.5019,-3.5019,-3.5195,-3.5508,-3.5508,0.0,0.0,0.0,0.0,0.0,-3.7402,-3.7305,-3.6855,-3.7402,-3.6902,-3.5938,-3.6366,-3.6118,-3.5603,-3.5526,-3.493,-3.4199,-3.4199,-3.3603,-3.2891,-3.2891,-3.3506,-3.4257,-3.4603,-3.5084,-3.5493,-3.5493,-3.5493,-3.5493,-3.5493,-3.5493,-3.5493,-3.5493,-3.5493,-3.5493,-3.5493,-3.5493,-3.5493,-3.5493,-3.5045,-3.468,-3.468,-3.3526,-3.25,-3.2089,-3.1013,-3.0156,-2.9732,-2.9375,-2.9,-2.8628,-2.7026,-2.5875,-2.5461,-2.4888,-2.4594,-2.4607,-2.4654,-2.4731,-2.4804,-2.4731,-2.4685,-2.4685,-2.4478,-2.4321,-2.419,-2.419,-2.4355,0.0,-1.4197,-1.4727,-1.4727,-1.4124,-1.3578,-1.3654,-1.3499,0.0,-1.3569,-1.3726,-1.3865,-1.3998,-1.4849,-1.5564,-1.5618,-1.7244,0.0,0.0,-2.0896,0.0,0.0,0.0,0.0,0.0,0.0,0.0,0.0,0.0,0.0,0.0,-3.2559,-3.2109,-3.2109,-3.2773,-3.3184,-3.3301,-3.3301,-3.334,-3.3398,-3.3398,-3.3828,-3.4609,-3.4668,0.0,0.0,0.0,0.0,0.0,-3.5996,-3.5996,-3.5996,-3.5995,-3.595,-3.5874,-3.5751,-3.5661,-3.5584,-3.5449,-3.4834,-3.4083,-3.3968,-3.3372,-3.2737,-3.2852,-3.3506,-3.4372,-3.518,-3.5449,-3.5493,-3.5493,-3.5493,-3.5493,-3.5493,-3.5493,-3.546,-3.546,-3.5446,-3.5446,-3.5479,-3.546,-3.546,-3.5397,-3.5411,-3.5391,-3.5334,-3.4622,-3.3722,-3.2684,-3.1817,-3.0887,-2.9823,-2.9532,-2.9375,-2.9319,-2.7645,-2.6035,-2.474,-2.4377,-2.4357,-2.4746,-2.4575,-2.4559,-2.4775,-2.461,-2.4495,-2.4478,-2.4284,-2.419,-2.419,-2.4263,-2.4685,-1.2249,0.0,-1.2954,-1.3099,-1.3059,-1.3059,0.0,-1.3464,-1.3569,0.0,0.0,0.0,0.0,-1.5088,-1.539,-1.6668,0.0,0.0,-1.9715,0.0,0.0,0.0,0.0,0.0,0.0,0.0,0.0,0.0,0.0,0.0,0.0,-3.168,-3.1211,-3.1211,-3.0742,-3.1133,-3.2461,-3.248,-3.2793,-3.3398,-3.3398,-3.3516,-3.373,-3.4394,0.0,0.0,0.0,0.0,-3.5996,-3.5996,-3.5996,-3.5995,-3.5939,-3.5844,-3.5745,-3.5637,-3.5584,-3.543,-3.4737,-3.393,-3.2987,-3.1718,-3.116,-3.1237,-3.2506,-3.3506,-3.4237,-3.4449,-3.4988,-3.5493,-3.5493,-3.5493,-3.5493,-3.5493,-3.5335,-3.519,-3.519,-3.5016,-3.4944,-3.5138,-3.519,-3.5063,-3.4595,-3.4507,-3.4276,-3.3603,-3.3333,-3.2897,-3.2013,-3.1546,-3.0952,-3.0034,-2.9626,-2.9133,-2.8463,-2.7294,-2.6468,-2.6125,-2.4908,-2.4247,-2.4339,-2.4303,-2.4357,-2.4578,-2.4528,-2.4409,-2.4266,-2.4228,-2.419,-2.4208,-2.4814,-2.5219,-1.1671,-1.1955,-1.2015,-1.2183,-1.24,-1.264,-1.2933,-1.342,0.0,0.0,0.0,0.0,0.0,0.0,0.0,0.0,-1.8221,0.0,0.0,0.0,0.0,0.0,0.0,0.0,0.0,0.0,0.0,0.0,0.0,0.0,0.0,-2.9961,-2.9707,-2.9707,-2.9258,-2.9844,-3.1582,-3.1211,-3.1426,-3.2246,-3.2246,-3.2461,-3.2871,-3.334,-3.3965,0.0,0.0,0.0,-3.5996,-3.5996,-3.5977,-3.5956,-3.5898,-3.5797,-3.5649,-3.5612,-3.5565,-3.543,-3.4968,-3.3968,-3.2622,-3.0948,-3.0398,-3.0629,-3.1948,-3.2929,-3.3776,-3.4564,-3.5141,-3.5493,-3.5493,-3.5493,-3.5479,-3.5354,-3.5207,-3.507,-3.4944,-3.4793,-3.4621,-3.4357,-3.4318,-3.4141,-3.3561,-3.3364,-3.3161,-3.2809,-3.2656,-3.232,-3.1607,-3.131,-3.0874,-3.0075,-2.9625,-2.9208,-2.8742,-2.7405,-2.6447,-2.6062,-2.4887,-2.419,-2.419,-2.419,-2.4266,-2.4357,-2.4357,-2.4303,-2.419,-2.419,-2.419,-2.4208,-2.5035,-2.5605,-1.143,-1.1708,-1.1726,-1.186,-1.22,-1.2577,-1.2777,0.0,0.0,0.0,0.0,0.0,0.0,-1.6328,0.0,0.0,0.0,0.0,-2.2851,-2.3851,0.0,0.0,0.0,0.0,0.0,0.0,0.0,0.0,0.0,0.0,0.0,-2.8301,-2.8301,-2.8301,-2.8164,-2.8867,-3.0488,-2.9766,-2.9844,-3.0703,-3.0703,-3.1152,-3.2012,-3.2148,-3.2969,0.0,0.0,0.0,-3.5605,-3.5605,-3.5563,-3.5501,-3.5501,-3.5449,-3.5411,-3.5391,-3.5353,-3.5257,-3.5007,-3.3872,-3.2275,-3.0871,-3.0398,-3.0552,-3.1392,-3.2122,-3.2987,-3.4553,-3.5206,-3.5432,-3.5432,-3.5302,-3.5109,-3.4895,-3.4731,-3.4527,-3.4317,-3.4235,-3.3989,-3.3278,-3.3165,-3.2997,-3.2447,-3.2176,-3.2049,-3.214,-3.2081,-3.1784,-3.1134,-3.1023,-3.0726,-3.0034,-2.9607,-2.9412,-2.9412,-2.7793,-2.6447,-2.5621,-2.4704,-2.419,-2.419,-2.419,-2.419,-2.419,-2.419,-2.419,-2.419,-2.419,-2.419,-2.4226,-2.5144,-2.5952,-1.1417,-1.1926,-1.2133,-1.2263,-1.2936,-1.3616,-1.3819,0.0,0.0,0.0,0.0,0.0,0.0,-1.6755,-1.6984,0.0,0.0,0.0,0.0,0.0,0.0,0.0,0.0,0.0,0.0,0.0,0.0,0.0,0.0,0.0,0.0,-2.8301,-2.8301,-2.8301,-2.7578,-2.7676,-2.8691,-2.8574,-2.8945,-2.9805,-2.9805,-3.0254,-3.1113,-3.1855,-3.2344,0.0,0.0,-3.3672,-3.3809,-3.3809,-3.3756,-3.3685,-3.3647,-3.3981,-3.4487,-3.443,-3.441,-3.4199,-3.2776,-3.1641,-3.0725,-3.0475,-3.0398,-3.0508,-3.1183,-3.1465,-3.1722,-3.2495,-3.3894,-3.5155,-3.5155,-3.4464,-3.3695,-3.3658,-3.2955,-3.2302,-3.2241,-3.2057,-3.1922,-3.2048,-3.2054,-3.1875,-3.1334,-3.1201,-3.0957,-3.0256,-3.073,-3.0881,-3.0048,-3.056,-3.0692,-2.9842,-2.9551,-2.9412,-2.9412,-2.831,-2.7273,-2.6465,-2.5016,-2.419,-2.419,-2.419,-2.419,-2.419,-2.419,-2.419,-2.419,-2.419,-2.419,-2.4245,-2.5713,-2.6484,-1.0611,-1.1053,-1.1313,-1.1877,-1.2912,-1.3987,-1.4747,0.0,0.0,0.0,0.0,0.0,0.0,0.0,-1.986,-2.2008,0.0,0.0,0.0,0.0,0.0,0.0,0.0,0.0,0.0,0.0,0.0,0.0,0.0,0.0,0.0,0.0,-2.6894,-2.6894,-2.6504,-2.6484,-2.6894,-2.6894,-2.7578,-2.8906,-2.8906,-2.9101,-2.9512,-3.0391,-3.1055,-3.1543,0.0,-3.299,-3.3349,-3.3349,-3.3283,-3.3191,-3.3166,-3.3308,-3.3545,-3.3506,-3.3506,-3.3333,-3.2122,-3.1448,-3.1001,-3.0375,-3.0177,-3.0213,-3.0383,-3.0772,-3.1191,-3.1484,-3.2521,-3.3521,-3.3521,-3.3146,-3.2732,-3.2575,-3.215,-3.1778,-3.1617,-3.1489,-3.1305,-3.1011,-3.0942,-3.0772,-3.0224,-3.0015,-2.9824,-2.9589,-2.9752,-2.9824,-2.957,-2.9752,-2.9826,-2.957,-2.9332,-2.9181,-2.9181,-2.8334,-2.7273,-2.6025,-2.485,-2.419,-2.419,-2.419,-2.4392,-2.4832,-2.4832,-2.5052,-2.5493,-2.5493,-2.5493,-2.5511,-2.6264,-2.6612,-1.0137,-1.0389,-1.0638,-1.1908,0.0,0.0,0.0,0.0,0.0,0.0,0.0,0.0,0.0,-1.9567,0.0,-2.4091,0.0,0.0,0.0,0.0,0.0,0.0,0.0,0.0,0.0,0.0,0.0,0.0,0.0,0.0,0.0,0.0,-2.5703,-2.5703,-2.5703,-2.5703,-2.5703,-2.5703,-2.6465,-2.8008,-2.8008,-2.8105,-2.832,-2.8984,-2.9668,-3.0332,-3.0987,-3.1571,-3.2097,-3.2097,-3.2131,-3.2204,-3.2204,-3.2365,-3.2622,-3.2622,-3.2622,-3.2506,-3.1679,-3.1347,-3.1162,-3.0285,-2.9969,-2.9893,-2.9696,-3.0113,-3.0622,-3.0547,-3.0979,-3.1543,-3.1977,-3.192,-3.167,-3.1458,-3.1284,-3.1088,-3.0864,-3.0834,-3.065,-3.0044,-2.9934,-2.9784,-2.9379,-2.9134,-2.9067,-2.9267,-2.9134,-2.9067,-2.9289,-2.9134,-2.9067,-2.9289,-2.9134,-2.8994,-2.8994,-2.8099,-2.6979,-2.575,-2.4924,-2.4392,-2.4208,-2.419,-2.4575,-2.5384,-2.5403,-2.5786,-2.6612,-2.6612,-2.6612,-2.6612,-2.6612,-2.6704,-1.0762,-1.086,-1.1028,-1.3263,-1.3431,0.0,-1.6082,-1.673,0.0,-1.9076,0.0,0.0,0.0,-2.0787,-2.1554,-2.1735,0.0,0.0,0.0,0.0,0.0,0.0,0.0,0.0,0.0,0.0,0.0,0.0,0.0,0.0,0.0,0.0,0.0,-2.5703,-2.5703,-2.5703,-2.5703,-2.5703,-2.6172,-2.709,-2.709,-2.7519,-2.8301,-2.8359,-2.8437,-2.8495,-2.8502,-2.8521,-2.856,-2.8499,-2.8863,-2.9478,-2.9478,-3.0429,-3.1795,-3.1795,-3.1795,-3.166,-3.0794,-3.0318,-3.0123,-3.0032,-2.9877,-2.9678,-2.9474,-2.947,-2.9467,-2.9208,-2.9195,-2.9632,-3.1387,-3.1084,-3.0336,-3.0331,-2.9738,-2.9205,-2.9182,-2.9159,-2.914,-2.9085,-2.9085,-2.9072,-2.904,-2.9017,-2.9017,-2.904,-2.9017,-2.9017,-2.904,-2.9017,-2.9017,-2.904,-2.9017,-2.8994,-2.8994,-2.7585,-2.6649,-2.6521,-2.575,-2.498,-2.4226,-2.419,-2.4575,-2.5384,-2.5403,-2.5786,-2.6612,-2.6612,-2.6612,-2.6612,-2.6612,-2.6998,-0.9623,-1.0151,-1.0747,-1.2052,-1.2652,0.0,0.0,-1.7251,-1.7912,-1.8155,-1.9903,0.0,0.0,0.0,-2.2312,0.0,0.0,0.0,0.0,0.0,0.0,0.0,0.0,0.0,0.0,0.0,0.0,0.0,0.0,0.0,0.0,0.0,0.0,-2.4883,-2.4883,-2.4883,-2.4883,-2.543,-2.5879,-2.6191,-2.6191,-2.6367,-2.6699,-2.7246,-2.7462,-2.7466,-2.7978,-2.8145,-2.8067,-2.8046,-2.817,-2.8429,-2.894,-2.9525,-3.014,-3.0698,-3.0891,-3.0852,-3.0513,-3.0222,-2.9984,-2.9861,-2.9678,-2.9474,-2.9225,-2.9156,-2.9134,-2.904,-2.8994,-2.9168,-2.9876,-2.9752,-2.9457,-2.9457,-2.9237,-2.8994,-2.8994,-2.8994,-2.8994,-2.8994,-2.8994,-2.8994,-2.8994,-2.8994,-2.8994,-2.8994,-2.8994,-2.8994,-2.8994,-2.8994,-2.8994,-2.8994,-2.8994,-2.8792,-2.8301,-2.7695,-2.7126,-2.6631,-2.5383,-2.474,-2.4944,-2.4962,-2.5548,-2.6869,-2.6888,-2.7291,-2.8077,-2.8077,-2.8077,-2.8081,-2.7585,-2.7512,-0.9402,-0.9834,-1.0383,-1.1808,0.0,0.0,-1.6038,-1.7688,-1.8796,-1.9174,-2.0998,-2.222,-2.1352,0.0,0.0,0.0,0.0,0.0,0.0,0.0,0.0,0.0,0.0,0.0,0.0,0.0,0.0,0.0,0.0,0.0,0.0,0.0,0.0,0.0,-2.4004,-2.4121,-2.4394,-2.4715,-2.5147,-2.5665,-2.5393,-2.5406,-2.5723,-2.631,-2.6537,-2.6516,-2.7094,-2.7258,-2.7169,-2.715,-2.7285,-2.7563,-2.839,-2.8871,-2.914,-2.9486,-2.9775,-2.9975,-2.9927,-2.9707,-2.9516,-2.9567,-2.9455,-2.9209,-2.8732,-2.8631,-2.8576,-2.8297,-2.8448,-2.8631,-2.8631,-2.8815,-2.8994,-2.8994,-2.8994,-2.8994,-2.8994,-2.8994,-2.8994,-2.8994,-2.8994,-2.8994,-2.8994,-2.8994,-2.8994,-2.8994,-2.8994,-2.8994,-2.8994,-2.8994,-2.8994,-2.8994,-2.8994,-2.8686,-2.786,-2.7787,-2.7457,-2.6649,-2.5566,-2.5199,-2.575,-2.5531,-2.6174,-2.7769,-2.7787,-2.8191,-2.8994,-2.8994,-2.8994,-2.8975,-2.8172,-2.7934,-1.0494,-1.0168,-1.0037,-1.3035,0.0,0.0,-1.6038,-1.7998,-2.0098,-2.291,-2.295,-2.2201,-2.1352,0.0,0.0,0.0,0.0,0.0,0.0,0.0,0.0,0.0,0.0,0.0,0.0,0.0,0.0,0.0,0.0,0.0,0.0,0.0,0.0,0.0,-2.3125,-2.3496,-2.4375,-2.3528,-2.3942,-2.5592,-2.473,-2.4801,-2.5703,-2.5635,-2.5601,-2.5582,-2.5466,-2.5409,-2.539,-2.5322,-2.5813,-2.6678,-2.7544,-2.8371,-2.8967,-2.8179,-2.839,-2.9041,-2.8848,-2.8609,-2.8495,-2.9175,-2.9185,-2.8851,-2.8026,-2.7787,-2.7622,-2.6833,-2.7163,-2.7787,-2.7787,-2.8393,-2.8975,-2.8994,-2.8994,-2.8994,-2.8994,-2.8975,-2.8975,-2.8994,-2.8975,-2.8975,-2.8994,-2.8994,-2.8994,-2.8994,-2.8994,-2.8994,-2.8975,-2.8975,-2.8975,-2.8975,-2.8975,-2.8668,-2.786,-2.7769,-2.7438,-2.6649,-2.6594,-2.6612,-2.6612,-2.5841,-2.6193,-2.7769,-2.7805,-2.8209,-2.8994,-2.8994,-2.8994,-2.8975,-2.8172,-2.8246,-0.9155,-1.0099,-1.1076,-1.2079,0.0,0.0,0.0,-1.8265,0.0,0.0,-2.1695,-2.066,-2.0391,0.0,0.0,0.0,0.0,0.0,0.0,0.0,0.0,0.0,0.0,0.0,0.0,0.0,0.0,0.0,0.0,0.0,0.0,0.0,0.0,0.0,-2.2266,-2.2367,-2.2574,-2.3485,-2.4187,-2.4696,-2.5009,-2.5292,-2.5558,-2.5546,-2.5507,-2.5466,-2.5428,-2.537,-2.5322,-2.5303,-2.5437,-2.5764,-2.6659,-2.7048,-2.7185,-2.7548,-2.7752,-2.7832,-2.7774,-2.7565,-2.738,-2.7587,-2.7874,-2.8007,-2.72,-2.7346,-2.7622,-2.6833,-2.6778,-2.6961,-2.6961,-2.7548,-2.8301,-2.8888,-2.8994,-2.8994,-2.8994,-2.8558,-2.8319,-2.8906,-2.8539,-2.8338,-2.8883,-2.8994,-2.8994,-2.8994,-2.8994,-2.8815,-2.8227,-2.7658,-2.753,-2.8099,-2.7658,-2.7218,-2.6979,-2.6429,-2.6027,-2.5768,-2.575,-2.6245,-2.7402,-2.72,-2.7585,-2.8631,-2.865,-2.8778,-2.8994,-2.8994,-2.8994,-2.8975,-2.8778,-2.8778,-0.8711,-0.9899,0.0,-1.1852,-1.3561,-1.5471,-1.6809,0.0,0.0,0.0,0.0,-2.0498,-2.0575,0.0,0.0,0.0,0.0,0.0,0.0,0.0,0.0,0.0,0.0,0.0,0.0,0.0,0.0,0.0,0.0,0.0,0.0,0.0,0.0,0.0,-2.1387,-2.1681,-2.2312,-2.2602,-2.3419,-2.4725,-2.4533,-2.4778,-2.5415,-2.5453,-2.5445,-2.5409,-2.537,-2.5341,-2.5303,-2.5303,-2.5303,-2.5341,-2.5789,-2.6106,-2.6314,-2.6453,-2.6603,-2.6783,-2.6688,-2.6555,-2.6451,-2.6692,-2.7034,-2.7163,-2.6374,-2.6447,-2.6667,-2.5878,-2.5878,-2.6117,-2.6117,-2.6722,-2.7457,-2.7934,-2.8301,-2.8448,-2.8113,-2.7677,-2.7475,-2.7952,-2.7658,-2.7475,-2.797,-2.8062,-2.8062,-2.8062,-2.8062,-2.7879,-2.7383,-2.6906,-2.6796,-2.7273,-2.7181,-2.6961,-2.6631,-2.6741,-2.6686,-2.6355,-2.6649,-2.7273,-2.8246,-2.797,-2.8172,-2.8975,-2.8994,-2.8994,-2.8994,-2.8994,-2.8994,-2.8994,-2.8994,-2.8994,-0.8801,-0.9539,-1.0429,-1.2013,-1.3369,0.0,-1.6809,-1.9013,-2.097,-2.2043,0.0,-2.1061,-2.1344,0.0,0.0,0.0,0.0,0.0,0.0,0.0,0.0,0.0,0.0,0.0,0.0,0.0,0.0,0.0,0.0,0.0,0.0,0.0,0.0,-2.0605,-2.0605,-2.1327,-2.2842,-2.1304,-2.2043,0.0,-2.3524,-2.3639,-2.5187,-2.5332,-2.539,-2.539,-2.5322,-2.5303,-2.5303,-2.5303,-2.5303,-2.5274,-2.5088,-2.5475,-2.6047,-2.5111,-2.5213,-2.5822,-2.5629,-2.5559,-2.5653,-2.6197,-2.6429,-2.6337,-2.5529,-2.5348,-2.5237,-2.4428,-2.4722,-2.5293,-2.5293,-2.5878,-2.6465,-2.641,-2.7053,-2.7493,-2.6759,-2.6539,-2.6521,-2.6594,-2.6539,-2.6521,-2.6594,-2.6612,-2.6612,-2.6612,-2.6539,-2.6502,-2.6502,-2.6429,-2.641,-2.6484,-2.7071,-2.7236,-2.6649,-2.7879,-2.8393,-2.7732,-2.8448,-2.8906,-2.8906,-2.8264,-2.8246,-2.8975,-2.8994,-2.8994,-2.8994,-2.8994,-2.8994,-2.8994,-2.8994,-2.8994,-0.7782,-0.8804,0.0,-1.1304,-1.3401,-1.5456,-1.6638,-1.7524,-1.842,-1.9537,-1.9532,-1.9573,0.0,0.0,0.0,0.0,0.0,0.0,0.0,0.0,0.0,0.0,0.0,0.0,0.0,0.0,0.0,0.0,0.0,0.0,0.0,0.0,0.0,-2.0605,-2.0605,-2.0759,-2.1052,-2.1301,-2.1765,0.0,-2.2686,-2.3351,-2.4379,-2.5024,-2.5322,-2.5322,-2.5303,-2.5303,-2.5303,-2.5303,-2.5303,-2.5274,-2.5088,-2.5038,-2.5092,-2.4695,-2.4572,-2.458,-2.4524,-2.4523,-2.4542,-2.4668,-2.5144,-2.5493,-2.4685,-2.4887,-2.5237,-2.4428,-2.4318,-2.4447,-2.4447,-2.5052,-2.5493,-2.4869,-2.5805,-2.6814,-2.6649,-2.6098,-2.5841,-2.6484,-2.608,-2.586,-2.6502,-2.6612,-2.6612,-2.6612,-2.6062,-2.5658,-2.5658,-2.5107,-2.4961,-2.5585,-2.5236,-2.5419,-2.6521,-2.6337,-2.6374,-2.6833,-2.7603,-2.8062,-2.8062,-2.8503,-2.881,-2.8994,-2.8994,-2.8994,-2.8994,-2.8994,-2.8994,-2.8994,-2.8994,-2.8994,-0.7057,-0.8154,0.0,-1.1028,0.0,-1.4345,-1.506,-1.571,-1.6459,-1.7493,-1.8007,0.0,0.0,0.0,0.0,0.0,0.0,0.0,0.0,0.0,0.0,0.0,0.0,0.0,0.0,0.0,0.0,0.0,0.0,0.0,0.0,-2.0605,-2.0605,-2.0605,-2.0605,-2.0779,-2.1115,-2.109,-2.1461,-2.2222,-2.2186,-2.262,-2.3514,-2.4332,-2.4505,-2.4101,-2.4101,-2.4101,-2.4139,-2.4543,-2.4677,-2.4605,-2.4816,-2.4795,-2.4623,-2.4426,-2.4284,-2.419,-2.419,-2.419,-2.419,-2.419,-2.4483,-2.474,-2.4318,-2.4483,-2.474,-2.4318,-2.419,-2.419,-2.419,-2.4502,-2.4704,-2.43,-2.5126,-2.5915,-2.5529,-2.5107,-2.4942,-2.5364,-2.5107,-2.4961,-2.5383,-2.5456,-2.5456,-2.5456,-2.5089,-2.4814,-2.4814,-2.4447,-2.4355,-2.4777,-2.5144,-2.5695,-2.6539,-2.6924,-2.731,-2.7732,-2.8154,-2.8374,-2.8374,-2.8796,-2.8994,-2.8994,-2.8994,-2.8994,-2.8994,-2.8994,-2.8994,-2.8994,-2.8994,-2.8994,-0.6419,-0.7594,-0.908,-1.0582,-1.1797,0.0,-1.3286,-1.4073,-1.4947,-1.5887,-1.6711,0.0,0.0,0.0,0.0,0.0,0.0,0.0,0.0,0.0,0.0,0.0,0.0,0.0,0.0,0.0,0.0,0.0,0.0,0.0,-2.0586,-2.0605,-2.0605,-2.0605,-2.0603,-2.0837,-2.1355,-2.0718,-2.1025,-2.2241,-2.1743,-2.1793,-2.2389,-2.3263,-2.334,-2.2793,-2.2793,-2.2793,-2.2851,-2.359,-2.385,-2.385,-2.4369,-2.4538,-2.4478,-2.4266,-2.419,-2.419,-2.419,-2.419,-2.419,-2.419,-2.419,-2.419,-2.419,-2.419,-2.419,-2.419,-2.419,-2.419,-2.419,-2.419,-2.419,-2.419,-2.4704,-2.5017,-2.4337,-2.419,-2.419,-2.419,-2.419,-2.419,-2.419,-2.419,-2.419,-2.419,-2.419,-2.419,-2.419,-2.419,-2.419,-2.419,-2.5383,-2.63,-2.6594,-2.7824,-2.87,-2.8975,-2.8994,-2.8994,-2.8994,-2.8994,-2.8994,-2.8994,-2.8994,-2.8994,-2.8994,-2.8994,-2.8994,-2.8994,-2.8929,-2.8905,-0.5649,0.0,-0.8863,0.0,-1.0505,-1.1985,0.0,0.0,-1.4035,0.0,0.0,0.0,0.0,0.0,0.0,0.0,0.0,0.0,0.0,0.0,0.0,0.0,0.0,0.0,0.0,0.0,0.0,0.0,0.0,0.0,-2.0605,-2.0605,-2.0605,-2.0605,-2.0607,-2.0269,-1.9558,-2.0109,-2.0138,-1.9615,-2.0889,-2.1196,-2.0658,-2.1485,-2.2197,-2.2793,-2.2793,-2.2793,-2.2812,-2.2928,-2.3294,-2.3793,-2.3712,-2.4016,-2.4478,-2.4266,-2.419,-2.419,-2.419,-2.419,-2.419,-2.419,-2.419,-2.419,-2.419,-2.419,-2.419,-2.419,-2.419,-2.419,-2.419,-2.419,-2.419,-2.419,-2.4281,-2.4318,-2.4226,-2.419,-2.419,-2.419,-2.419,-2.419,-2.419,-2.419,-2.419,-2.419,-2.419,-2.419,-2.419,-2.419,-2.419,-2.419,-2.4392,-2.5089,-2.6484,-2.6814,-2.753,-2.8902,-2.8994,-2.8994,-2.8994,-2.8994,-2.8994,-2.8994,-2.8994,-2.8994,-2.8994,-2.8994,-2.8994,-2.8994,-2.8633,-2.8471,-0.5346,-0.648,-0.7584,0.0,-0.9384,-1.0475,-1.1338,-1.2604,-1.3724,-1.4122,0.0,0.0,0.0,0.0,0.0,0.0,0.0,0.0,0.0,0.0,0.0,0.0,0.0,0.0,0.0,0.0,0.0,0.0,0.0,-2.0484,-2.0586,-2.0605,-2.0605,-2.0605,-2.0138,-1.9657,-1.9206,-1.9065,-1.9018,-1.9049,-2.0254,-2.0639,-2.0312,-2.0677,-2.1043,-2.1408,-2.1408,-2.1408,-2.1419,-2.1799,-2.2329,-2.2931,-2.3257,-2.3768,-2.4321,-2.4228,-2.419,-2.419,-2.419,-2.419,-2.419,-2.419,-2.419,-2.419,-2.419,-2.419,-2.419,-2.419,-2.419,-2.419,-2.419,-2.419,-2.419,-2.419,-2.419,-2.419,-2.419,-2.419,-2.419,-2.419,-2.419,-2.419,-2.419,-2.419,-2.419,-2.419,-2.419,-2.419,-2.419,-2.419,-2.419,-2.419,-2.5016,-2.5841,-2.6539,-2.7438,-2.8137,-2.8646,-2.8658,-2.8583,-2.8404,-2.836,-2.836,-2.836,-2.8791,-2.8994,-2.8994,-2.8994,-2.8887,-2.8658,-2.8471,-2.8316,0.0,0.0,-0.6386,-0.7431,-0.8286,-0.9095,0.0,0.0,-1.2795,0.0,0.0,0.0,0.0,0.0,0.0,0.0,0.0,0.0,0.0,0.0,0.0,0.0,0.0,0.0,0.0,0.0,0.0,0.0,0.0,-2.0486,-2.0586,-2.0605,-2.0605,-2.0605,-1.9743,-1.9168,-1.8871,-1.7984,-1.8031,-1.9011,-1.9658,-2.01,-2.0312,-2.0312,-2.0312,-2.0312,-2.0312,-2.0277,-2.0263,-2.0747,-2.1331,-2.192,-2.2678,-2.3339,-2.3914,-2.4116,-2.419,-2.419,-2.419,-2.419,-2.419,-2.419,-2.419,-2.419,-2.419,-2.419,-2.419,-2.419,-2.419,-2.419,-2.419,-2.419,-2.419,-2.419,-2.419,-2.419,-2.419,-2.419,-2.419,-2.419,-2.419,-2.419,-2.419,-2.419,-2.419,-2.419,-2.419,-2.419,-2.419,-2.419,-2.4281,-2.4483,-2.5585,-2.6405,-2.6743,-2.7835,-2.8482,-2.8272,-2.8272,-2.8156,-2.7897,-2.7897,-2.7897,-2.7897,-2.843,-2.8767,-2.8839,-2.8767,-2.8608,-2.8394,-2.8219,-2.8081,0.0,-0.479,0.0,-0.6207,-0.7142,-0.8238,0.0,0.0,0.0,0.0,0.0,0.0,0.0,0.0,0.0,0.0,0.0,0.0,0.0,0.0,0.0,0.0,0.0,0.0,0.0,0.0,0.0,0.0,0.0,-2.0527,-2.0605,-2.0605,-2.0605,-2.0605,-1.9746,-1.8863,-1.7984,-1.7034,-1.7388,-1.8996,-1.9042,-1.9511,-2.0312,-2.0312,-2.0312,-2.0312,-2.0312,-2.0197,-2.0022,-2.005,-2.0384,-2.0956,-2.1745,-2.249,-2.3162,-2.3914,-2.419,-2.419,-2.419,-2.419,-2.419,-2.419,-2.419,-2.419,-2.419,-2.419,-2.419,-2.419,-2.419,-2.419,-2.419,-2.419,-2.419,-2.419,-2.419,-2.419,-2.419,-2.419,-2.419,-2.419,-2.419,-2.419,-2.419,-2.419,-2.419,-2.419,-2.419,-2.419,-2.419,-2.419,-2.4483,-2.5274,-2.5421,-2.5938,-2.7079,-2.7254,-2.7482,-2.7901,-2.7926,-2.7926,-2.7897,-2.7897,-2.7897,-2.7897,-2.7926,-2.8102,-2.842,-2.8102,-2.8102,-2.8376,-2.7689,-2.7716,0.0,0.0,0.0,-0.5208,-0.6333,-0.739,-0.7872,-0.8875,-1.0191,0.0,0.0,0.0,0.0,0.0,0.0,0.0,0.0,0.0,0.0,0.0,0.0,0.0,0.0,0.0,0.0,0.0,0.0,0.0,0.0,0.0,-2.0605,-2.0605,-2.0605,-2.0605,-1.9758,-1.8579,-1.7074,-1.7192,-1.7568,-1.8177,-1.9292,-2.0004,-2.0312,-2.0312,-2.0312,-2.0285,-2.0161,-2.0069,-1.9993,-1.9813,-2.015,-2.0815,-2.0976,-2.1837,-2.3015,-2.3327,-2.3768,-2.419,-2.419,-2.419,-2.419,-2.419,-2.419,-2.419,-2.419,-2.419,-2.419,-2.419,-2.419,-2.419,-2.419,-2.419,-2.419,-2.419,-2.419,-2.419,-2.419,-2.419,-2.419,-2.419,-2.419,-2.419,-2.419,-2.419,-2.419,-2.419,-2.419,-2.419,-2.419,-2.419,-2.43,-2.4593,-2.5548,-2.635,-2.679,-2.7508,-2.7958,-2.7908,-2.7648,-2.7378,-2.7147,-2.7115,-2.7115,-2.7115,-2.7115,-2.7439,-2.8075,-2.7954,-2.8088,-2.8398,-2.8126,-2.8301,-0.1969,0.0,0.0,0.0,-0.5326,-0.6354,-0.674,0.0,0.0,0.0,0.0,0.0,0.0,0.0,0.0,0.0,0.0,0.0,0.0,0.0,0.0,0.0,0.0,0.0,0.0,0.0,0.0,0.0,0.0,0.0,-2.0156,-2.0435,-2.0453,-2.0141,-1.9542,-1.8367,-1.6577,-1.7059,-1.7426,-1.7715,-1.8869,-1.9735,-2.0312,-2.0312,-2.0249,-2.0197,-2.0022,-1.9924,-1.9922,-1.9695,-1.9871,-2.03,-2.0457,-2.1181,-2.219,-2.2501,-2.3107,-2.3804,-2.3804,-2.3969,-2.419,-2.419,-2.419,-2.419,-2.419,-2.419,-2.417,-2.4074,-2.4113,-2.417,-2.4074,-2.4132,-2.419,-2.419,-2.419,-2.419,-2.419,-2.419,-2.419,-2.419,-2.419,-2.419,-2.419,-2.419,-2.419,-2.419,-2.419,-2.419,-2.419,-2.419,-2.441,-2.4942,-2.597,-2.6728,-2.7017,-2.7774,-2.8002,-2.753,-2.7241,-2.7004,-2.6725,-2.6691,-2.6691,-2.6691,-2.6691,-2.6954,-2.7517,-2.7517,-2.7809,-2.8382,-2.825,-2.8493,0.0,0.0,0.0,0.0,0.0,0.0,-0.5889,0.0,-0.709,0.0,0.0,0.0,0.0,0.0,0.0,0.0,0.0,0.0,0.0,0.0,0.0,0.0,0.0,0.0,0.0,0.0,0.0,0.0,0.0,-1.9187,-1.9258,-2.0065,-2.01,-1.9196,-1.9065,-1.8208,-1.6529,-1.651,-1.6901,-1.7702,-1.7741,-1.8638,-2.0312,-2.0285,-2.0169,-1.9984,-1.9858,-1.9778,-1.9767,-1.9662,-1.9485,-1.9381,-2.017,-2.0484,-2.0594,-2.1437,-2.2263,-2.2942,-2.296,-2.3474,-2.4116,-2.4153,-2.4153,-2.4171,-2.419,-2.419,-2.4132,-2.3795,-2.3937,-2.4113,-2.3795,-2.3937,-2.419,-2.419,-2.419,-2.419,-2.419,-2.419,-2.419,-2.419,-2.419,-2.419,-2.419,-2.419,-2.419,-2.419,-2.419,-2.419,-2.419,-2.419,-2.4814,-2.641,-2.6594,-2.6954,-2.7804,-2.7908,-2.7577,-2.6774,-2.6725,-2.6691,-2.6691,-2.6691,-2.6691,-2.6691,-2.6691,-2.6691,-2.6691,-2.6691,-2.7265,-2.8382,-2.7998,-2.8281,0.0874,0.0,0.0,0.0,0.0,0.0,-0.457,-0.5057,-0.5832,0.0,0.0,0.0,0.0,0.0,0.0,0.0,0.0,0.0,0.0,0.0,0.0,0.0,0.0,0.0,0.0,0.0,0.0,0.0,-1.7842,-1.8317,-1.8298,-1.8511,-1.8528,-1.8273,-1.758,-1.6999,-1.6503,-1.6509,-1.6907,-1.7722,-1.8337,-1.9215,-2.0304,-2.0152,-2.0041,-1.9993,-1.9762,-1.9662,-1.963,-1.9452,-1.935,-1.9308,-1.9546,-1.9987,-2.0521,-2.0776,-2.1278,-2.1862,-2.2044,-2.2155,-2.2298,-2.307,-2.3327,-2.3437,-2.4025,-2.419,-2.4132,-2.3795,-2.3774,-2.3816,-2.3714,-2.3937,-2.419,-2.419,-2.419,-2.419,-2.419,-2.419,-2.419,-2.419,-2.419,-2.419,-2.419,-2.419,-2.419,-2.419,-2.419,-2.419,-2.419,-2.419,-2.4593,-2.5603,-2.6245,-2.6933,-2.7778,-2.7861,-2.7811,-2.756,-2.7019,-2.6691,-2.6691,-2.6691,-2.6691,-2.6691,-2.6691,-2.6691,-2.6691,-2.6691,-2.7148,-2.7998,-2.8471,-2.9076,0.0,0.0,0.0,0.0,0.0,0.0,-0.3369,-0.3985,-0.5246,0.0,0.0,0.0,0.0,0.0,0.0,0.0,0.0,0.0,0.0,0.0,0.0,0.0,0.0,0.0,0.0,0.0,0.0,-1.6152,-1.6969,-1.7586,-1.7881,-1.7864,-1.7854,-1.787,-1.7292,-1.683,-1.6503,-1.6837,-1.7234,-1.7722,-1.8588,-1.9412,-2.0161,-2.0041,-1.9943,-1.9824,-1.9669,-1.9555,-1.9471,-1.935,-1.9305,-1.9305,-1.9305,-1.9583,-1.9989,-1.991,-2.0299,-2.0916,-2.0952,-2.1151,-2.155,-2.2536,-2.2685,-2.2703,-2.3841,-2.3656,-2.31,-2.3408,-2.3392,-2.3346,-2.3628,-2.3735,-2.3837,-2.4113,-2.4094,-2.4016,-2.417,-2.419,-2.419,-2.419,-2.419,-2.419,-2.419,-2.419,-2.4151,-2.4016,-2.3996,-2.3937,-2.3795,-2.3896,-2.4374,-2.5353,-2.6133,-2.6881,-2.7525,-2.7798,-2.7754,-2.7409,-2.6971,-2.6691,-2.6691,-2.6691,-2.6691,-2.6691,-2.6691,-2.6691,-2.6691,-2.6691,-2.708,-2.7806,-2.8619,-2.9042,0.0,0.0,0.0,0.0,0.0,0.0,-0.1984,-0.3111,-0.4688,-0.748,0.0,0.0,0.0,0.0,0.0,0.0,0.0,0.0,0.0,0.0,0.0,0.0,0.0,0.0,0.0,-1.4863,-1.5352,-1.5254,-1.6055,-1.6852,-1.7567,-1.7542,-1.7504,-1.7504,-1.7452,-1.708,-1.6369,-1.7151,-1.7586,-1.7682,-1.8539,-1.9309,-1.9983,-1.9954,-1.9824,-1.9614,-1.9587,-1.9471,-1.9305,-1.9305,-1.9305,-1.9305,-1.9305,-1.9289,-1.9261,-1.9069,-1.9399,-1.9956,-1.9749,-2.0273,-2.1183,-2.2014,-2.197,-2.1861,-2.3381,-2.2681,-2.1596,-2.2704,-2.2825,-2.2743,-2.3419,-2.3392,-2.3346,-2.3955,-2.3858,-2.3714,-2.4016,-2.4094,-2.4094,-2.4094,-2.4151,-2.419,-2.4151,-2.417,-2.4094,-2.3735,-2.3692,-2.3566,-2.3236,-2.3459,-2.4113,-2.5374,-2.608,-2.6724,-2.7317,-2.7648,-2.753,-2.6808,-2.6725,-2.6691,-2.6691,-2.6691,-2.6691,-2.6691,-2.6691,-2.6691,-2.6691,-2.6691,-2.708,-2.7806,-2.845,-2.8399,0.0,0.0,0.0,0.0,0.0,0.0,0.0622,-0.0841,-0.2086,0.0,0.0,0.0,0.0,0.0,0.0,0.0,0.0,0.0,0.0,0.0,0.0,0.0,0.0,0.0,0.0,-1.4766,-1.5117,-1.4414,-1.5104,-1.5648,-1.5796,-1.574,-1.5715,-1.5715,-1.5695,-1.5618,-1.5465,-1.6139,-1.6837,-1.7551,-1.8251,-1.9033,-1.9836,-1.9726,-1.9662,-1.9582,-1.9442,-1.9335,-1.9305,-1.9305,-1.9305,-1.9305,-1.9305,-1.9214,-1.9052,-1.9001,-1.8823,-1.86,-1.8776,-1.8825,-1.8991,-2.001,-2.0269,-2.0382,-2.1332,-2.1366,-2.1188,-2.175,-2.1885,-2.1982,-2.2716,-2.3045,-2.3236,-2.3369,-2.3346,-2.3323,-2.3392,-2.3392,-2.3392,-2.3392,-2.3816,-2.4113,-2.3837,-2.4016,-2.4094,-2.3735,-2.3692,-2.3566,-2.3236,-2.3277,-2.3863,-2.5331,-2.5636,-2.6268,-2.767,-2.756,-2.7348,-2.721,-2.6873,-2.6691,-2.6691,-2.6691,-2.6691,-2.6691,-2.6691,-2.6691,-2.6691,-2.6691,-2.708,-2.7772,-2.7351,-2.7385,0.0,0.0,0.0,0.1379,0.0,0.0,0.0,0.1583,0.0327,-0.044,-0.1984,0.0,0.0,0.0,0.0,0.0,0.0,0.0,0.0,0.0,0.0,0.0,0.0,0.0,0.0,-1.2285,-1.4316,-1.4727,-1.4685,-1.4842,-1.5278,-1.5234,-1.5189,-1.5189,-1.5189,-1.5171,-1.5095,-1.5853,-1.6635,-1.7406,-1.817,-1.8953,-1.9707,-1.9636,-1.9541,-1.9438,-1.9335,-1.9305,-1.9305,-1.9305,-1.9305,-1.9305,-1.9305,-1.9182,-1.8984,-1.8843,-1.8547,-1.8187,-1.8208,-1.8208,-1.835,-1.9286,-1.9429,-1.944,-2.0616,-2.0888,-2.067,-2.0343,-2.0813,-2.1507,-2.2029,-2.2435,-2.2824,-2.3135,-2.3069,-2.2996,-2.3165,-2.3189,-2.3141,-2.2996,-2.3369,-2.3649,-2.3477,-2.3588,-2.3588,-2.3236,-2.3248,-2.3129,-2.2798,-2.2865,-2.3352,-2.4351,-2.5068,-2.5825,-2.6658,-2.7078,-2.7192,-2.7019,-2.6808,-2.6691,-2.6691,-2.6691,-2.6691,-2.6691,-2.6691,-2.6691,-2.6691,-2.6691,-2.6894,-2.7249,-2.686,-2.7097,0.0,0.0,0.0,0.0,0.0,0.1422,0.0,0.0,0.0,0.0132,0.0,0.0,0.0,0.0,0.0,0.0,0.0,0.0,0.0,0.0,0.0,0.0,0.0,0.0,0.0,-0.9297,-1.2383,-1.4746,-1.4194,-1.421,-1.524,-1.5234,-1.5189,-1.5189,-1.5177,-1.5101,-1.4995,-1.5806,-1.6573,-1.7259,-1.8113,-1.8864,-1.9541,-1.9541,-1.9438,-1.9305,-1.9305,-1.9305,-1.9305,-1.9305,-1.9305,-1.9289,-1.9259,-1.9117,-1.8896,-1.8623,-1.8351,-1.8082,-1.7878,-1.7949,-1.8228,-1.8875,-1.8798,-1.8698,-1.9991,-2.0188,-1.9826,-1.9107,-1.979,-2.0866,-2.1386,-2.1797,-2.2245,-2.2873,-2.2815,-2.2686,-2.2965,-2.3038,-2.294,-2.2678,-2.284,-2.3038,-2.3093,-2.3165,-2.3093,-2.2746,-2.2755,-2.2677,-2.2338,-2.2473,-2.2811,-2.3338,-2.4549,-2.5379,-2.5573,-2.6559,-2.7051,-2.6725,-2.6691,-2.6691,-2.6691,-2.6691,-2.6691,-2.6691,-2.6691,-2.6691,-2.6691,-2.6691,-2.6691,-2.6691,-2.6843,-2.7232,0.0,0.0,0.0,0.0,-0.0702,0.0,0.0,0.0,0.0013,-0.0659,0.0,0.0,0.0,0.0,0.0,0.0,0.0,0.0,0.0,0.0,0.0,0.0,0.0,0.0,0.0,0.0,-0.7982,-1.2812,-1.2972,-1.3577,-1.522,-1.5234,-1.5189,-1.5189,-1.5088,-1.5021,-1.4995,-1.5631,-1.634,-1.7137,-1.7834,-1.8577,-1.9335,-1.9335,-1.932,-1.9305,-1.9305,-1.9305,-1.9305,-1.9305,-1.9305,-1.9274,-1.9101,-1.8878,-1.8604,-1.8351,-1.8078,-1.7856,-1.7811,-1.7833,-1.7856,-1.794,-1.7929,-1.7917,-1.8109,-1.8138,-1.8212,-1.8765,-1.9029,-1.9493,-2.0874,-2.1281,-2.1508,-2.2235,-2.2377,-2.2349,-2.2388,-2.2388,-2.2388,-2.2349,-2.2377,-2.248,-2.2712,-2.2996,-2.3093,-2.2746,-2.2695,-2.2599,-2.2338,-2.2338,-2.2638,-2.3308,-2.4126,-2.4887,-2.5541,-2.6334,-2.6758,-2.6691,-2.6691,-2.6691,-2.6691,-2.6691,-2.6691,-2.6691,-2.6691,-2.6691,-2.6691,-2.6691,-2.6691,-2.6708,-2.7385,-2.7705,0.0,0.0,0.0,0.0,0.0,0.0,0.0799,0.0,0.0189,0.0,0.0,0.0,0.0,0.0,0.0,0.0,-0.5099,0.0,0.0,0.0,0.0,0.0,0.0,0.0,0.0,0.0,0.0,0.0,0.0,-1.2839,-1.4241,-1.4258,-1.4269,-1.4373,-1.4334,-1.4472,-1.483,-1.5083,-1.5574,-1.6306,-1.7059,-1.7839,-1.8629,-1.8982,-1.9117,-1.9117,-1.8965,-1.8895,-1.8913,-1.9067,-1.9033,-1.8895,-1.8789,-1.8697,-1.8566,-1.829,-1.8035,-1.7811,-1.7811,-1.7811,-1.7811,-1.7811,-1.7811,-1.7811,-1.7811,-1.7811,-1.7856,-1.8166,-1.8572,-1.9147,-2.023,-2.0839,-2.138,-2.2124,-2.231,-2.231,-2.231,-2.231,-2.231,-2.231,-2.231,-2.2349,-2.2436,-2.2581,-2.2634,-2.249,-2.2463,-2.2426,-2.2293,-2.231,-2.2581,-2.3325,-2.3663,-2.4323,-2.5507,-2.5879,-2.6234,-2.6674,-2.6691,-2.6691,-2.6691,-2.6691,-2.6691,-2.6691,-2.6691,-2.6691,-2.6691,-2.7131,-2.7351,-2.7351,-2.7637,-2.8061,-0.4737,0.0,0.0,0.0,0.0,0.0,0.0,0.0,0.0,0.0,0.0,0.0,0.0,0.0,0.0,0.0,0.0,0.0,0.0,0.0,0.0,0.0,0.0,0.0,0.0,0.0,0.0,0.0,0.0,0.0,-0.9919,-1.1854,-1.3206,-1.3652,-1.3705,-1.4028,-1.4688,-1.4666,-1.5076,-1.5932,-1.6516,-1.7308,-1.8245,-1.8696,-1.8896,-1.8878,-1.8679,-1.8585,-1.8622,-1.8807,-1.877,-1.8585,-1.8508,-1.8489,-1.845,-1.8187,-1.7834,-1.754,-1.7743,-1.7811,-1.7811,-1.7811,-1.7811,-1.7811,-1.7811,-1.7811,-1.7811,-1.7811,-1.82,-1.8775,-1.9519,-2.0281,-2.1059,-2.182,-2.2158,-2.231,-2.231,-2.231,-2.231,-2.231,-2.231,-2.231,-2.231,-2.231,-2.231,-2.231,-2.231,-2.231,-2.231,-2.231,-2.2581,-2.3325,-2.3393,-2.4002,-2.5473,-2.5609,-2.5913,-2.664,-2.6691,-2.6691,-2.6691,-2.6691,-2.6691,-2.6691,-2.6691,-2.6691,-2.6691,-2.7249,-2.7621,-2.7806,-2.8212,-2.8755,0.0,0.0,0.0,-0.5155,0.0,0.0,0.0,0.0,-0.2559,0.0,0.0,0.0,0.0,0.0,0.0,0.0,0.0,0.0,0.0,0.0,0.0,0.0,0.0,0.0,0.0,0.0,0.0,0.0,0.0,0.0,-0.078,-0.7639,-1.223,-1.3275,-1.3432,-1.3896,-1.4688,-1.4578,-1.5158,-1.6466,-1.6502,-1.725,-1.8587,-1.8604,-1.8604,-1.8604,-1.8604,-1.8585,-1.8585,-1.8604,-1.8604,-1.8566,-1.831,-1.8208,-1.8187,-1.7905,-1.7354,-1.6851,-1.7557,-1.7811,-1.7811,-1.7811,-1.7811,-1.7811,-1.7811,-1.7811,-1.7811,-1.7811,-1.7828,-1.8014,-1.8741,-1.9486,-2.0221,-2.1025,-2.1786,-2.231,-2.231,-2.231,-2.231,-2.231,-2.231,-2.231,-2.231,-2.231,-2.231,-2.231,-2.231,-2.231,-2.231,-2.231,-2.2581,-2.3325,-2.3393,-2.4002,-2.5473,-2.5609,-2.5913,-2.664,-2.6691,-2.6691,-2.6691,-2.6691,-2.6691,-2.6691,-2.6691,-2.6691,-2.6691,-2.6725,-2.7114,-2.7823,-2.9347,-3.0057,0.0,0.0,-0.4828,-0.3842,0.0,0.0,0.0,0.0,0.0,0.0,0.0,0.0,0.0,0.0,0.0,0.0,0.0,0.0,0.0,0.0,0.0,0.0,0.0,0.0,0.0,0.0,0.0,0.0,0.0,0.0,0.0,-0.4402,-0.8437,-1.1733,-1.214,-1.292,-1.4147,-1.4131,-1.4588,-1.5516,-1.6082,-1.6867,-1.7806,-1.8165,-1.833,-1.833,-1.8146,-1.8061,-1.8082,-1.827,-1.8229,-1.8078,-1.8166,-1.8082,-1.7876,-1.7296,-1.7219,-1.7456,-1.771,-1.7811,-1.7811,-1.7811,-1.7811,-1.7811,-1.7811,-1.7811,-1.7811,-1.7811,-1.7811,-1.798,-1.8707,-1.9452,-2.0187,-2.0991,-2.1752,-2.231,-2.231,-2.231,-2.231,-2.231,-2.231,-2.231,-2.231,-2.231,-2.231,-2.231,-2.231,-2.231,-2.231,-2.231,-2.2581,-2.3325,-2.3393,-2.4002,-2.5473,-2.6048,-2.6437,-2.6674,-2.6691,-2.6691,-2.6691,-2.6691,-2.6691,-2.6691,-2.6691,-2.6691,-2.6691,-2.7199,-2.7571,-2.7806,-2.889,-2.9634,-0.0383,-0.1623,0.0,-0.2921,-0.1926,0.0,0.0803,0.0,0.0,0.0,0.0,0.0,0.0,0.0,0.0,0.0,0.0,0.0,0.0,-0.1426,0.0,0.0,0.0,0.0,0.0,0.0,0.0,0.0,0.0,0.0,0.0,0.0,-0.6536,-1.0966,-1.1473,-1.2376,-1.3896,-1.4164,-1.4649,-1.5327,-1.6168,-1.6903,-1.7559,-1.79,-1.8057,-1.8057,-1.7878,-1.7811,-1.7777,-1.7702,-1.7732,-1.7777,-1.7684,-1.771,-1.7743,-1.727,-1.7388,-1.7755,-1.7507,-1.7591,-1.7811,-1.7811,-1.7811,-1.7811,-1.7811,-1.7811,-1.7811,-1.7811,-1.7811,-1.7912,-1.8386,-1.9266,-2.012,-2.0653,-2.1566,-2.231,-2.231,-2.231,-2.231,-2.231,-2.231,-2.231,-2.231,-2.231,-2.231,-2.231,-2.231,-2.231,-2.231,-2.231,-2.2581,-2.3325,-2.3173,-2.3494,-2.4712,-2.5727,-2.6302,-2.6302,-2.6539,-2.6691,-2.6691,-2.6691,-2.6691,-2.6691,-2.6691,-2.6691,-2.6691,-2.7182,-2.7554,-2.7806,-2.8332,-2.9127]}]]